[[{"header":{"parameterUnit":"m.s-1","parameterCategory":1,"la1":31.0,"la2":29.5877,"lo1":-88.7671,"lo2":-86.6584,"dy":0.0162,"dx":0.0185,"nx":115,"ny":88,"refTime":"2024-03-18T12:00:00:Z","depth":0,"parameterNumber":2,"parameterNumberName":"U-component_of_WINDS"},"data":[0.0,0.0,0.0,0.0,0.0,0.0,0.0,0.0,0.0,0.0,0.0,0.0,0.0,0.0,0.0,0.0,0.0,0.0,0.0,0.0,0.0,0.0,0.0,0.0,0.0,0.0,0.0,0.0,0.0,0.0,0.0,0.0,0.0,0.0,0.0,0.0,0.0,0.0,0.0,0.0,0.0,0.0,0.0,0.0,0.0,0.0,0.0,0.0,0.0,0.0,0.0,0.0,0.0,0.0,0.0,0.0,0.0,0.0,0.0,0.0,0.0,0.0,0.0,0.0,0.0,0.0,0.0,0.0,0.0,0.0,0.0,0.0,0.0,0.0,0.0,0.0,0.0,0.0,0.0,0.0,0.0,0.0,0.0,0.0,0.0,0.0,0.0,0.0,0.0,0.0,0.0,0.0,0.0,0.0,0.0,0.0,0.0,0.0,0.0,0.0,0.0,0.0,0.0,0.0,0.0,0.0,0.0,0.0,0.0,0.0,0.0,0.0,0.0,0.0,0.0,0.0,0.0,0.0,0.0,0.0,0.0,0.0,0.0,0.0,0.0,0.0,0.0,0.0,0.0,0.0,0.0,0.0,0.0,0.0,0.0,0.0,0.0,0.0,0.0,0.0,0.0,0.0,0.0,0.0,0.0,0.0,0.0,0.0,0.0,0.0,0.0,0.0,0.0,0.0,0.0,0.0,0.0,0.0,0.0,0.0,0.0,0.0,0.0,0.0,0.0,0.0,0.0,0.0,0.0,0.0,0.0,0.0,0.0,0.0,0.0,0.0,0.0,0.0,0.0,0.0,0.0,0.0,0.0,0.0,0.0,0.0,0.0,0.0,0.0,0.0,0.0,0.0,0.0,0.0,0.0,0.0,0.0,0.0,0.0,0.0,0.0,0.0,0.0,0.0,0.0,0.0,0.0,0.0,0.0,0.0,0.0,0.0,0.0,0.0,0.0,0.0,0.0,0.0,0.0,0.0,0.0,0.0,0.0,0.0,0.0,0.0,0.0,0.0,0.0,0.0,0.0,0.0,0.0,0.0,0.0,0.0,0.0,0.0,0.0,0.0,0.0,0.0,0.0,0.0,0.0,0.0,0.0,0.0,0.0,0.0,0.0,0.0,0.0,0.0,0.0,0.0,0.0,0.0,0.0,0.0,0.0,0.0,0.0,0.0,0.0,0.0,0.0,0.0,0.0,0.0,0.0,0.0,0.0,0.0,0.0,0.0,0.0,0.0,0.0,0.0,0.0,0.0,0.0,0.0,0.0,0.0,0.0,0.0,0.0,0.0,0.0,0.0,0.0,0.0,0.0,0.0,0.0,0.0,0.0,0.0,0.0,0.0,0.0,0.0,0.0,0.0,0.0,0.0,0.0,0.0,0.0,0.0,0.0,0.0,0.0,0.0,0.0,0.0,0.0,0.0,0.0,0.0,0.0,0.0,0.0,0.0,0.0,0.0,0.0,0.0,0.0,0.0,0.0,0.0,0.0,0.0,0.0,0.0,0.0,0.0,0.0,0.0,0.0,0.0,0.0,0.0,0.0,0.0,0.0,0.0,0.0,0.0,0.0,0.0,0.0,0.0,0.0,0.0,0.0,0.0,0.0,0.0,0.0,0.0,0.0,0.0,0.0,0.0,0.0,0.0,0.0,0.0,0.0,0.0,0.0,0.0,0.0,0.0,0.0,0.0,0.0,0.0,0.0,0.0,0.0,0.0,0.0,0.0,0.0,0.0,0.0,0.0,0.0,0.0,0.0,0.0,0.0,0.0,0.0,0.0,0.0,0.0,0.0,0.0,0.0,0.0,0.0,0.0,0.0,0.0,0.0,0.0,0.0,0.0,0.0,0.0,0.0,0.0,0.0,0.0,0.0,0.0,0.0,0.0,0.0,0.0,0.0,0.0,0.0,0.0,0.0,0.0,0.0,0.0,0.0,0.0,0.0,0.0,0.0,0.0,0.0,0.0,0.0,0.0,0.0,0.0,0.0,0.0,0.0,0.0,0.0,0.0,0.0,0.0,0.0,0.0,0.0,0.0,0.0,0.0,0.0,0.0,0.0,0.0,0.0,0.0,0.0,0.0,0.0,0.0,0.0,0.0,0.0,0.0,0.0,0.0,0.0,0.0,0.0,0.0,0.0,0.0,0.0,0.0,0.0,0.0,0.0,0.0,0.0,0.0,0.0,0.0,0.0,0.0,0.0,0.0,0.0,0.0,0.0,0.0,0.0,0.0,0.0,0.0,0.0,0.0,0.0,0.0,0.0,0.0,0.0,0.0,0.0,0.0,0.0,0.0,0.0,0.0,0.0,0.0,0.0,0.0,0.0,0.0,0.0,0.0,0.0,0.0,0.0,0.0,0.0,0.0,0.0,0.0,0.0,0.0,0.0,0.0,0.0,0.0,0.0,0.0,0.0,0.0,0.0,0.0,0.0,0.0,0.0,0.0,0.0,0.0,0.0,0.0,0.0,0.0,0.0,0.0,0.0,0.0,0.0,0.0,0.0,0.0,0.0,0.0,0.0,0.0,0.0,0.0,0.0,0.0,0.0,0.0,0.0,0.0,0.0,0.0,0.0,0.0,0.0,0.0,0.0,0.0,0.0,0.0,0.0,0.0,0.0,0.0,0.0,0.0,0.0,0.0,0.0,0.0,0.0,0.0,0.0,0.0,0.0,0.0,0.0,0.0,0.0,0.0,0.0,0.0,0.0,0.0,0.0,0.0,0.0,0.0,0.0,0.0,0.0,0.0,0.0,0.0,0.0,0.0,0.0,0.0,0.0,0.0,0.0,0.0,0.0,0.0,0.0,0.0,0.0,0.0,0.0,0.0,0.0,0.0,0.0,0.0,0.0,0.0,0.0,0.0,0.0,0.0,0.0,0.0,0.0,0.0,0.0,0.0,0.0,0.0,0.0,0.0,0.0,0.0,0.0,0.0,0.0,0.0,0.0,0.0,0.0,0.0,0.0,0.0,0.0,0.0,0.0,0.0,0.0,0.0,0.0,0.0,0.0,0.0,0.0,0.0,0.0,0.0,0.0,0.0,0.0,0.0,0.0,0.0,0.0,0.0,0.0,0.0,0.0,0.0,0.0,0.0,0.0,0.0,0.0,0.0,0.0,0.0,0.0,0.0,0.0,0.0,0.0,0.0,0.0,0.0,0.0,0.0,0.0,0.0,0.0,0.0,0.0,0.0,0.0,0.0,0.0,0.0,0.0,0.0,0.0,0.0,0.0,0.0,0.0,0.0,0.0,0.0,0.0,0.0,0.0,0.0,0.0,0.0,0.0,0.0,0.0,0.0,0.0,0.0,0.0,0.0,0.0,0.0,0.0,0.0,0.0,0.0,0.0,0.0,0.0,0.0,0.0,0.0,0.0,0.0,0.0,0.0,0.0,0.0,0.0,0.0,0.0,0.0,0.0,0.0,0.0,0.0,0.0,0.0,0.0,0.0,0.0,0.0,0.0,0.0,0.0,0.0,0.0,0.0,0.0,0.0,0.0,0.0,0.0,0.0,0.0,0.0,0.0,0.0,0.0,0.0,0.0,0.0,0.0,0.0,0.0,0.0,0.0,0.0,0.0,0.0,0.0,0.0,0.0,0.0,0.0,0.0,0.0,0.0,0.0,0.0,0.0,0.0,0.0,0.0,0.0,0.0,0.0,0.0,0.0,0.0,0.0,0.0,0.0,0.0,0.0,0.0,0.0,0.0,0.0,0.0,0.0,0.0,0.0,0.0,0.0,0.0,0.0,0.0,0.0,0.0,0.0,0.0,0.0,0.0,0.0,0.0,0.0,0.0,0.0,0.0,0.0,0.0,0.0,0.0,0.0,0.0,0.0,0.0,0.0,0.0,0.0,0.0,0.0,0.0,0.0,0.0,0.0,0.0,0.0,0.0,0.0,0.0,0.0,0.0,0.0,0.0,0.0,0.0,0.0,0.0,0.0,0.0,0.0,0.0,0.0,0.0,0.0,0.0,0.0,0.0,0.0,0.0,0.0,0.0,0.0,0.0,0.0,0.0,0.0,0.0,0.0,0.0,0.0,0.0,0.0,0.0,0.0,0.0,0.0,0.0,0.0,0.0,0.0,0.0,0.0,0.0,0.0,0.0,0.0,0.0,0.0,0.0,0.0,0.0,0.0,0.0,0.0,0.0,0.0,0.0,0.0,0.0,0.0,0.0,0.0,0.0,0.0,0.0,0.0,0.0,0.0,0.0,0.0,0.0,0.0,0.0,0.0,0.0,0.0,0.0,0.0,0.0,0.0,0.0,0.0,0.0,0.0,0.0,0.0,0.0,5.1941,0.0,0.0,0.0,0.0,0.0,0.0,0.0,0.0,0.0,0.0,0.0,0.0,0.0,0.0,0.0,0.0,0.0,0.0,0.0,0.0,0.0,0.0,0.0,0.0,0.0,0.0,0.0,0.0,0.0,0.0,0.0,0.0,0.0,0.0,0.0,0.0,0.0,0.0,0.0,0.0,0.0,0.0,0.0,0.0,0.0,0.0,0.0,0.0,0.0,0.0,0.0,0.0,0.0,0.0,0.0,0.0,0.0,0.0,0.0,0.0,0.0,0.0,0.0,0.0,0.0,0.0,0.0,0.0,0.0,0.0,0.0,0.0,0.0,0.0,0.0,0.0,0.0,0.0,0.0,0.0,0.0,0.0,0.0,0.0,0.0,0.0,0.0,0.0,0.0,0.0,0.0,0.0,0.0,0.0,0.0,0.0,0.0,0.0,0.0,0.0,0.0,0.0,0.0,0.0,0.0,0.0,0.0,0.0,0.0,0.0,5.4535,5.4512,5.4169,5.3626,5.2795,0.0,0.0,0.0,0.0,0.0,0.0,0.0,0.0,0.0,0.0,0.0,0.0,0.0,0.0,0.0,0.0,0.0,0.0,0.0,0.0,0.0,0.0,0.0,0.0,0.0,0.0,0.0,0.0,0.0,0.0,0.0,0.0,0.0,0.0,0.0,0.0,0.0,0.0,0.0,0.0,0.0,0.0,0.0,0.0,0.0,0.0,0.0,0.0,0.0,0.0,0.0,0.0,0.0,0.0,0.0,0.0,0.0,0.0,0.0,0.0,0.0,0.0,0.0,0.0,0.0,0.0,0.0,0.0,0.0,0.0,0.0,0.0,0.0,0.0,0.0,0.0,0.0,0.0,0.0,0.0,0.0,0.0,0.0,0.0,0.0,0.0,0.0,0.0,0.0,0.0,0.0,0.0,0.0,0.0,0.0,0.0,0.0,0.0,0.0,0.0,0.0,0.0,0.0,0.0,0.0,0.0,0.0,0.0,0.0,0.0,0.0,0.0,5.5319,5.4418,5.3188,0.0,0.0,0.0,0.0,0.0,0.0,0.0,0.0,0.0,0.0,0.0,0.0,0.0,0.0,0.0,0.0,0.0,0.0,0.0,0.0,0.0,0.0,0.0,0.0,0.0,0.0,0.0,0.0,0.0,0.0,0.0,0.0,0.0,0.0,0.0,0.0,0.0,0.0,0.0,0.0,0.0,0.0,0.0,0.0,0.0,0.0,0.0,0.0,0.0,0.0,0.0,0.0,0.0,0.0,0.0,0.0,0.0,0.0,0.0,0.0,0.0,0.0,0.0,0.0,0.0,0.0,0.0,0.0,0.0,0.0,0.0,0.0,0.0,0.0,0.0,0.0,0.0,0.0,0.0,0.0,0.0,0.0,0.0,0.0,0.0,0.0,0.0,0.0,0.0,0.0,0.0,0.0,0.0,0.0,0.0,0.0,0.0,0.0,0.0,0.0,0.0,0.0,0.0,0.0,0.0,0.0,0.0,0.0,0.0,0.0,5.5942,5.6927,5.5659,0.0,5.2392,0.0,0.0,0.0,0.0,0.0,0.0,0.0,0.0,0.0,0.0,0.0,0.0,0.0,0.0,0.0,0.0,0.0,0.0,0.0,0.0,0.0,0.0,0.0,0.0,0.0,0.0,0.0,0.0,0.0,0.0,0.0,0.0,0.0,0.0,0.0,0.0,0.0,0.0,0.0,0.0,0.0,0.0,0.0,0.0,0.0,0.0,0.0,0.0,0.0,0.0,0.0,0.0,0.0,0.0,0.0,0.0,0.0,0.0,0.0,0.0,0.0,0.0,0.0,0.0,0.0,0.0,0.0,0.0,0.0,0.0,0.0,0.0,0.0,0.0,0.0,0.0,0.0,0.0,0.0,0.0,0.0,0.0,0.0,0.0,0.0,0.0,0.0,0.0,0.0,0.0,0.0,0.0,0.0,0.0,0.0,0.0,0.0,0.0,0.0,0.0,0.0,0.0,0.0,0.0,0.0,0.0,0.0,0.0,0.0,0.0,5.5963,5.6361,5.504,5.3885,0.0,0.0,0.0,0.0,0.0,0.0,0.0,0.0,0.0,0.0,0.0,0.0,0.0,0.0,0.0,0.0,0.0,0.0,0.0,0.0,0.0,0.0,0.0,0.0,0.0,0.0,0.0,0.0,0.0,0.0,0.0,0.0,0.0,0.0,0.0,0.0,0.0,0.0,0.0,0.0,0.0,0.0,0.0,0.0,0.0,0.0,0.0,0.0,0.0,0.0,0.0,0.0,0.0,0.0,0.0,0.0,0.0,0.0,0.0,0.0,0.0,0.0,0.0,0.0,0.0,0.0,0.0,0.0,0.0,0.0,0.0,0.0,0.0,0.0,0.0,0.0,0.0,0.0,0.0,0.0,0.0,0.0,0.0,0.0,0.0,0.0,0.0,0.0,0.0,0.0,0.0,0.0,0.0,0.0,0.0,0.0,0.0,0.0,0.0,0.0,0.0,0.0,0.0,0.0,0.0,0.0,0.0,0.0,0.0,0.0,5.6024,5.6197,5.6241,5.4953,5.4029,5.3599,0.0,0.0,0.0,0.0,0.0,0.0,0.0,0.0,0.0,0.0,0.0,0.0,0.0,0.0,0.0,0.0,0.0,0.0,0.0,0.0,0.0,0.0,0.0,0.0,0.0,0.0,0.0,0.0,0.0,0.0,0.0,0.0,0.0,0.0,0.0,0.0,0.0,0.0,0.0,0.0,0.0,0.0,0.0,0.0,0.0,0.0,0.0,0.0,0.0,0.0,0.0,0.0,0.0,0.0,0.0,0.0,0.0,0.0,0.0,0.0,0.0,0.0,0.0,0.0,0.0,0.0,0.0,0.0,0.0,0.0,0.0,0.0,0.0,0.0,0.0,0.0,0.0,0.0,0.0,0.0,0.0,0.0,0.0,0.0,0.0,0.0,0.0,0.0,0.0,0.0,0.0,0.0,0.0,0.0,0.0,0.0,0.0,0.0,0.0,0.0,0.0,0.0,0.0,0.0,0.0,0.0,0.0,0.0,5.649,5.674,5.7011,5.7135,5.5881,5.4652,0.0,0.0,0.0,0.0,0.0,0.0,0.0,0.0,0.0,0.0,0.0,0.0,0.0,0.0,0.0,0.0,0.0,0.0,0.0,0.0,0.0,0.0,0.0,0.0,0.0,0.0,0.0,0.0,0.0,0.0,0.0,0.0,0.0,0.0,0.0,0.0,0.0,0.0,0.0,0.0,0.0,0.0,0.0,0.0,0.0,0.0,0.0,0.0,0.0,0.0,0.0,0.0,0.0,0.0,0.0,0.0,0.0,0.0,0.0,0.0,0.0,0.0,0.0,0.0,0.0,0.0,0.0,0.0,0.0,0.0,0.0,0.0,0.0,0.0,0.0,0.0,0.0,0.0,0.0,0.0,0.0,0.0,0.0,0.0,0.0,0.0,0.0,0.0,0.0,0.0,0.0,0.0,0.0,0.0,0.0,0.0,0.0,0.0,0.0,0.0,0.0,0.0,0.0,0.0,0.0,0.0,0.0,0.0,0.0,5.6152,5.6361,5.6532,5.6664,5.5722,5.4706,0.0,0.0,0.0,0.0,0.0,0.0,0.0,0.0,0.0,0.0,0.0,0.0,0.0,0.0,0.0,0.0,0.0,0.0,0.0,0.0,0.0,0.0,0.0,0.0,0.0,0.0,0.0,0.0,0.0,0.0,0.0,0.0,0.0,0.0,0.0,0.0,0.0,0.0,0.0,0.0,0.0,0.0,0.0,0.0,0.0,0.0,0.0,0.0,0.0,0.0,0.0,0.0,0.0,0.0,0.0,0.0,0.0,0.0,0.0,0.0,0.0,0.0,0.0,0.0,0.0,0.0,0.0,0.0,0.0,0.0,0.0,0.0,0.0,0.0,0.0,0.0,0.0,0.0,0.0,0.0,0.0,0.0,0.0,0.0,0.0,0.0,0.0,0.0,0.0,0.0,0.0,0.0,0.0,0.0,0.0,0.0,0.0,0.0,0.0,0.0,0.0,0.0,0.0,0.0,0.0,0.0,0.0,0.0,0.0,5.6998,0.0,5.7112,5.7132,5.6437,5.5402,0.0,0.0,0.0,0.0,0.0,0.0,0.0,0.0,0.0,0.0,0.0,0.0,0.0,0.0,0.0,0.0,0.0,0.0,0.0,0.0,0.0,0.0,0.0,0.0,0.0,0.0,0.0,0.0,0.0,0.0,0.0,0.0,0.0,0.0,0.0,0.0,0.0,0.0,0.0,0.0,0.0,0.0,0.0,0.0,0.0,0.0,0.0,0.0,0.0,0.0,0.0,0.0,0.0,0.0,0.0,0.0,0.0,0.0,0.0,0.0,0.0,0.0,0.0,0.0,0.0,0.0,0.0,0.0,0.0,0.0,0.0,0.0,0.0,0.0,0.0,0.0,0.0,0.0,0.0,0.0,0.0,0.0,0.0,0.0,0.0,0.0,0.0,0.0,0.0,0.0,0.0,0.0,0.0,0.0,0.0,0.0,0.0,0.0,0.0,0.0,0.0,0.0,0.0,0.0,0.0,0.0,0.0,0.0,5.773,5.9264,5.9059,5.8801,5.8667,5.8049,5.6671,0.0,0.0,0.0,0.0,0.0,0.0,0.0,0.0,0.0,0.0,0.0,0.0,0.0,0.0,0.0,0.0,0.0,0.0,0.0,0.0,0.0,0.0,0.0,0.0,0.0,0.0,0.0,0.0,0.0,0.0,0.0,0.0,0.0,0.0,0.0,0.0,0.0,0.0,0.0,0.0,0.0,0.0,0.0,0.0,0.0,0.0,0.0,0.0,0.0,0.0,0.0,0.0,0.0,0.0,0.0,0.0,0.0,0.0,0.0,0.0,0.0,0.0,0.0,0.0,0.0,0.0,0.0,0.0,0.0,0.0,0.0,0.0,0.0,0.0,0.0,0.0,0.0,0.0,0.0,0.0,0.0,0.0,0.0,0.0,0.0,0.0,0.0,0.0,0.0,0.0,0.0,0.0,0.0,0.0,0.0,0.0,0.0,0.0,0.0,0.0,0.0,0.0,0.0,0.0,0.0,0.0,0.0,0.0,0.0,5.9095,5.9051,5.9056,5.8984,5.8267,5.6922,0.0,0.0,0.0,0.0,0.0,0.0,0.0,0.0,0.0,0.0,0.0,0.0,0.0,0.0,0.0,0.0,0.0,0.0,0.0,0.0,0.0,0.0,0.0,0.0,0.0,0.0,0.0,0.0,0.0,0.0,0.0,0.0,0.0,0.0,0.0,0.0,0.0,0.0,0.0,0.0,0.0,0.0,0.0,0.0,0.0,0.0,0.0,0.0,0.0,0.0,0.0,0.0,0.0,0.0,0.0,0.0,0.0,0.0,0.0,0.0,0.0,0.0,0.0,0.0,0.0,0.0,0.0,0.0,0.0,0.0,0.0,0.0,0.0,0.0,0.0,0.0,0.0,0.0,0.0,0.0,0.0,0.0,0.0,0.0,0.0,0.0,0.0,0.0,0.0,0.0,0.0,0.0,0.0,0.0,0.0,0.0,0.0,0.0,0.0,0.0,0.0,0.0,0.0,0.0,0.0,0.0,0.0,0.0,0.0,6.1004,6.0827,6.0557,6.0323,5.9709,5.8304,5.6025,0.0,0.0,0.0,0.0,0.0,0.0,0.0,0.0,0.0,0.0,0.0,0.0,0.0,0.0,0.0,0.0,0.0,0.0,0.0,0.0,0.0,0.0,0.0,0.0,0.0,0.0,0.0,0.0,0.0,0.0,0.0,0.0,0.0,0.0,0.0,0.0,0.0,0.0,0.0,0.0,0.0,0.0,0.0,0.0,0.0,0.0,0.0,0.0,0.0,0.0,0.0,0.0,0.0,0.0,0.0,0.0,0.0,0.0,0.0,0.0,0.0,0.0,0.0,0.0,0.0,0.0,0.0,0.0,0.0,0.0,0.0,0.0,0.0,0.0,0.0,0.0,0.0,0.0,0.0,0.0,0.0,0.0,0.0,0.0,0.0,0.0,0.0,0.0,0.0,0.0,0.0,0.0,0.0,0.0,0.0,0.0,0.0,0.0,0.0,0.0,0.0,0.0,0.0,0.0,0.0,0.0,0.0,0.0,6.4509,6.4093,6.3418,6.2457,6.2311,6.061,0.0,0.0,0.0,0.0,0.0,0.0,0.0,0.0,0.0,0.0,0.0,0.0,0.0,0.0,0.0,0.0,0.0,0.0,0.0,0.0,0.0,0.0,0.0,0.0,0.0,0.0,0.0,0.0,0.0,0.0,0.0,0.0,0.0,0.0,0.0,0.0,0.0,0.0,0.0,0.0,0.0,0.0,0.0,0.0,0.0,0.0,0.0,0.0,0.0,0.0,0.0,0.0,0.0,0.0,0.0,0.0,0.0,0.0,0.0,0.0,0.0,0.0,0.0,0.0,0.0,0.0,0.0,0.0,0.0,0.0,0.0,0.0,0.0,0.0,0.0,0.0,0.0,0.0,0.0,0.0,0.0,0.0,0.0,0.0,0.0,0.0,0.0,0.0,0.0,0.0,0.0,0.0,0.0,0.0,0.0,0.0,0.0,0.0,0.0,0.0,0.0,0.0,0.0,0.0,0.0,0.0,0.0,0.0,0.0,6.5678,6.6596,6.6551,6.5417,6.3892,6.1732,0.0,0.0,0.0,0.0,0.0,0.0,0.0,0.0,0.0,0.0,0.0,0.0,0.0,0.0,0.0,0.0,0.0,0.0,0.0,0.0,0.0,0.0,0.0,0.0,0.0,0.0,0.0,0.0,0.0,0.0,0.0,0.0,0.0,0.0,0.0,0.0,0.0,0.0,0.0,0.0,0.0,0.0,0.0,0.0,0.0,0.0,0.0,0.0,0.0,0.0,0.0,0.0,0.0,0.0,0.0,0.0,0.0,0.0,0.0,0.0,0.0,0.0,0.0,0.0,0.0,0.0,0.0,0.0,0.0,0.0,0.0,0.0,0.0,0.0,0.0,0.0,0.0,0.0,0.0,0.0,0.0,0.0,0.0,0.0,0.0,0.0,0.0,0.0,0.0,0.0,0.0,0.0,0.0,0.0,0.0,0.0,0.0,0.0,0.0,0.0,0.0,0.0,0.0,0.0,0.0,0.0,0.0,0.0,6.4694,6.679,6.8541,6.9335,6.9073,6.6271,6.3507,0.0,0.0,0.0,0.0,0.0,0.0,0.0,0.0,0.0,0.0,0.0,0.0,0.0,0.0,0.0,0.0,0.0,0.0,0.0,0.0,0.0,0.0,0.0,0.0,0.0,0.0,0.0,0.0,0.0,0.0,0.0,0.0,0.0,0.0,0.0,0.0,0.0,0.0,0.0,0.0,0.0,0.0,0.0,0.0,0.0,0.0,0.0,0.0,0.0,0.0,0.0,0.0,0.0,0.0,0.0,0.0,0.0,0.0,0.0,0.0,0.0,0.0,0.0,0.0,0.0,0.0,0.0,0.0,0.0,0.0,0.0,0.0,0.0,0.0,0.0,0.0,0.0,0.0,0.0,0.0,0.0,0.0,0.0,0.0,0.0,0.0,0.0,0.0,0.0,0.0,0.0,0.0,0.0,0.0,0.0,0.0,0.0,0.0,0.0,0.0,0.0,0.0,0.0,0.0,0.0,0.0,0.0,0.0,6.5986,6.7957,7.0127,7.1776,7.2645,6.8939,6.5463,0.0,0.0,0.0,0.0,0.0,0.0,0.0,0.0,0.0,0.0,0.0,0.0,0.0,0.0,0.0,0.0,0.0,0.0,0.0,0.0,0.0,0.0,0.0,0.0,0.0,0.0,0.0,0.0,0.0,0.0,0.0,0.0,0.0,0.0,0.0,0.0,0.0,0.0,0.0,0.0,0.0,0.0,0.0,0.0,0.0,0.0,0.0,0.0,0.0,0.0,0.0,0.0,0.0,0.0,0.0,0.0,0.0,0.0,0.0,0.0,0.0,0.0,0.0,0.0,0.0,0.0,0.0,0.0,0.0,0.0,0.0,0.0,0.0,0.0,0.0,0.0,0.0,0.0,0.0,0.0,0.0,0.0,0.0,0.0,0.0,0.0,0.0,0.0,0.0,0.0,0.0,0.0,0.0,0.0,0.0,0.0,0.0,0.0,0.0,0.0,0.0,0.0,0.0,0.0,0.0,0.0,0.0,0.0,6.7263,6.9947,7.1516,7.303,7.4412,7.0013,6.6427,0.0,0.0,0.0,0.0,0.0,0.0,0.0,0.0,0.0,0.0,0.0,0.0,0.0,0.0,0.0,0.0,0.0,0.0,0.0,0.0,0.0,0.0,0.0,0.0,0.0,0.0,0.0,0.0,0.0,0.0,0.0,0.0,0.0,0.0,0.0,0.0,0.0,0.0,0.0,0.0,0.0,0.0,0.0,0.0,0.0,0.0,0.0,0.0,5.6721,0.0,0.0,0.0,0.0,0.0,0.0,0.0,0.0,0.0,0.0,0.0,0.0,0.0,0.0,0.0,0.0,0.0,0.0,0.0,0.0,0.0,0.0,0.0,0.0,0.0,0.0,0.0,0.0,0.0,0.0,0.0,0.0,0.0,0.0,0.0,0.0,0.0,0.0,0.0,0.0,0.0,0.0,0.0,0.0,0.0,0.0,0.0,0.0,0.0,0.0,0.0,0.0,0.0,0.0,0.0,0.0,0.0,0.0,0.0,6.7831,7.1213,7.2497,7.3976,7.5533,7.2025,6.8689,0.0,0.0,0.0,0.0,0.0,0.0,0.0,0.0,0.0,0.0,0.0,0.0,0.0,0.0,0.0,0.0,0.0,0.0,0.0,0.0,0.0,0.0,0.0,0.0,0.0,0.0,0.0,0.0,0.0,0.0,0.0,0.0,0.0,0.0,0.0,0.0,0.0,0.0,0.0,0.0,0.0,0.0,0.0,0.0,0.0,0.0,0.0,0.0,0.0,0.0,0.0,0.0,0.0,0.0,0.0,0.0,0.0,0.0,0.0,0.0,0.0,0.0,0.0,0.0,0.0,0.0,0.0,0.0,0.0,0.0,0.0,0.0,0.0,0.0,0.0,0.0,0.0,0.0,0.0,0.0,0.0,0.0,0.0,0.0,0.0,0.0,0.0,0.0,0.0,0.0,0.0,0.0,0.0,0.0,0.0,0.0,0.0,0.0,0.0,0.0,0.0,0.0,0.0,0.0,0.0,0.0,0.0,6.5898,6.8415,7.2318,7.3479,7.4934,7.6788,7.4088,7.1231,6.8439,0.0,0.0,0.0,0.0,0.0,0.0,0.0,0.0,0.0,0.0,0.0,0.0,0.0,0.0,0.0,0.0,0.0,0.0,0.0,0.0,0.0,0.0,0.0,0.0,0.0,0.0,0.0,0.0,0.0,0.0,0.0,0.0,0.0,0.0,0.0,0.0,0.0,0.0,5.3584,5.5014,0.0,0.0,0.0,0.0,0.0,0.0,0.0,0.0,5.5866,0.0,0.0,0.0,0.0,0.0,0.0,0.0,0.0,0.0,0.0,0.0,0.0,0.0,0.0,0.0,0.0,0.0,0.0,0.0,0.0,0.0,0.0,0.0,0.0,0.0,0.0,0.0,0.0,0.0,0.0,0.0,0.0,0.0,0.0,0.0,0.0,0.0,0.0,0.0,0.0,0.0,0.0,0.0,0.0,0.0,0.0,0.0,0.0,0.0,0.0,0.0,0.0,0.0,0.0,0.0,0.0,6.6902,6.7303,6.9732,7.435,7.4711,7.5757,7.7539,7.491,7.2434,7.0286,0.0,0.0,0.0,0.0,0.0,0.0,0.0,0.0,0.0,0.0,0.0,0.0,0.0,0.0,0.0,0.0,0.0,0.0,0.0,0.0,0.0,0.0,0.0,0.0,0.0,0.0,0.0,0.0,0.0,0.0,0.0,0.0,0.0,0.0,0.0,0.0,0.0,0.0,0.0,5.6682,5.7364,0.0,0.0,0.0,0.0,0.0,0.0,0.0,0.0,5.5574,0.0,0.0,0.0,0.0,0.0,0.0,0.0,0.0,0.0,0.0,0.0,0.0,0.0,0.0,0.0,0.0,0.0,0.0,0.0,0.0,0.0,0.0,0.0,0.0,0.0,0.0,0.0,0.0,0.0,0.0,0.0,0.0,0.0,0.0,0.0,0.0,0.0,0.0,0.0,0.0,0.0,0.0,0.0,0.0,0.0,0.0,0.0,0.0,0.0,0.0,0.0,0.0,0.0,0.0,0.0,6.7341,6.8162,7.0813,7.532,7.5658,7.668,7.8462,7.5566,7.2769,0.0,0.0,0.0,0.0,0.0,0.0,0.0,0.0,0.0,0.0,0.0,0.0,0.0,0.0,0.0,0.0,0.0,0.0,0.0,0.0,0.0,0.0,0.0,0.0,0.0,0.0,0.0,0.0,0.0,0.0,0.0,0.0,0.0,0.0,0.0,0.0,0.0,0.0,0.0,0.0,5.7761,5.8481,5.8573,0.0,0.0,0.0,0.0,0.0,0.0,5.6233,5.5626,0.0,0.0,0.0,0.0,0.0,0.0,0.0,0.0,0.0,0.0,0.0,0.0,0.0,0.0,0.0,0.0,0.0,0.0,0.0,0.0,0.0,0.0,0.0,0.0,0.0,0.0,0.0,0.0,0.0,0.0,0.0,0.0,0.0,0.0,0.0,0.0,0.0,0.0,0.0,0.0,0.0,0.0,0.0,0.0,0.0,0.0,0.0,0.0,0.0,0.0,0.0,0.0,0.0,0.0,0.0,6.7506,6.8873,7.1658,7.5828,7.6306,7.734,7.9161,7.5934,7.2885,0.0,0.0,0.0,0.0,0.0,0.0,0.0,0.0,0.0,0.0,0.0,0.0,0.0,0.0,0.0,0.0,0.0,0.0,0.0,0.0,0.0,0.0,0.0,0.0,0.0,0.0,0.0,0.0,0.0,0.0,0.0,0.0,0.0,0.0,0.0,0.0,0.0,0.0,0.0,0.0,0.0,5.9665,6.0576,5.9653,0.0,0.0,0.0,0.0,5.7345,5.6984,0.0,0.0,0.0,0.0,0.0,0.0,0.0,0.0,0.0,0.0,0.0,0.0,0.0,0.0,0.0,0.0,0.0,0.0,0.0,0.0,0.0,0.0,0.0,0.0,0.0,0.0,0.0,0.0,0.0,0.0,0.0,0.0,0.0,0.0,0.0,0.0,0.0,0.0,0.0,0.0,0.0,0.0,0.0,0.0,0.0,0.0,0.0,0.0,0.0,0.0,0.0,0.0,0.0,0.0,0.0,0.0,6.7667,6.9599,7.2406,7.6056,7.6455,7.7437,7.9198,7.5791,7.2967,0.0,0.0,0.0,0.0,0.0,0.0,0.0,0.0,0.0,0.0,0.0,0.0,0.0,0.0,0.0,0.0,0.0,0.0,0.0,0.0,0.0,0.0,0.0,0.0,0.0,0.0,0.0,0.0,0.0,0.0,0.0,0.0,0.0,0.0,0.0,0.0,0.0,0.0,0.0,0.0,0.0,6.1019,6.0953,5.9672,5.8606,0.0,0.0,5.888,5.8296,5.9465,0.0,0.0,0.0,0.0,0.0,0.0,0.0,0.0,0.0,0.0,0.0,0.0,0.0,0.0,0.0,0.0,0.0,0.0,0.0,0.0,0.0,0.0,0.0,0.0,0.0,0.0,0.0,0.0,0.0,0.0,0.0,0.0,0.0,0.0,0.0,0.0,0.0,0.0,0.0,0.0,0.0,0.0,0.0,0.0,0.0,0.0,0.0,0.0,0.0,0.0,0.0,0.0,0.0,0.0,0.0,6.6124,6.7863,7.0842,7.3639,7.6205,7.704,7.8107,7.9369,7.4995,7.1808,0.0,0.0,0.0,0.0,0.0,0.0,0.0,0.0,0.0,0.0,0.0,0.0,0.0,0.0,0.0,0.0,0.0,0.0,0.0,0.0,0.0,0.0,0.0,0.0,0.0,0.0,0.0,0.0,0.0,0.0,0.0,0.0,0.0,0.0,0.0,0.0,0.0,0.0,0.0,0.0,0.0,0.0,6.1022,6.0648,0.0,0.0,0.0,5.9817,5.918,0.0,0.0,0.0,0.0,0.0,0.0,0.0,0.0,0.0,0.0,0.0,0.0,0.0,0.0,0.0,0.0,0.0,0.0,0.0,0.0,0.0,0.0,0.0,0.0,0.0,0.0,0.0,0.0,0.0,0.0,0.0,0.0,0.0,0.0,0.0,0.0,0.0,0.0,0.0,0.0,0.0,0.0,0.0,0.0,0.0,0.0,0.0,0.0,0.0,0.0,0.0,0.0,0.0,0.0,0.0,0.0,0.0,6.7967,7.1886,7.4848,7.6643,7.7673,7.8745,7.9781,7.5456,0.0,0.0,0.0,0.0,0.0,0.0,0.0,0.0,0.0,0.0,0.0,0.0,0.0,0.0,0.0,0.0,0.0,0.0,0.0,0.0,0.0,0.0,0.0,0.0,0.0,0.0,0.0,4.8251,0.0,0.0,0.0,0.0,0.0,0.0,0.0,0.0,0.0,0.0,0.0,0.0,0.0,0.0,6.0872,6.1054,6.1388,6.1534,0.0,0.0,6.0503,6.0134,6.0529,5.975,0.0,0.0,0.0,0.0,0.0,0.0,0.0,0.0,0.0,0.0,0.0,0.0,0.0,0.0,0.0,0.0,0.0,0.0,0.0,0.0,0.0,0.0,0.0,0.0,0.0,0.0,0.0,0.0,0.0,0.0,0.0,0.0,0.0,0.0,0.0,0.0,0.0,0.0,0.0,0.0,0.0,0.0,0.0,0.0,0.0,0.0,0.0,0.0,0.0,0.0,0.0,0.0,0.0,0.0,0.0,6.8158,7.2596,7.582,7.7727,7.8179,7.9198,8.0839,7.829,7.5469,0.0,0.0,0.0,0.0,0.0,0.0,0.0,0.0,0.0,0.0,0.0,0.0,0.0,0.0,0.0,0.0,0.0,0.0,0.0,0.0,0.0,0.0,0.0,0.0,0.0,0.0,0.0,0.0,0.0,0.0,0.0,0.0,0.0,0.0,0.0,0.0,0.0,0.0,0.0,0.0,0.0,6.0368,6.1286,6.109,6.1277,0.0,0.0,6.0791,6.1222,6.2515,6.2084,5.7869,0.0,0.0,0.0,0.0,0.0,0.0,0.0,0.0,0.0,0.0,0.0,0.0,0.0,0.0,0.0,0.0,0.0,0.0,0.0,0.0,0.0,0.0,0.0,0.0,0.0,0.0,0.0,0.0,0.0,0.0,0.0,0.0,0.0,0.0,0.0,0.0,0.0,0.0,0.0,0.0,0.0,0.0,0.0,0.0,0.0,0.0,0.0,0.0,0.0,0.0,0.0,0.0,0.0,6.6889,6.8235,7.3305,7.6605,7.7839,7.8745,7.981,8.1127,7.8111,7.522,0.0,0.0,0.0,0.0,0.0,0.0,0.0,0.0,0.0,0.0,0.0,0.0,0.0,0.0,0.0,0.0,0.0,0.0,0.0,0.0,0.0,0.0,0.0,0.0,0.0,0.0,0.0,0.0,5.1475,5.1365,4.981,0.0,0.0,0.0,0.0,0.0,0.0,0.0,0.0,0.0,0.0,6.0164,6.212,6.253,0.0,0.0,6.2834,6.2129,6.1287,6.1354,6.0486,5.7587,5.6391,0.0,0.0,0.0,0.0,0.0,0.0,0.0,0.0,0.0,0.0,0.0,0.0,0.0,0.0,0.0,0.0,0.0,0.0,0.0,0.0,0.0,0.0,0.0,0.0,0.0,0.0,0.0,0.0,0.0,0.0,0.0,0.0,0.0,0.0,0.0,0.0,0.0,0.0,0.0,0.0,0.0,0.0,0.0,0.0,0.0,0.0,0.0,0.0,0.0,0.0,0.0,0.0,6.6749,6.8431,7.38,7.7164,7.8445,7.9607,8.0553,8.1216,7.9153,7.6638,0.0,0.0,0.0,0.0,0.0,0.0,0.0,0.0,0.0,0.0,0.0,0.0,0.0,0.0,0.0,0.0,0.0,0.0,0.0,0.0,0.0,0.0,0.0,0.0,0.0,0.0,0.0,0.0,5.0501,5.0167,4.9638,0.0,0.0,0.0,0.0,0.0,0.0,0.0,0.0,0.0,0.0,6.0304,6.2056,6.2561,6.2727,6.2764,6.2339,6.1709,6.0872,6.034,5.9502,5.7819,0.0,0.0,0.0,0.0,0.0,0.0,0.0,0.0,0.0,0.0,0.0,0.0,0.0,0.0,0.0,0.0,0.0,0.0,0.0,0.0,0.0,0.0,0.0,0.0,0.0,0.0,0.0,0.0,0.0,0.0,5.8529,0.0,0.0,0.0,0.0,0.0,0.0,0.0,0.0,0.0,0.0,0.0,0.0,0.0,0.0,0.0,0.0,0.0,0.0,0.0,0.0,0.0,0.0,6.6881,6.88,7.4085,7.7719,7.9607,8.079,8.1416,8.1612,8.2177,8.0877,7.7336,0.0,0.0,0.0,0.0,0.0,0.0,0.0,0.0,0.0,0.0,0.0,0.0,0.0,0.0,0.0,0.0,0.0,0.0,0.0,0.0,0.0,0.0,0.0,0.0,0.0,0.0,4.836,4.8952,4.9683,0.0,0.0,0.0,0.0,0.0,0.0,0.0,0.0,0.0,0.0,5.9034,6.0855,6.0739,6.0599,6.0603,6.042,5.9452,5.8921,5.9903,6.0026,5.9698,0.0,0.0,0.0,0.0,0.0,0.0,0.0,0.0,0.0,0.0,0.0,0.0,0.0,0.0,0.0,0.0,0.0,0.0,0.0,0.0,0.0,0.0,0.0,0.0,0.0,0.0,0.0,6.0795,6.1113,0.0,0.0,0.0,0.0,0.0,0.0,0.0,0.0,0.0,0.0,0.0,6.2466,6.2419,0.0,0.0,0.0,0.0,0.0,0.0,0.0,0.0,0.0,0.0,0.0,0.0,6.7029,6.9004,7.4312,7.7937,7.974,8.087,8.1801,8.2607,8.2758,8.0801,7.6478,0.0,0.0,0.0,0.0,0.0,0.0,0.0,0.0,0.0,0.0,0.0,0.0,0.0,0.0,0.0,0.0,0.0,0.0,0.0,0.0,0.0,0.0,0.0,0.0,0.0,4.9774,0.0,0.0,0.0,0.0,0.0,0.0,0.0,0.0,0.0,0.0,0.0,5.6054,5.8153,5.8768,5.9632,6.1265,6.1776,6.223,0.0,0.0,0.0,0.0,0.0,0.0,0.0,0.0,0.0,0.0,0.0,0.0,0.0,0.0,5.7703,5.5574,5.4987,5.473,5.4436,0.0,0.0,0.0,0.0,0.0,0.0,0.0,0.0,0.0,0.0,0.0,0.0,0.0,0.0,6.2369,0.0,6.2247,0.0,0.0,0.0,0.0,0.0,0.0,0.0,0.0,6.4456,6.5255,6.517,6.5075,6.5027,0.0,6.4129,6.2572,0.0,0.0,0.0,0.0,0.0,0.0,0.0,0.0,6.7322,6.9566,7.4644,7.8159,7.9916,8.1342,8.2263,8.2792,8.2913,8.1109,7.7294,7.3312,6.964,0.0,0.0,0.0,0.0,0.0,0.0,0.0,0.0,0.0,0.0,0.0,0.0,0.0,0.0,0.0,0.0,0.0,0.0,0.0,0.0,0.0,0.0,0.0,5.0223,0.0,0.0,0.0,0.0,0.0,0.0,0.0,0.0,0.0,5.377,5.5514,5.7455,5.9227,5.9797,6.0322,6.0969,0.0,0.0,0.0,0.0,0.0,0.0,0.0,5.9784,5.9925,5.9844,6.0026,6.1084,6.1185,6.0957,6.0371,0.0,0.0,5.7813,5.7042,5.6859,5.6859,5.6602,5.6418,5.6418,5.7079,5.7483,0.0,0.0,0.0,0.0,0.0,0.0,0.0,0.0,6.3922,6.3674,0.0,6.3705,0.0,0.0,0.0,0.0,0.0,6.5046,0.0,0.0,6.9117,7.0225,6.8772,6.8457,6.8346,6.8198,6.5915,6.5078,6.552,6.4266,0.0,0.0,0.0,0.0,0.0,0.0,6.771,7.0611,7.5157,7.8405,8.0277,8.2187,8.2832,8.2173,8.2721,8.199,7.9728,7.6994,7.4263,7.1253,6.6341,0.0,0.0,0.0,0.0,0.0,0.0,0.0,0.0,0.0,0.0,0.0,0.0,0.0,0.0,0.0,0.0,0.0,0.0,0.0,0.0,5.0998,0.0,0.0,0.0,0.0,0.0,0.0,0.0,0.0,0.0,0.0,5.5231,5.7593,5.9374,5.9501,0.0,0.0,0.0,0.0,6.2447,5.9554,5.9661,6.0259,6.0259,6.098,6.1862,6.2768,0.0,0.0,6.3936,6.3298,6.2874,6.275,6.3489,6.3356,6.1006,5.9869,5.9318,5.9318,5.8767,5.8217,5.8253,5.9024,5.9465,6.8044,0.0,0.0,0.0,0.0,6.4012,6.4948,6.6515,6.7203,6.7696,6.7942,6.7568,0.0,0.0,0.0,0.0,0.0,0.0,6.6904,6.7875,6.949,7.0299,7.0411,7.0215,7.0165,7.0127,6.9409,6.9137,6.9322,6.8915,6.6704,6.2719,0.0,0.0,0.0,0.0,6.8575,7.2449,7.6045,7.8713,8.043,8.226,8.3441,8.386,8.3943,8.2721,8.0026,7.9009,7.6224,7.144,6.9778,0.0,0.0,0.0,0.0,0.0,0.0,0.0,0.0,0.0,0.0,0.0,0.0,0.0,0.0,0.0,0.0,0.0,0.0,0.0,5.2696,5.3769,5.3621,0.0,0.0,0.0,0.0,0.0,0.0,0.0,0.0,0.0,5.7242,5.7545,5.7884,0.0,0.0,5.9595,5.9301,6.0893,6.2303,6.2671,6.3305,0.0,6.392,6.3676,6.3566,6.3736,6.4912,6.5595,6.4888,6.5124,6.5249,6.4699,6.4736,6.4714,6.4053,6.2732,6.1851,6.1777,6.1594,6.1667,6.2218,6.2548,6.2511,7.234,6.9298,6.6881,6.6081,6.6416,6.6433,6.7432,6.9015,6.964,7.0022,7.0172,6.9976,6.8688,6.6739,6.6156,0.0,0.0,0.0,6.9694,7.1004,7.1984,7.2671,7.3069,7.2955,7.2704,7.2369,7.2035,7.1835,7.1784,7.0819,6.8901,6.6062,0.0,0.0,6.5634,6.7391,7.0139,7.3783,7.6618,7.8823,8.0578,8.2476,8.3658,8.4125,8.4667,8.3601,8.0684,8.0661,7.8745,7.4424,7.2596,6.9644,0.0,0.0,0.0,0.0,0.0,0.0,0.0,0.0,0.0,0.0,0.0,5.3834,5.3088,0.0,0.0,0.0,5.4396,5.4396,5.4396,5.4437,0.0,0.0,0.0,0.0,0.0,0.0,0.0,5.4442,5.6565,5.8201,5.8674,5.8895,5.9309,6.0211,6.0626,6.0885,6.1024,0.0,6.4214,6.4916,6.5533,6.5948,6.6049,6.5989,6.5841,6.5791,6.7053,6.7589,6.6476,6.6916,6.7136,6.6476,6.6256,6.6256,6.6256,6.5154,6.4016,6.3466,6.3576,6.3906,6.409,6.4604,6.4787,7.6196,7.4391,6.9858,6.8319,6.8791,6.8753,6.9719,7.1242,7.1413,7.1182,7.0638,7.121,7.0191,6.7979,6.7858,0.0,7.0341,7.2089,7.3391,7.4347,7.5645,7.6205,7.6205,7.5947,7.5378,7.4614,7.3818,7.3394,7.3141,7.0953,7.0087,7.0643,6.9397,6.8677,6.8782,6.9842,7.1845,7.4661,7.677,7.8818,8.1018,8.2721,8.3561,8.3533,8.4893,8.4328,8.1606,8.1886,8.1141,7.8891,7.4935,7.1777,6.9582,0.0,0.0,0.0,0.0,0.0,0.0,0.0,0.0,0.0,0.0,0.0,0.0,0.0,0.0,0.0,5.6256,0.0,5.633,5.4216,0.0,0.0,0.0,5.4433,5.5992,5.7624,5.8585,5.8511,0.0,0.0,5.9878,6.1217,6.2604,6.3795,6.4569,6.4769,6.4128,6.5919,6.7262,6.6472,6.6827,6.7234,6.7418,6.7963,6.8383,6.8407,6.9651,6.9716,6.8357,6.8382,6.8549,6.7777,6.7687,6.765,6.765,6.6953,6.6109,6.4567,6.4861,6.5154,6.4604,6.5448,6.6145,7.6884,7.6327,7.4524,7.2829,7.1329,7.1301,7.1677,7.2272,7.2955,7.325,7.3288,7.3239,7.2447,7.1057,7.0619,7.0965,7.2059,7.3307,7.4301,7.5136,7.6043,7.6431,7.6394,7.614,7.5537,7.4755,7.4428,7.3967,7.332,7.2763,7.1909,7.0907,7.0611,6.9889,6.8744,6.8838,7.0753,7.4661,7.5699,7.8377,8.2759,8.3401,8.3593,8.3599,8.4356,8.3716,8.1572,8.1312,8.0566,7.9079,7.668,7.3926,7.0772,6.6741,0.0,0.0,0.0,0.0,0.0,0.0,0.0,0.0,0.0,5.4049,5.3561,0.0,5.4538,0.0,5.8252,5.9826,5.9789,5.9227,0.0,0.0,5.7322,5.7359,5.7808,5.9375,6.0115,5.9398,6.0759,6.196,6.2554,6.3052,6.4227,6.6425,6.5084,6.4242,6.5426,6.6565,6.7794,6.8762,6.9521,6.9929,6.9892,7.0114,7.0226,7.0124,7.0457,7.0206,6.9178,6.8984,6.8767,6.8031,6.7794,6.7687,6.7724,6.7504,6.71,6.6182,6.6109,6.6182,6.5962,6.6256,6.6439,7.7441,7.7033,7.6584,7.5395,7.3781,7.341,7.3415,7.3703,7.3826,7.4009,7.4197,7.3912,7.3641,7.329,7.2708,7.2929,7.38,7.4864,7.5605,7.6187,7.7201,7.7666,7.7666,7.7326,7.6536,7.5366,7.5224,7.4763,7.3967,7.393,7.3684,7.3178,7.328,7.2608,7.106,6.9595,7.0453,7.3641,7.5771,7.9018,8.3401,8.3593,8.3247,8.2413,8.3013,8.207,7.9438,7.8963,7.8195,7.6949,7.5084,7.2771,6.9905,6.6852,6.4055,0.0,0.0,0.0,0.0,0.0,0.0,0.0,0.0,0.0,0.0,0.0,5.6092,5.6866,5.9449,6.0766,5.9893,5.9566,5.927,5.9042,5.9042,5.9449,6.0604,6.1916,6.2599,6.2064,6.3617,6.4748,6.486,6.5583,6.6605,6.8122,6.727,6.6889,6.7972,6.8734,6.9696,7.1023,7.1477,7.1628,7.1578,7.1578,7.1417,7.0968,7.1361,7.142,7.0169,7.0101,6.9995,6.9151,6.8914,6.886,6.8752,6.8788,6.8495,6.7834,6.763,6.739,6.6765,6.6822,6.7026,7.8108,7.7385,7.733,7.6847,7.6101,7.5314,7.5096,7.5172,7.456,7.4404,7.4498,7.426,7.44,7.477,7.4213,7.4399,7.5095,7.6169,7.676,7.7085,7.8398,7.9004,7.9116,7.8864,7.7834,7.6275,7.6148,7.5686,7.4837,7.48,7.5113,7.5701,7.5856,7.5184,7.3644,7.111,7.0758,7.2662,7.6376,7.9824,8.3016,8.2901,8.2023,8.0536,8.109,7.9922,7.6768,7.6196,7.5447,7.4402,7.2585,7.072,6.9039,6.6482,6.4398,0.0,6.0387,0.0,0.0,0.0,0.0,0.0,0.0,0.0,0.0,5.7365,5.7734,5.8659,6.0246,6.0624,5.9227,5.8572,5.8762,6.0135,6.0351,6.1322,6.3527,6.4584,6.5195,6.5307,6.671,6.7352,6.6866,6.807,6.8975,6.9215,6.9776,7.0316,7.0831,7.1224,7.1883,7.2958,7.2875,7.2683,7.2584,7.2534,7.2261,7.164,7.2266,7.2659,7.1139,7.1279,7.1394,7.0548,7.0236,7.0165,7.0165,7.0036,6.9853,6.9173,6.9081,6.871,6.7384,6.7332,6.7794,7.9372,7.9019,7.8462,7.8108,7.7936,7.7228,7.6717,7.629,7.6139,7.6112,7.6112,7.6043,7.5546,7.4858,7.491,7.4672,7.4271,7.5333,7.6233,7.7047,7.789,7.8623,7.9225,7.9016,7.834,7.7391,7.7148,7.6632,7.5723,7.5723,7.5128,7.4062,7.4176,7.3549,7.217,0.0,0.0,0.0,7.6748,7.8875,8.0369,7.9069,7.8223,7.7985,7.7873,0.0,7.6755,7.5586,7.5183,7.5469,7.3504,0.0,0.0,0.0,0.0,0.0,0.0,0.0,0.0,0.0,0.0,0.0,6.0692,5.961,5.8326,5.8178,5.885,6.0344,6.0958,6.1639,6.2687,6.2693,6.2693,6.3028,6.3535,6.4039,6.4568,6.5403,6.6238,6.6984,6.7464,6.7972,6.8384,6.8922,6.9378,7.0098,7.0923,7.1719,7.2454,7.259,7.2996,7.3801,7.3719,7.3553,7.3541,7.3454,7.3317,7.3155,7.3164,7.3038,7.2206,7.1917,7.168,7.0835,7.0454,7.033,7.0312,7.0184,7.0202,7.0054,7.0072,6.9593,6.801,6.7893,6.8188,8.0247,0.0,7.9242,7.8851,0.0,7.8266,7.8134,7.7918,7.7128,7.6789,7.6789,7.659,7.6394,7.6205,7.5944,7.5855,7.6,7.6639,7.7281,7.7917,7.8617,7.9139,7.9554,7.9273,7.8752,7.7816,7.7615,7.7237,7.6774,7.6737,7.6565,7.6205,7.6256,7.6091,7.5592,7.591,7.597,7.5633,7.7352,7.9325,8.1547,8.0823,8.0138,7.9785,7.9133,0.0,0.0,0.0,0.0,0.0,0.0,0.0,0.0,7.0264,0.0,6.8272,6.5975,6.4688,6.4698,6.4002,6.3705,6.4113,6.3498,6.2122,5.9993,6.063,6.149,6.2352,6.2556,6.2971,6.3755,6.391,6.4059,6.4338,6.4704,6.5134,6.5905,6.6528,6.7075,6.7485,6.8122,6.8553,6.8516,6.8972,6.9541,7.0367,7.1282,7.2203,7.3081,7.3477,7.3883,7.4267,7.4206,7.4056,7.395,7.4188,7.4262,7.4211,7.4406,7.419,7.3484,7.332,7.2971,7.2124,7.1833,7.1726,7.1618,7.1508,7.1305,7.1047,7.0991,7.0676,6.9547,6.9252,6.9362,8.1121,8.0169,7.9911,7.9352,7.8767,7.8876,7.916,7.9403,0.0,0.0,0.0,7.7137,7.7291,7.7642,7.7055,7.7164,7.7805,7.7983,7.8365,7.8856,7.9377,7.967,7.9827,7.9645,7.9076,7.8199,7.8053,7.7904,7.7751,7.7751,7.8139,7.884,7.8966,7.9214,7.96,8.0116,7.9436,7.7735,7.807,7.9806,8.2678,8.2463,8.2009,8.1462,8.0613,7.9182,7.7131,7.6008,7.5013,7.4082,7.3627,7.3007,7.2013,7.1144,7.0227,6.9261,6.8,6.7072,6.676,6.6091,6.5794,6.6138,6.5642,6.4345,6.2146,6.3313,6.4065,6.3915,6.415,6.4229,6.3995,6.4192,6.4524,6.4979,6.527,6.5969,6.7141,6.7663,6.7838,6.7958,6.8809,6.9203,6.8677,6.9278,6.9954,7.0862,7.1745,7.2604,7.3481,7.4153,7.4513,7.474,7.4764,7.459,7.4591,7.4934,7.5197,7.5082,7.55,7.558,7.5007,7.4821,7.4508,7.3808,7.3532,7.333,7.3222,7.2927,7.2614,7.2059,7.1965,7.1833,7.1309,7.1072,7.1035,8.2586,8.188,8.045,7.9817,7.9679,7.9241,7.9403,7.987,7.9642,7.9393,7.916,7.9114,7.8586,7.7679,7.7716,7.7437,7.6977,7.7115,7.7803,7.8861,7.8808,7.9225,7.9999,7.9827,7.9607,7.9303,7.9123,7.8928,7.8728,7.8677,7.8803,7.8878,7.9165,7.9509,7.9996,8.0315,8.0425,8.0317,7.9051,7.8646,7.9288,7.7901,7.7467,7.8139,7.8036,7.7985,7.8223,7.7678,7.7225,7.6875,7.572,7.5239,7.5645,7.4748,7.3865,7.2931,7.2633,7.1541,6.936,6.91,6.8267,6.6553,6.635,6.587,6.4775,6.4887,6.47,6.4065,6.4753,6.4907,6.4229,6.4795,6.5202,6.5298,6.6358,6.7282,6.7496,6.8194,6.8705,6.8833,6.9678,7.0292,7.0179,7.078,7.1494,7.2365,7.2849,7.3515,7.4442,7.4781,7.5115,7.5641,7.5614,7.5735,7.6056,7.629,7.6244,7.6056,7.6051,7.6096,7.5729,7.5639,7.5527,7.5416,7.4714,7.4273,7.4107,7.348,7.3074,7.2923,7.2886,7.2865,7.28,7.28,7.26,8.3565,8.2623,8.1699,8.0842,8.0009,7.9526,7.9607,7.9992,8.0075,7.995,7.9734,7.9592,7.918,7.8699,7.8602,7.8462,7.8238,7.8322,7.8831,7.9627,7.9586,7.9816,8.0277,8.0157,7.9954,7.9778,7.9645,7.9462,7.9263,7.9214,7.9165,7.9066,7.9359,7.9778,8.0277,8.043,8.0723,8.0991,8.0222,8.0123,8.0733,8.0,8.0288,8.1617,8.109,8.1116,8.1862,8.1071,8.0545,8.0345,7.9084,7.8408,7.8504,7.723,7.5981,7.4956,7.4062,7.2671,7.0475,6.9546,6.8677,6.783,6.7359,6.7074,6.6743,6.5881,6.5394,6.5432,6.5928,6.6045,6.5591,6.5933,6.6261,6.6587,6.7285,6.7838,6.824,6.8622,6.9125,6.9627,7.0166,7.0668,7.1081,7.1456,7.2019,7.2861,7.3657,7.448,7.5171,7.559,7.5892,7.6152,7.636,7.6519,7.6881,7.7051,7.708,7.7017,7.7237,7.7117,7.675,7.6547,7.6307,7.5899,7.5399,7.4974,7.464,7.4125,7.3717,7.3289,7.3252,7.3252,7.332,7.3372,7.3172,8.4306,8.3336,8.2874,8.1736,8.0203,7.9746,7.9734,8.0034,8.0195,8.0195,8.0116,7.9778,7.9592,7.95,7.9273,7.9359,7.9546,7.9592,7.9908,8.0354,8.0354,8.043,8.0543,8.043,8.0276,8.0034,7.995,7.9778,7.9592,7.9554,7.9462,7.9321,7.9638,8.0034,8.0467,8.0576,8.0826,8.1093,8.1085,8.1484,8.2294,8.2516,8.3382,8.4762,8.4339,8.4373,8.5043,8.4237,8.3563,8.3285,8.2147,8.1207,8.0643,7.9179,7.7666,7.6178,7.4896,7.3192,7.1069,6.9446,6.8575,6.8576,6.807,6.7747,6.7846,6.6879,6.6278,6.6767,6.6954,6.7071,6.6804,6.6992,6.7326,6.7803,6.8022,6.8466,6.9087,6.9282,6.9627,7.0503,7.0893,7.1388,7.1921,7.2222,7.2805,7.3581,7.4591,7.5361,7.5583,7.6384,7.7036,7.6883,7.7135,7.7565,7.7545,7.7786,7.7954,7.7979,7.8223,7.8102,7.7713,7.7456,7.7162,7.6604,7.6233,7.5787,7.5081,7.462,7.4158,7.3595,7.3305,7.3305,7.341,7.3372,7.332,8.4877,8.4344,8.3388,8.2031,8.0493,7.9978,7.9908,8.0195,8.0314,8.0431,8.0505,8.0275,7.9903,7.9546,7.9592,7.9638,7.9683,7.9903,8.0197,8.0542,8.0578,8.065,8.0758,8.0614,8.043,8.0235,8.0195,8.0034,7.9822,7.9778,7.9822,7.9908,8.0072,8.0276,8.0578,8.0685,8.086,8.1093,8.1244,8.1301,8.1446,8.2316,8.3218,8.4173,8.4705,8.5351,8.6122,8.58,8.5399,8.5006,8.3829,8.2746,8.1732,8.0668,7.9029,7.6668,7.6106,7.4573,7.1268,6.9629,6.8539,6.7838,6.7904,6.7996,6.8039,6.806,6.7645,6.7263,6.7683,6.7799,6.704,6.7642,6.8094,6.8203,6.8683,6.9391,7.0023,7.0196,7.0579,7.1626,7.2266,7.2912,7.3156,7.3732,7.443,7.4825,7.5589,7.6084,7.6,7.7487,7.8521,7.8065,7.8093,7.8592,7.9071,7.9133,7.8891,7.8779,7.87,7.8544,7.8325,7.8163,7.809,7.7645,7.7347,7.6679,7.575,7.5118,7.4375,7.3632,7.3372,7.3372,7.3372,7.3372,7.332,8.5123,8.48,8.4193,8.2971,8.1434,8.0346,8.0075,8.0314,8.043,8.0543,8.0578,8.0505,8.0276,7.9992,7.9822,7.9822,7.995,7.9996,8.0315,8.0685,8.0723,8.0792,8.086,8.0792,8.0614,8.043,8.0431,8.0275,8.0034,7.9908,7.9908,8.0113,8.0197,8.0392,8.0685,8.0788,8.0926,8.1093,8.1205,8.1291,8.1407,8.2277,8.3206,8.4057,8.4734,8.5497,8.6277,8.6099,8.5815,8.5474,8.4386,8.3247,8.2132,8.1102,7.9365,7.674,7.4424,7.2671,7.1242,6.9639,6.8688,6.8451,6.8503,6.8672,6.8843,6.9051,6.8941,6.8671,6.89,6.89,6.8555,6.8819,6.9008,6.908,6.96,7.0154,7.0455,7.0893,7.1531,7.2498,7.3,7.3501,7.4002,7.4547,7.5167,7.5742,7.6313,7.6616,7.6955,7.8328,7.8978,7.8941,7.9129,7.9453,7.974,7.9546,7.9263,7.9066,7.8864,7.8655,7.8602,7.8441,7.8276,7.8276,7.7979,7.7199,7.5973,7.5564,7.497,7.3967,7.3372,7.3372,7.3372,7.3372,7.3357,8.532,8.5011,8.441,8.3354,8.2096,8.0676,8.0195,8.0392,8.0506,8.0578,8.065,8.0614,8.0542,8.0392,8.0116,8.0037,8.0159,8.0238,8.043,8.0826,8.086,8.0893,8.0926,8.086,8.0792,8.065,8.0578,8.0506,8.0354,8.0197,8.0197,8.0354,8.0392,8.0578,8.0826,8.0893,8.0991,8.1124,8.1273,8.1407,8.1771,8.2651,8.3476,8.4134,8.5004,8.5767,8.6345,8.6165,8.5887,8.5705,8.482,8.3806,8.2664,8.1632,7.9736,7.6761,7.3474,7.16,7.1648,7.0069,6.922,6.9327,6.9222,6.9203,6.9457,6.9739,6.9967,7.0118,7.0195,7.0195,7.0037,6.9997,7.0113,7.034,7.0866,7.1161,7.1459,7.1901,7.2536,7.342,7.3775,7.401,7.4743,7.5207,7.578,7.6313,7.6998,7.7377,7.8024,7.8863,7.9589,7.936,7.9858,8.0081,7.9865,7.96,7.9406,7.9165,7.8915,7.876,7.8708,7.8549,7.8332,7.8386,7.8332,7.7868,7.6642,7.6047,7.5304,7.4004,7.3447,7.3484,7.3372,7.3372,7.3305,8.5435,8.5128,8.3513,8.2707,8.2373,8.0963,8.0392,8.043,8.0542,8.065,8.0758,8.065,8.065,8.0723,8.0468,8.0354,8.0354,8.0505,8.0685,8.0888,8.1029,8.0991,8.0926,8.0926,8.086,8.0792,8.0758,8.0758,8.0723,8.0723,8.0758,8.0758,8.0758,8.0826,8.0893,8.0926,8.1023,8.1184,8.1311,8.1705,8.2598,8.3528,8.4057,8.4289,8.5545,8.6307,8.6354,8.623,8.5958,8.5743,8.5474,8.4812,8.3588,8.249,8.0217,7.6883,7.4197,7.267,7.2331,7.107,7.0271,7.0255,6.9778,6.9495,6.9812,7.0042,7.0456,7.1142,7.1398,7.1398,7.1219,7.1104,7.137,7.2092,7.232,7.2699,7.33,7.3216,7.3787,7.4472,7.4781,7.5015,7.5284,7.6007,7.6502,7.7071,7.8137,7.8901,7.8557,7.9513,7.9933,7.9742,7.9934,8.0315,7.9908,7.969,7.9416,7.9214,7.9016,7.8864,7.8812,7.8708,7.8602,7.8441,7.8332,7.7905,7.7125,7.6233,7.523,7.4338,7.3855,7.3744,7.4004,7.3558,7.3416,8.5473,8.5244,8.3561,8.2834,8.2565,8.1118,8.0468,8.0468,8.0614,8.0758,8.0792,8.0758,8.0758,8.0792,8.0616,8.0542,8.0614,8.0788,8.0953,8.1085,8.1154,8.1116,8.1085,8.0991,8.0888,8.086,8.0826,8.0792,8.0792,8.0792,8.0792,8.0792,8.086,8.0855,8.0926,8.0991,8.1054,8.1253,8.1803,8.2323,8.2791,8.4108,8.4869,8.4908,8.591,8.6443,8.6384,8.6223,8.6094,8.5926,8.5704,8.486,8.3088,8.051,7.8421,7.6844,7.4365,7.2921,7.2762,7.177,7.1141,7.1282,7.0696,7.0413,7.065,7.0872,7.1201,7.1613,7.2286,7.2635,7.2949,7.2581,7.2243,7.2585,7.3042,7.3421,7.3723,7.4061,7.4475,7.4937,7.5512,7.6046,7.631,7.6957,7.7719,7.829,7.8901,7.9283,7.9665,8.02,8.0353,8.02,8.0277,8.0392,7.9992,7.9822,7.96,7.9273,7.9066,7.8966,7.8864,7.8708,7.8549,7.8495,7.8386,7.7942,7.7199,7.6493,7.5453,7.5156,7.471,7.4561,7.4933,7.445,7.4121,8.5511,8.5244,8.3945,8.3371,8.3179,8.1576,8.0926,8.0925,8.0876,8.0792,8.0792,8.0826,8.0826,8.0826,8.072,8.0754,8.086,8.0953,8.1047,8.1176,8.1214,8.1214,8.1184,8.1023,8.0959,8.0959,8.0893,8.0893,8.0893,8.0893,8.0932,8.0932,8.0926,8.0959,8.0991,8.1054,8.1184,8.1398,8.2179,8.2764,8.3243,8.4533,8.5449,8.5759,8.6246,8.65,8.6414,8.6285,8.6159,8.6026,8.589,8.4939,8.2874,7.9695,7.7623,7.6954,7.4853,7.3521,7.3446,7.2635,7.2184,7.2364,7.1773,7.1443,7.1747,7.1925,7.221,7.2652,7.3176,7.3935,7.4407,7.4121,7.3639,7.3644,7.4066,7.4334,7.4296,7.4676,7.5094,7.5551,7.6122,7.669,7.7182,7.7908,7.8557,7.9245,7.9474,7.9933,8.0353,8.0506,8.0506,8.0506,8.0468,8.0392,8.0116,7.9908,7.9645,7.9321,7.9165,7.9016,7.8915,7.8708,7.8549,7.8549,7.8292,7.7848,7.731,7.6642,7.6233,7.5973,7.5601,7.5304,7.5378,7.5267,7.4846,8.5626,8.5397,8.4631,8.4211,8.3945,8.2378,8.1767,8.1613,8.1068,8.0792,8.0792,8.0932,8.1003,8.0926,8.097,8.0965,8.0888,8.0984,8.1154,8.133,8.1359,8.1398,8.1445,8.1393,8.1285,8.1208,8.1131,8.1093,8.1061,8.1061,8.1061,8.1093,8.1061,8.1061,8.1093,8.1154,8.1244,8.1484,8.2196,8.3089,8.4057,8.4869,8.572,8.6494,8.6687,8.6672,8.6577,8.6354,8.6153,8.6094,8.6031,8.501,8.299,8.0316,7.8482,7.7328,7.5766,7.4809,7.4412,7.3727,7.3359,7.3411,7.2886,7.2586,7.2876,7.3046,7.3405,7.4044,7.4528,7.4981,7.5571,7.5731,7.5518,7.5459,7.5386,7.5427,7.5394,7.5358,7.5663,7.6425,7.6842,7.7144,7.7908,7.8785,7.9358,7.9549,7.997,8.039,8.0543,8.0621,8.0582,8.0506,8.0659,8.0736,8.0349,7.995,7.969,7.9406,7.9214,7.9066,7.9016,7.8864,7.8655,7.8602,7.8441,7.8034,7.7756,7.7125,7.6902,7.6604,7.627,7.6196,7.6233,7.6159,7.5493,8.5626,8.5397,8.4631,8.4288,8.4098,8.2493,8.1805,8.1728,8.1106,8.0831,8.0941,8.1508,8.1464,8.1157,8.1502,8.1464,8.0926,8.1116,8.1543,8.2073,8.2207,8.2449,8.2854,8.2909,8.254,8.1932,8.1385,8.1154,8.1131,8.1131,8.1093,8.1093,8.1131,8.1093,8.1131,8.1184,8.1244,8.1407,8.2223,8.3154,8.4095,8.4869,8.5991,8.7306,8.7499,8.7472,8.7406,8.6752,8.6323,8.6191,8.606,8.5123,8.3025,8.0047,7.8179,7.757,7.6046,7.4977,7.4774,7.4506,7.432,7.4366,7.3878,7.3682,7.3849,7.4089,7.4328,7.4811,7.5686,7.657,7.684,7.7278,7.6952,7.5781,7.6164,7.648,7.6488,7.6838,7.726,7.7566,7.8137,7.8596,7.8976,7.9662,8.0119,8.0157,8.0463,8.0616,8.0656,8.1116,8.1041,8.0659,8.0926,8.1003,8.0466,8.0113,7.9822,7.9509,7.9311,7.9116,7.9066,7.8915,7.876,7.8602,7.8441,7.8257,7.7997,7.7756,7.7496,7.7533,7.7459,7.7422,7.7422,7.6995,7.6384,8.5666,8.5435,8.4937,8.4785,8.4634,8.3066,8.2339,8.2223,8.1636,8.1321,8.1512,8.2342,8.2259,8.165,8.2029,8.176,8.1061,8.1205,8.1782,8.2543,8.2648,8.3112,8.3673,8.3461,8.2824,8.21,8.1822,8.1677,8.1616,8.1955,8.2109,8.2078,8.1809,8.1685,8.1608,8.1398,8.1291,8.1501,8.2598,8.3489,8.4211,8.5217,8.6455,8.7654,8.7886,8.8079,8.8312,8.7698,8.7001,8.6293,8.5588,8.4498,8.317,8.0417,7.8397,7.7717,7.6615,7.5589,7.5132,7.5018,7.5056,7.5057,7.4824,7.4694,7.49,7.525,7.5541,7.5831,7.6899,7.7746,7.7823,7.8139,7.7847,7.6901,7.7182,7.7456,7.7471,7.782,7.8244,7.8512,7.8971,7.9468,7.9925,8.0231,8.0685,8.0688,8.0956,8.1073,8.1228,8.1804,8.1537,8.1308,8.1385,8.1118,8.0506,8.0195,7.9988,7.969,7.9406,7.9214,7.9116,7.8966,7.8812,7.8655,7.8441,7.8386,7.8146,7.8128,7.8016,7.8276,7.8276,7.8128,7.7868,7.7793,7.7292,8.5704,8.5551,8.5511,8.5552,8.5437,8.3906,8.3328,8.3246,8.2583,8.2271,8.2496,8.3253,8.3208,8.2516,8.2477,8.2086,8.1407,8.1456,8.1926,8.2598,8.2973,8.3448,8.3923,8.3326,8.2603,8.1957,8.2256,8.2497,8.2486,8.3162,8.3731,8.3325,8.2699,8.2487,8.2179,8.1694,8.1451,8.1825,8.3115,8.3902,8.4276,8.5565,8.7023,8.7952,8.8079,8.8428,8.9085,8.877,8.7949,8.6538,8.492,8.3907,8.3149,8.1113,7.9325,7.8352,7.7471,7.6568,7.5773,7.5773,7.5806,7.5883,7.5914,7.5819,7.6171,7.6663,7.707,7.7246,7.8054,7.8554,7.8554,7.8784,7.8746,7.8639,7.8507,7.8448,7.8453,7.853,7.8918,7.945,7.9604,7.9834,8.0566,8.0754,8.0831,8.1061,8.1489,8.1757,8.2105,8.2413,8.2454,8.2225,8.1805,8.127,8.0621,8.0353,8.0113,7.9898,7.966,7.9585,7.9241,7.9003,7.8812,7.8655,7.8549,7.8441,7.8386,7.8332,7.8332,7.8276,7.8276,7.8276,7.8239,7.809,7.7979,8.5856,8.5704,8.5705,8.5743,8.5664,8.4665,8.4243,8.4164,8.3466,8.3187,8.338,8.4138,8.4093,8.3285,8.331,8.2879,8.2284,8.2245,8.2416,8.2869,8.4082,8.4623,8.4646,8.3961,8.3431,8.3094,8.2891,8.293,8.3384,8.3799,8.3606,8.2921,8.2912,8.2333,8.1677,8.1644,8.1787,8.2316,8.2832,8.3889,8.4984,8.5487,8.679,8.8752,8.8881,8.9281,8.9901,8.8826,8.791,8.721,8.5568,8.4273,8.3555,8.1792,8.0338,7.9358,7.8519,7.784,7.7475,7.7394,7.7433,7.7437,7.7385,7.7707,7.7738,7.7954,7.8139,7.8323,7.8938,7.9438,7.9554,7.9977,8.0285,8.0323,7.9729,7.955,7.9972,8.0174,8.0256,8.0409,8.0409,8.0562,8.0711,8.0937,8.1162,8.1661,8.2088,8.2438,8.2901,8.3058,8.3064,8.23,8.1802,8.1269,8.0812,8.0507,8.0273,8.0102,8.003,8.0132,7.959,7.9091,7.8901,7.8708,7.8602,7.8549,7.8441,7.8386,7.8332,7.8332,7.8276,7.8276,7.8276,7.8202,7.8202,8.5923,8.5808,8.5777,8.5854,8.5772,8.4963,8.4656,8.4652,8.4335,8.4132,8.4324,8.512,8.5036,8.4296,8.4288,8.3817,8.3143,8.315,8.3243,8.3502,8.4649,8.5191,8.5087,8.4634,8.4325,8.395,8.3861,8.4028,8.4425,8.4772,8.4656,8.4358,8.3884,8.3459,8.3178,8.2663,8.2767,8.327,8.3644,8.4546,8.5822,8.6325,8.7691,8.9382,8.9798,9.0159,9.0687,8.9638,8.8586,8.7503,8.6015,8.4789,8.4219,8.2986,8.1655,8.0477,7.9823,7.923,7.841,7.8327,7.8327,7.8256,7.8391,7.8384,7.8492,7.8784,7.9075,7.9191,7.9922,8.0307,8.0469,8.0854,8.1054,8.0939,8.06,8.0491,8.0953,8.0849,8.0926,8.0893,8.0893,8.0893,8.0932,8.1228,8.165,8.2221,8.2924,8.3423,8.385,8.3815,8.3515,8.2754,8.2181,8.1764,8.1536,8.1232,8.1113,8.0866,8.0863,8.0849,8.0279,7.9579,7.9266,7.9074,7.882,7.8655,7.8549,7.8441,7.8386,7.8332,7.8332,7.8276,7.8276,7.8276,7.8276,8.594,8.5824,8.5824,8.5945,8.5877,8.5181,8.4983,8.5016,8.5081,8.5105,8.526,8.6007,8.5853,8.5227,8.5034,8.4705,8.4028,8.4055,8.4236,8.4559,8.5088,8.5398,8.5565,8.5294,8.4843,8.4456,8.4985,8.5229,8.5407,8.6119,8.6324,8.5794,8.5345,8.5178,8.4521,8.4211,8.4173,8.4289,8.4714,8.5617,8.6674,8.7435,8.8646,9.0128,9.0636,9.0908,9.1202,9.0671,8.9599,8.8035,8.6288,8.5458,8.5111,8.4262,8.3191,8.1899,8.1445,8.0731,7.93,7.9254,7.8946,7.8961,7.8915,7.8784,7.9122,7.9653,8.002,8.002,8.0752,8.1022,8.1069,8.1116,8.1124,8.1131,8.1093,8.1246,8.1208,8.117,8.1093,8.1093,8.1093,8.1093,8.1285,8.1747,8.2324,8.2676,8.3374,8.3874,8.3956,8.373,8.3546,8.3281,8.2789,8.2373,8.2185,8.2071,8.1992,8.1892,8.1914,8.1818,8.1207,8.0567,7.9954,7.9603,7.9425,7.9007,7.8602,7.8495,7.8441,7.8332,7.8276,7.8276,7.8276,7.8276,7.8276,8.6055,8.6055,8.6055,8.6055,8.6022,8.5868,8.5824,8.5824,8.5883,8.5907,8.6023,8.6277,8.6268,8.6037,8.5516,8.5071,8.4982,8.5036,8.5398,8.6068,8.5599,8.5885,8.6068,8.5707,8.5256,8.5101,8.5217,8.5643,8.6196,8.6351,8.6261,8.5655,8.5604,8.5011,8.4494,8.4508,8.4469,8.5023,8.532,8.63,8.7536,8.8064,8.9042,9.0647,9.1253,9.158,9.1473,9.0865,8.9936,8.8903,8.7803,8.6588,8.5449,8.4956,8.4301,8.3461,8.3094,8.264,8.1732,8.1316,8.117,8.0592,8.0516,8.0546,8.0607,8.0752,8.0935,8.1003,8.1186,8.135,8.1407,8.1253,8.1308,8.1431,8.1747,8.2054,8.1939,8.1554,8.1285,8.1208,8.117,8.1131,8.117,8.1939,8.2554,8.3131,8.367,8.4138,8.4022,8.3759,8.3533,8.3389,8.3246,8.2868,8.2758,8.276,8.2907,8.2922,8.2897,8.2786,8.2222,8.167,8.1093,8.0516,8.0015,7.9486,7.8858,7.8549,7.8495,7.8386,7.8276,7.8276,7.8276,7.8276,7.8276,8.6094,8.6094,8.6094,8.6126,8.6159,8.6153,8.6184,8.6223,8.6315,8.6345,8.6345,8.6472,8.65,8.6461,8.6064,8.586,8.5913,8.599,8.6248,8.6568,8.6281,8.6335,8.6519,8.6261,8.5939,8.5913,8.5913,8.6223,8.6494,8.6571,8.6377,8.5952,8.5939,8.5874,8.5396,8.5357,8.5628,8.6015,8.6416,8.7293,8.8476,8.9096,8.9841,9.1074,9.1703,9.1876,9.1694,9.1345,9.0621,8.9782,8.8892,8.7666,8.6152,8.5766,8.5352,8.4628,8.4407,8.3963,8.3278,8.2986,8.2733,8.2348,8.2309,8.234,8.2284,8.2121,8.1908,8.1964,8.2003,8.2052,8.2352,8.2409,8.234,8.2386,8.2663,8.2901,8.2824,8.2516,8.2285,8.217,8.1977,8.2054,8.2285,8.2631,8.3208,8.3978,8.4093,8.4516,8.4401,8.4061,8.3599,8.3456,8.3508,8.3403,8.3292,8.341,8.3783,8.3872,8.3937,8.3801,8.3452,8.2861,8.227,8.1356,8.0329,7.9716,7.9074,7.8858,7.8549,7.8441,7.8386,7.8332,7.8276,7.8276,7.8276,8.6094,8.6126,8.6132,8.6197,8.6215,8.623,8.6268,8.6384,8.6472,8.6472,8.65,8.6583,8.6583,8.6571,8.6571,8.6597,8.6674,8.6708,8.677,8.6793,8.6777,8.6693,8.6747,8.6645,8.6596,8.6636,8.6494,8.6571,8.661,8.661,8.6571,8.6571,8.6842,8.679,8.6892,8.711,8.7212,8.7318,8.7783,8.8505,8.9406,9.0128,9.0928,9.1688,9.1897,9.1927,9.1812,9.167,9.1321,9.0455,8.963,8.843,8.7255,8.6571,8.6312,8.5446,8.538,8.4927,8.4214,8.3933,8.3864,8.3787,8.3672,8.3633,8.35,8.3172,8.2919,8.2934,8.2973,8.31,8.3712,8.3538,8.3556,8.3641,8.3657,8.3817,8.3824,8.3862,8.3901,8.3324,8.2862,8.2747,8.317,8.3555,8.4209,8.467,8.4709,8.467,8.4478,8.417,8.3555,8.3676,8.3807,8.4246,8.4249,8.4098,8.4469,8.4448,8.4673,8.4438,8.423,8.374,8.2936,8.1482,8.0492,7.9954,7.9365,7.8925,7.8655,7.8549,7.8441,7.8386,7.8332,7.8276,7.8276,8.6268,8.6323,8.6351,8.6345,8.6384,8.6346,8.6423,8.6414,8.6549,8.65,8.6605,8.6621,8.6778,8.6739,8.6636,8.6662,8.6853,8.6987,8.7032,8.7054,8.7036,8.692,8.701,8.6854,8.6809,8.6713,8.6701,8.6752,8.661,8.661,8.6791,8.6829,8.7423,8.7808,8.8026,8.8476,8.8655,8.8592,8.8917,8.9523,9.0167,9.0679,9.1168,9.1944,9.196,9.1936,9.1927,9.1824,9.1475,9.0584,8.9681,8.8765,8.7926,8.7178,8.6648,8.6312,8.618,8.5766,8.512,8.4908,8.4493,8.403,8.3953,8.3944,8.3933,8.3796,8.3784,8.3837,8.3837,8.3888,8.3873,8.4088,8.3876,8.3972,8.4373,8.4696,8.4818,8.5016,8.4939,8.4132,8.367,8.3516,8.3978,8.4286,8.4478,8.4478,8.417,8.4132,8.4016,8.3632,8.3093,8.3522,8.4148,8.4778,8.5283,8.5091,8.5117,8.4915,8.4886,8.4656,8.4454,8.4293,8.3476,8.2109,8.1106,8.0567,7.9903,7.9177,7.876,7.8602,7.8495,7.8441,7.8332,7.8276,7.8276,8.6354,8.6423,8.6375,8.6684,8.7012,8.6633,8.6981,8.7726,8.7434,8.7538,8.7847,8.7978,8.8004,8.7888,8.7526,8.742,8.7452,8.7597,8.7873,8.8049,8.7466,8.7272,8.7403,8.717,8.6893,8.6902,8.7125,8.7075,8.6739,8.7216,8.7332,8.7628,8.8297,8.8732,8.8794,8.9111,8.9399,8.9476,8.9803,9.0229,9.0695,9.1113,9.1717,9.1911,9.2044,9.196,9.1936,9.1975,9.1757,9.119,9.0453,8.9833,8.9203,8.8455,8.7526,8.6842,8.6621,8.644,8.6014,8.5882,8.5593,8.5323,8.513,8.5197,8.5109,8.4944,8.4688,8.4714,8.4753,8.4908,8.528,8.5214,8.5236,8.5217,8.5437,8.5529,8.562,8.5934,8.544,8.4786,8.4516,8.4516,8.4824,8.4978,8.4863,8.4439,8.3824,8.3632,8.3593,8.3362,8.3054,8.383,8.4571,8.5084,8.5627,8.5552,8.5429,8.5304,8.5094,8.4833,8.4599,8.4443,8.3803,8.2686,8.1908,8.1168,8.0216,7.9416,7.9037,7.8655,7.8549,7.8495,7.8386,7.8276,7.8276,8.6935,8.6958,8.6958,8.7395,8.7881,8.7356,8.7847,8.888,8.8507,8.8546,8.9178,8.9241,8.9203,8.9023,8.8491,8.8157,8.8201,8.8243,8.8652,8.9002,8.8264,8.7932,8.8106,8.789,8.7536,8.7724,8.8057,8.7894,8.742,8.7909,8.8282,8.8554,8.9182,8.9654,8.9693,9.0086,8.9931,9.0181,9.0569,9.0957,9.119,9.1816,9.2226,9.2187,9.2183,9.2277,9.2044,9.2005,9.2022,9.1688,9.1145,9.0602,9.0453,8.9745,8.8623,8.741,8.6996,8.688,8.6815,8.6517,8.6335,8.6219,8.6412,8.6489,8.6335,8.5848,8.5565,8.5565,8.5604,8.5759,8.6196,8.644,8.6451,8.6356,8.6191,8.6215,8.6107,8.612,8.6088,8.5632,8.5401,8.5209,8.5209,8.5363,8.5209,8.4324,8.3708,8.3593,8.3555,8.3593,8.3593,8.4368,8.5032,8.5468,8.5704,8.5628,8.5511,8.5429,8.5262,8.5051,8.4825,8.4589,8.3877,8.3276,8.2472,8.1693,8.068,7.9742,7.914,7.876,7.8655,7.8549,7.8441,7.8332,7.8276,8.8741,8.8853,8.8841,8.8958,8.9008,8.8826,8.8942,8.9228,8.9191,8.9114,8.9501,8.9382,8.9469,8.9244,8.8706,8.8339,8.83,8.8437,8.8963,8.9623,8.9235,8.9041,8.9351,8.9313,8.8882,8.8839,8.9154,8.88,8.8422,8.8887,8.9159,8.9353,9.002,9.0547,9.0608,9.1078,9.1717,9.1695,9.1795,9.1877,9.1993,9.2656,9.2617,9.2558,9.2692,9.2904,9.2438,9.2321,9.2205,9.2066,9.1268,9.0757,9.0477,8.9794,8.9333,8.8752,8.8273,8.7731,8.7654,8.724,8.6892,8.6931,8.6815,8.6621,8.6621,8.6544,8.63,8.6455,8.6416,8.6377,8.6532,8.661,8.6556,8.6528,8.6472,8.6345,8.6285,8.6184,8.6159,8.6088,8.5742,8.5324,8.5093,8.5363,8.544,8.4439,8.367,8.3555,8.3632,8.3785,8.4247,8.5022,8.5301,8.5696,8.5779,8.5667,8.559,8.5471,8.5388,8.5262,8.5006,8.4779,8.4541,8.3903,8.3151,8.2297,8.132,8.0368,7.9442,7.8915,7.8812,7.8655,7.8495,7.8441,7.8332,9.0112,8.9201,8.9201,8.9499,8.9836,8.9436,8.9785,9.0495,9.0235,9.0337,9.07,9.0834,9.0375,8.9603,8.9546,8.9408,8.9059,8.8963,8.974,9.0361,9.0128,8.9818,9.0012,8.974,8.9486,8.9719,8.9913,9.0107,8.9831,8.987,9.0142,9.0297,9.0979,9.1484,9.1368,9.1855,9.2011,9.2011,9.2092,9.2171,9.2229,9.2521,9.2793,9.2851,9.3239,9.3413,9.3452,9.3003,9.2848,9.2692,9.1972,9.1462,9.1378,9.102,9.0753,9.0598,8.9809,8.9163,8.866,8.8234,8.8002,8.8002,8.7963,8.7925,8.7461,8.688,8.661,8.661,8.661,8.661,8.661,8.661,8.6583,8.6556,8.6528,8.6472,8.6345,8.6215,8.6153,8.6159,8.6049,8.5588,8.5049,8.4856,8.4939,8.4555,8.3862,8.3593,8.3939,8.4439,8.5016,8.5747,8.5873,8.5884,8.5815,8.5704,8.5628,8.5511,8.5469,8.5346,8.5224,8.5006,8.4779,8.441,8.3672,8.2869,8.198,8.093,7.9891,7.9329,7.8966,7.8864,7.8708,7.8441,7.8386,9.1152,8.9925,8.987,9.0273,9.0805,9.0158,9.0632,9.1718,9.1284,9.1362,9.1828,9.1954,9.1102,9.0072,9.0266,9.0266,8.9585,8.9761,9.0772,9.1199,9.1044,9.0752,9.0869,9.0519,9.0305,9.015,9.0868,9.1063,9.1102,9.116,9.114,9.1138,9.1664,9.2014,9.2092,9.2112,9.2112,9.2171,9.2482,9.2597,9.2675,9.3121,9.3453,9.3745,9.3979,9.427,9.4522,9.413,9.3741,9.3586,9.3197,9.2727,9.2371,9.2231,9.1888,9.1618,9.0908,9.0494,8.9886,8.9433,8.9306,8.9151,8.8919,8.83,8.7847,8.7151,8.661,8.661,8.661,8.661,8.661,8.661,8.661,8.6583,8.6556,8.6528,8.6461,8.6375,8.6285,8.6254,8.6107,8.5697,8.512,8.4465,8.4279,8.4362,8.4093,8.3747,8.4209,8.4939,8.544,8.6094,8.606,8.5958,8.5887,8.5779,8.5667,8.5551,8.551,8.5388,8.5308,8.5181,8.5006,8.4575,8.4143,8.3634,8.2888,8.1613,8.0376,7.994,7.9504,7.9142,7.8915,7.8655,7.8495,9.1941,9.1812,9.1694,9.1682,9.1721,9.175,9.1795,9.2005,9.1972,9.1936,9.2054,9.2073,9.1309,9.0314,9.0492,9.0547,8.9869,9.0547,9.1365,9.1942,9.2152,9.1903,9.1887,9.1793,9.1798,9.1854,9.1897,9.1917,9.2091,9.2087,9.2073,9.2053,9.2152,9.2191,9.2307,9.2404,9.2501,9.2675,9.3138,9.345,9.3856,9.444,9.5141,9.4872,9.5301,9.5496,9.4796,9.4677,9.4617,9.4617,9.4285,9.372,9.3131,9.3054,9.2673,9.1915,9.1721,9.136,9.0997,9.0196,8.9422,8.9088,8.8726,8.843,8.8338,8.719,8.6687,8.6687,8.6726,8.661,8.661,8.661,8.661,8.661,8.6583,8.6556,8.6528,8.6461,8.6404,8.6384,8.62,8.5869,8.5613,8.5074,8.4433,8.4478,8.4939,8.467,8.4863,8.544,8.5747,8.6094,8.6094,8.6026,8.5996,8.5852,8.5742,8.5628,8.5511,8.5469,8.5388,8.5266,8.5181,8.5018,8.4664,8.4188,8.368,8.2528,8.149,8.067,8.0198,7.9989,7.9628,7.9316,7.9102,9.2166,9.2099,9.2131,9.2092,9.2022,9.2034,9.2074,9.2152,9.219,9.2243,9.2238,9.2245,9.1637,9.0897,9.0755,9.0911,9.0599,9.0804,9.1559,9.2026,9.2299,9.2299,9.2299,9.2299,9.223,9.2284,9.2293,9.2276,9.2269,9.283,9.3048,9.2938,9.2666,9.271,9.2809,9.3043,9.3255,9.3795,9.4123,9.4356,9.4505,9.4855,9.5424,9.5703,9.5763,9.6273,9.6254,9.5768,9.5592,9.5377,9.5006,9.4302,9.3597,9.3464,9.2852,9.2057,9.1927,9.1863,9.1825,9.1113,9.0776,9.0508,8.972,8.8945,8.9127,8.7823,8.7178,8.7062,8.6919,8.6726,8.661,8.661,8.661,8.661,8.661,8.6583,8.6556,8.6528,8.65,8.6472,8.6384,8.6169,8.5984,8.576,8.5158,8.4709,8.5209,8.5632,8.567,8.5747,8.5978,8.6094,8.6094,8.606,8.5992,8.5887,8.5779,8.5704,8.559,8.5511,8.5469,8.5431,8.5349,8.5266,8.5181,8.4872,8.429,8.3487,8.2633,8.1854,8.1339,8.0934,8.0537,8.0064,7.9913,9.2286,9.2268,9.2331,9.2269,9.2187,9.216,9.2215,9.2254,9.2308,9.2352,9.238,9.2366,9.191,9.1314,9.143,9.1298,9.1247,9.1403,9.1859,9.2183,9.2378,9.2366,9.2366,9.2354,9.2354,9.2393,9.2692,9.2756,9.2847,9.364,9.4147,9.4147,9.3653,9.3691,9.3788,9.3983,9.431,9.4793,9.5221,9.5299,9.5328,9.5665,9.5923,9.6476,9.6576,9.6754,9.6952,9.6663,9.6429,9.6214,9.5804,9.4885,9.4202,9.3558,9.3031,9.2363,9.1912,9.1951,9.1902,9.1812,9.1759,9.1399,9.0481,9.0094,8.9823,8.8635,8.8004,8.7707,8.7332,8.6919,8.6764,8.661,8.661,8.661,8.661,8.6583,8.6583,8.6556,8.6556,8.6528,8.6433,8.6404,8.6246,8.603,8.5735,8.5286,8.5555,8.5863,8.5901,8.594,8.6017,8.6094,8.6094,8.606,8.6026,8.5887,8.5779,8.5742,8.5628,8.5551,8.5511,8.5511,8.5511,8.5431,8.5349,8.5388,8.4961,8.4301,8.3682,8.3025,8.252,8.1892,8.162,8.1233,8.0943,9.2464,9.2399,9.2479,9.2432,9.239,9.2295,9.239,9.2549,9.2588,9.2612,9.2646,9.2607,9.211,9.1613,9.1983,9.1934,9.1687,9.2061,9.2451,9.2498,9.2676,9.2576,9.2646,9.2676,9.2969,9.2783,9.3231,9.3688,9.3699,9.4568,9.5359,9.571,9.529,9.4968,9.4991,9.4976,9.4987,9.5171,9.5927,9.6187,9.6369,9.6784,9.7082,9.7184,9.7193,9.7294,9.7277,9.7207,9.7013,9.6954,9.6698,9.5783,9.4635,9.4363,9.3542,9.2177,9.2022,9.1999,9.1927,9.1888,9.1863,9.1721,9.0841,9.0594,9.0453,8.9668,8.8804,8.8546,8.8055,8.7461,8.7074,8.6764,8.688,8.6648,8.6648,8.6726,8.6726,8.6583,8.6583,8.6583,8.6583,8.6556,8.6384,8.6223,8.6088,8.5978,8.6055,8.6094,8.6094,8.6094,8.6094,8.6094,8.6094,8.6094,8.6026,8.5887,8.5815,8.5742,8.5667,8.5551,8.5511,8.5511,8.5511,8.5511,8.5471,8.5469,8.5388,8.519,8.4576,8.3963,8.335,8.2846,8.2575,8.2298,8.2013,9.3782,9.3289,9.3944,9.3856,9.3318,9.324,9.3222,9.3376,9.3855,9.3876,9.3435,9.3404,9.2936,9.2475,9.2294,9.2379,9.2273,9.2278,9.2585,9.2678,9.3107,9.338,9.349,9.3802,9.4068,9.4263,9.4567,9.4636,9.4645,9.5551,9.598,9.6254,9.6566,9.6479,9.6061,9.5934,9.6079,9.6664,9.7043,9.716,9.7199,9.7421,9.7565,9.7565,9.7525,9.7511,9.7511,9.7433,9.7381,9.7284,9.6993,9.5981,9.4872,9.4444,9.3392,9.236,9.2066,9.2044,9.1999,9.1936,9.1936,9.1665,9.13,9.1051,9.13,9.0074,8.96,8.941,8.8972,8.8404,8.7693,8.8118,8.8118,8.7035,8.6842,8.6919,8.6919,8.6726,8.661,8.6583,8.6583,8.6528,8.6414,8.6261,8.6126,8.6094,8.6094,8.6094,8.6094,8.6094,8.6094,8.6094,8.6094,8.6094,8.6099,8.6115,8.6197,8.6201,8.5896,8.5551,8.5511,8.5588,8.5511,8.5511,8.5471,8.5469,8.5391,8.5391,8.5314,8.4894,8.4279,8.3856,8.3624,8.3307,8.2987,9.451,9.3856,9.4388,9.4317,9.3888,9.4083,9.4185,9.4315,9.4831,9.4614,9.3927,9.3862,9.3394,9.2769,9.2585,9.2606,9.2609,9.2963,9.3039,9.3176,9.3913,9.4225,9.4532,9.4805,9.4805,9.5157,9.5469,9.558,9.5598,9.6425,9.6855,9.705,9.7401,9.7238,9.6948,9.69,9.6968,9.7397,9.7505,9.7544,9.7544,9.7622,9.7611,9.76,9.7589,9.7604,9.7591,9.7511,9.741,9.7238,9.6758,9.5982,9.5185,9.4309,9.3452,9.2809,9.2226,9.2166,9.2028,9.2005,9.2005,9.1967,9.1467,9.1523,9.1811,9.1013,9.0516,9.0274,8.9953,8.9281,8.8687,8.9201,8.8466,8.7383,8.7035,8.7151,8.688,8.6648,8.661,8.661,8.6583,8.65,8.6414,8.6223,8.6094,8.6094,8.6094,8.6094,8.6094,8.6094,8.6094,8.6094,8.6247,8.6363,8.6445,8.6534,8.6617,8.6697,8.6394,8.6009,8.5779,8.5893,8.5702,8.5511,8.5511,8.5471,8.5511,8.5473,8.5395,8.5355,8.5162,8.4856,8.4587,8.4275,8.3878,9.4708,9.3927,9.3927,9.4044,9.4083,9.4903,9.5254,9.5215,9.5176,9.4708,9.3895,9.3962,9.3419,9.273,9.2652,9.2677,9.2851,9.3515,9.375,9.4101,9.4718,9.4989,9.522,9.5376,9.5653,9.5731,9.5962,9.6461,9.655,9.7064,9.7493,9.7565,9.7604,9.7558,9.7511,9.7479,9.755,9.7659,9.7659,9.7667,9.7675,9.7659,9.7611,9.7641,9.7622,9.7611,9.7589,9.7552,9.7511,9.7403,9.7221,9.6701,9.6002,9.5107,9.427,9.3335,9.2459,9.2226,9.2088,9.2088,9.2088,9.2088,9.1989,9.2028,9.195,9.1717,9.1378,9.0996,9.0636,9.0017,8.9538,8.9008,8.8505,8.7847,8.7306,8.7074,8.6764,8.661,8.661,8.6583,8.6583,8.65,8.6384,8.6261,8.6094,8.6094,8.6094,8.6094,8.6094,8.6094,8.6094,8.6132,8.6324,8.6671,8.6829,8.7068,8.7343,8.7538,8.7236,8.6929,8.6583,8.6161,8.5893,8.5702,8.555,8.5511,8.5511,8.5511,8.5511,8.5471,8.5431,8.5355,8.5011,8.5044,8.4885,9.6464,9.5723,9.6315,9.6237,9.584,9.6542,9.6933,9.6894,9.6308,9.5541,9.4704,9.4135,9.3476,9.269,9.3238,9.3086,9.3359,9.3867,9.414,9.4687,9.5469,9.5898,9.625,9.6523,9.6797,9.6953,9.7109,9.7221,9.7286,9.7672,9.7672,9.7672,9.7695,9.7689,9.7689,9.7701,9.7689,9.7682,9.7689,9.7701,9.7706,9.7662,9.765,9.7675,9.7659,9.765,9.7622,9.7589,9.7565,9.7525,9.6912,9.632,9.6153,9.4716,9.3434,9.2676,9.2208,9.211,9.211,9.211,9.211,9.211,9.2088,9.2088,9.2088,9.2011,9.1866,9.1524,9.1282,9.0805,9.0351,8.9859,8.9124,8.8466,8.8002,8.7693,8.7306,8.6842,8.6842,8.6583,8.6556,8.6472,8.6354,8.6191,8.6094,8.6094,8.6132,8.6209,8.6247,8.6286,8.6324,8.6363,8.6824,8.7286,8.7521,8.7795,8.807,8.8303,8.804,8.7734,8.7235,8.6775,8.6239,8.5855,8.5702,8.5588,8.5511,8.5511,8.5511,8.5511,8.5471,8.5471,8.5471,8.5469,8.5429,9.666,9.5996,9.6425,9.6542,9.6589,9.7337,9.7695,9.7578,9.7135,9.6283,9.5129,9.4645,9.375,9.2851,9.3398,9.3633,9.3359,9.4844,9.5469,9.5586,9.625,9.6758,9.7226,9.7422,9.75,9.7695,9.7695,9.7577,9.7695,9.7695,9.7689,9.7689,9.7695,9.7695,9.7689,9.7689,9.7689,9.7689,9.7695,9.7676,9.7734,9.7734,9.7695,9.775,9.7773,9.7714,9.765,9.7671,9.7611,9.7577,9.6889,9.6756,9.6437,9.5063,9.3647,9.2929,9.2326,9.2169,9.211,9.211,9.211,9.211,9.211,9.211,9.211,9.2049,9.1983,9.1796,9.1772,9.1644,9.1295,9.0865,8.9975,8.9124,8.8814,8.8505,8.7925,8.7267,8.6931,8.666,8.6528,8.6443,8.6323,8.6159,8.6132,8.6209,8.6478,8.6786,8.6824,8.6824,8.6824,8.6863,8.7478,8.8094,8.8291,8.8602,8.9066,8.9299,8.9073,8.8691,8.8041,8.7543,8.7083,8.6431,8.5818,8.5664,8.555,8.5511,8.5511,8.5511,8.5511,8.5511,8.5471,8.5471,8.5431,9.6074,9.541,9.53,9.5971,9.6595,9.7394,9.7676,9.7676,9.761,9.6738,9.5385,9.515,9.4258,9.332,9.3945,9.4258,9.457,9.5742,9.6406,9.6523,9.707,9.75,9.7539,9.7695,9.7695,9.7695,9.7695,9.7695,9.7695,9.7695,9.7695,9.7695,9.7695,9.7695,9.7706,9.7962,9.804,9.8097,9.818,9.8281,9.8047,9.7929,9.7929,9.8008,9.7993,9.7877,9.7831,9.7737,9.7602,9.7583,9.7561,9.7474,9.6678,9.5914,9.4599,9.3532,9.2774,9.2365,9.2169,9.211,9.211,9.211,9.211,9.211,9.211,9.211,9.2044,9.1912,9.1849,9.1773,9.15,9.1174,9.0516,8.9898,8.9549,8.8853,8.8002,8.7383,8.6919,8.6699,8.65,8.6414,8.6354,8.6191,8.6094,8.6247,8.6704,8.7166,8.7478,8.7478,8.7632,8.7632,8.8248,8.8902,8.9286,8.9636,9.0139,9.0296,9.0067,8.9647,8.8997,8.85,8.8002,8.716,8.624,8.5818,8.5588,8.555,8.5511,8.5511,8.5511,8.5511,8.5511,8.5511,8.5471,9.7284,9.7096,9.7059,9.7223,9.7377,9.7589,9.7706,9.7676,9.7689,9.6784,9.5424,9.5156,9.4687,9.3906,9.5039,9.539,9.5351,9.6367,9.6836,9.6953,9.7383,9.7656,9.7695,9.7695,9.7695,9.7695,9.7695,9.7695,9.7695,9.7695,9.7695,9.7695,9.7695,9.7695,9.7885,9.8219,9.856,9.8702,9.9258,9.9219,9.8906,9.9375,9.9687,9.9375,9.9179,9.8633,9.8404,9.7987,9.7776,9.7641,9.7593,9.7249,9.6564,9.6102,9.508,9.3856,9.324,9.2774,9.2326,9.2131,9.211,9.211,9.211,9.211,9.211,9.211,9.2066,9.1936,9.1863,9.1786,9.1694,9.1395,9.1135,9.0671,9.0207,8.9201,8.8157,8.7499,8.6958,8.671,8.651,8.6414,8.6354,8.6261,8.6126,8.6434,8.7038,8.7539,8.8084,8.832,8.8782,8.8897,8.9171,8.9748,9.0094,9.0364,9.0713,9.087,9.0642,9.026,8.9877,8.9188,8.8423,8.7543,8.6738,8.6202,8.578,8.555,8.5511,8.5511,8.5511,8.5511,8.5511,8.5511,8.5511,9.7128,9.7096,9.7109,9.7344,9.7656,9.7687,9.7684,9.7691,9.7693,9.6952,9.5858,9.5703,9.5312,9.4687,9.5898,9.6356,9.6007,9.707,9.7304,9.7344,9.734,9.7617,9.7693,9.7695,9.7695,9.7695,9.7695,9.7695,9.7773,9.7695,9.7695,9.7734,9.7734,9.7929,9.8203,9.8789,9.9297,9.9609,10.0429,10.0508,10.0,10.0312,10.0351,10.0039,9.957,9.914,9.8696,9.8208,9.7784,9.7659,9.7602,9.7494,9.6941,9.6458,9.5572,9.4512,9.3722,9.3084,9.2502,9.2171,9.2131,9.2131,9.211,9.211,9.211,9.211,9.2044,9.1936,9.1888,9.1838,9.1732,9.1522,9.1445,9.1174,9.0865,9.0246,8.8814,8.7577,8.7074,8.666,8.65,8.6384,8.6323,8.623,8.6203,8.6473,8.7044,8.7924,8.8469,8.92,8.9662,8.9975,9.0133,9.0364,9.0671,9.0825,9.1056,9.1136,9.1139,9.087,9.0411,8.9609,8.8805,8.8001,8.7198,8.6509,8.6088,8.5705,8.5511,8.5511,8.5511,8.5511,8.5511,8.5511,8.5511,9.6595,9.6562,9.6598,9.6992,9.7656,9.7694,9.7694,9.7693,9.7667,9.7291,9.668,9.6632,9.6132,9.5853,9.6149,9.64,9.6791,9.7359,9.7598,9.7598,9.7637,9.7676,9.7684,9.7695,9.7695,9.7695,9.7695,9.7851,9.8047,9.8047,9.8047,9.789,9.8086,9.8359,9.8867,9.9375,9.9844,10.0547,10.1172,10.1562,10.1328,10.1015,10.082,10.0351,9.9687,9.9179,9.8789,9.8305,9.7806,9.7675,9.7659,9.7544,9.7343,9.6876,9.6108,9.5167,9.4318,9.3527,9.2752,9.2326,9.221,9.2131,9.2131,9.211,9.211,9.2088,9.2005,9.1936,9.1912,9.1838,9.1771,9.1716,9.1638,9.1445,9.1213,9.0865,8.924,8.7654,8.7074,8.661,8.65,8.6414,8.6354,8.6191,8.6351,8.6621,8.7275,8.8122,8.8969,8.9816,9.0509,9.0668,9.071,9.0979,9.1133,9.1133,9.121,9.121,9.1175,9.121,9.1021,9.037,8.953,8.8534,8.7731,8.7044,8.6241,8.5705,8.559,8.5511,8.5511,8.5511,8.5511,8.5511,8.5511,9.7459,9.7459,9.746,9.7539,9.7695,9.7676,9.7695,9.7701,9.7672,9.7584,9.7409,9.7376,9.7003,9.6199,9.7055,9.7355,9.7284,9.765,9.765,9.7689,9.7695,9.7689,9.7695,9.7706,9.7672,9.768,9.7765,9.8121,9.8394,9.8585,9.877,9.876,9.949,9.9531,9.9219,9.9922,10.0976,10.1445,10.1719,10.2109,10.1797,10.164,10.1914,10.1328,10.0508,9.9765,9.9023,9.8164,9.7832,9.7706,9.7689,9.7641,9.7533,9.7292,9.6681,9.5859,9.5011,9.4162,9.3411,9.2732,9.2501,9.2191,9.2171,9.2151,9.2131,9.211,9.2044,9.1936,9.1888,9.1851,9.1771,9.1716,9.1638,9.1174,9.0865,9.0168,8.9008,8.7731,8.6764,8.6556,8.65,8.6472,8.6443,8.6354,8.637,8.6871,8.7796,8.8605,8.9118,9.0196,9.1275,9.1206,9.121,9.121,9.1171,9.1171,9.121,9.121,9.121,9.121,9.1171,9.1171,9.0367,8.9143,8.8342,8.7656,8.6853,8.5935,8.5628,8.5588,8.555,8.5511,8.5511,8.5511,8.5511]},{"header":{"parameterUnit":"m.s-1","parameterCategory":1,"la1":31.0,"la2":29.5877,"lo1":-88.7671,"lo2":-86.6584,"dy":0.0162,"dx":0.0185,"nx":115,"ny":88,"refTime":"2024-03-18T12:00:00:Z","depth":0,"parameterNumber":3,"parameterNumberName":"V-component_of_WINDS"},"data":[0.0,0.0,0.0,0.0,0.0,0.0,0.0,0.0,0.0,0.0,0.0,0.0,0.0,0.0,0.0,0.0,0.0,0.0,0.0,0.0,0.0,0.0,0.0,0.0,0.0,0.0,0.0,0.0,0.0,0.0,0.0,0.0,0.0,0.0,0.0,0.0,0.0,0.0,0.0,0.0,0.0,0.0,0.0,0.0,0.0,0.0,0.0,0.0,0.0,0.0,0.0,0.0,0.0,0.0,0.0,0.0,0.0,0.0,0.0,0.0,0.0,0.0,0.0,0.0,0.0,0.0,0.0,0.0,0.0,0.0,0.0,0.0,0.0,0.0,0.0,0.0,0.0,0.0,0.0,0.0,0.0,0.0,0.0,0.0,0.0,0.0,0.0,0.0,0.0,0.0,0.0,0.0,0.0,0.0,0.0,0.0,0.0,0.0,0.0,0.0,0.0,0.0,0.0,0.0,0.0,0.0,0.0,0.0,0.0,0.0,0.0,0.0,0.0,0.0,0.0,0.0,0.0,0.0,0.0,0.0,0.0,0.0,0.0,0.0,0.0,0.0,0.0,0.0,0.0,0.0,0.0,0.0,0.0,0.0,0.0,0.0,0.0,0.0,0.0,0.0,0.0,0.0,0.0,0.0,0.0,0.0,0.0,0.0,0.0,0.0,0.0,0.0,0.0,0.0,0.0,0.0,0.0,0.0,0.0,0.0,0.0,0.0,0.0,0.0,0.0,0.0,0.0,0.0,0.0,0.0,0.0,0.0,0.0,0.0,0.0,0.0,0.0,0.0,0.0,0.0,0.0,0.0,0.0,0.0,0.0,0.0,0.0,0.0,0.0,0.0,0.0,0.0,0.0,0.0,0.0,0.0,0.0,0.0,0.0,0.0,0.0,0.0,0.0,0.0,0.0,0.0,0.0,0.0,0.0,0.0,0.0,0.0,0.0,0.0,0.0,0.0,0.0,0.0,0.0,0.0,0.0,0.0,0.0,0.0,0.0,0.0,0.0,0.0,0.0,0.0,0.0,0.0,0.0,0.0,0.0,0.0,0.0,0.0,0.0,0.0,0.0,0.0,0.0,0.0,0.0,0.0,0.0,0.0,0.0,0.0,0.0,0.0,0.0,0.0,0.0,0.0,0.0,0.0,0.0,0.0,0.0,0.0,0.0,0.0,0.0,0.0,0.0,0.0,0.0,0.0,0.0,0.0,0.0,0.0,0.0,0.0,0.0,0.0,0.0,0.0,0.0,0.0,0.0,0.0,0.0,0.0,0.0,0.0,0.0,0.0,0.0,0.0,0.0,0.0,0.0,0.0,0.0,0.0,0.0,0.0,0.0,0.0,0.0,0.0,0.0,0.0,0.0,0.0,0.0,0.0,0.0,0.0,0.0,0.0,0.0,0.0,0.0,0.0,0.0,0.0,0.0,0.0,0.0,0.0,0.0,0.0,0.0,0.0,0.0,0.0,0.0,0.0,0.0,0.0,0.0,0.0,0.0,0.0,0.0,0.0,0.0,0.0,0.0,0.0,0.0,0.0,0.0,0.0,0.0,0.0,0.0,0.0,0.0,0.0,0.0,0.0,0.0,0.0,0.0,0.0,0.0,0.0,0.0,0.0,0.0,0.0,0.0,0.0,0.0,0.0,0.0,0.0,0.0,0.0,0.0,0.0,0.0,0.0,0.0,0.0,0.0,0.0,0.0,0.0,0.0,0.0,0.0,0.0,0.0,0.0,0.0,0.0,0.0,0.0,0.0,0.0,0.0,0.0,0.0,0.0,0.0,0.0,0.0,0.0,0.0,0.0,0.0,0.0,0.0,0.0,0.0,0.0,0.0,0.0,0.0,0.0,0.0,0.0,0.0,0.0,0.0,0.0,0.0,0.0,0.0,0.0,0.0,0.0,0.0,0.0,0.0,0.0,0.0,0.0,0.0,0.0,0.0,0.0,0.0,0.0,0.0,0.0,0.0,0.0,0.0,0.0,0.0,0.0,0.0,0.0,0.0,0.0,0.0,0.0,0.0,0.0,0.0,0.0,0.0,0.0,0.0,0.0,0.0,0.0,0.0,0.0,0.0,0.0,0.0,0.0,0.0,0.0,0.0,0.0,0.0,0.0,0.0,0.0,0.0,0.0,0.0,0.0,0.0,0.0,0.0,0.0,0.0,0.0,0.0,0.0,0.0,0.0,0.0,0.0,0.0,0.0,0.0,0.0,0.0,0.0,0.0,0.0,0.0,0.0,0.0,0.0,0.0,0.0,0.0,0.0,0.0,0.0,0.0,0.0,0.0,0.0,0.0,0.0,0.0,0.0,0.0,0.0,0.0,0.0,0.0,0.0,0.0,0.0,0.0,0.0,0.0,0.0,0.0,0.0,0.0,0.0,0.0,0.0,0.0,0.0,0.0,0.0,0.0,0.0,0.0,0.0,0.0,0.0,0.0,0.0,0.0,0.0,0.0,0.0,0.0,0.0,0.0,0.0,0.0,0.0,0.0,0.0,0.0,0.0,0.0,0.0,0.0,0.0,0.0,0.0,0.0,0.0,0.0,0.0,0.0,0.0,0.0,0.0,0.0,0.0,0.0,0.0,0.0,0.0,0.0,0.0,0.0,0.0,0.0,0.0,0.0,0.0,0.0,0.0,0.0,0.0,0.0,0.0,0.0,0.0,0.0,0.0,0.0,0.0,0.0,0.0,0.0,0.0,0.0,0.0,0.0,0.0,0.0,0.0,0.0,0.0,0.0,0.0,0.0,0.0,0.0,0.0,0.0,0.0,0.0,0.0,0.0,0.0,0.0,0.0,0.0,0.0,0.0,0.0,0.0,0.0,0.0,0.0,0.0,0.0,0.0,0.0,0.0,0.0,0.0,0.0,0.0,0.0,0.0,0.0,0.0,0.0,0.0,0.0,0.0,0.0,0.0,0.0,0.0,0.0,0.0,0.0,0.0,0.0,0.0,0.0,0.0,0.0,0.0,0.0,0.0,0.0,0.0,0.0,0.0,0.0,0.0,0.0,0.0,0.0,0.0,0.0,0.0,0.0,0.0,0.0,0.0,0.0,0.0,0.0,0.0,0.0,0.0,0.0,0.0,0.0,0.0,0.0,0.0,0.0,0.0,0.0,0.0,0.0,0.0,0.0,0.0,0.0,0.0,0.0,0.0,0.0,0.0,0.0,0.0,0.0,0.0,0.0,0.0,0.0,0.0,0.0,0.0,0.0,0.0,0.0,0.0,0.0,0.0,0.0,0.0,0.0,0.0,0.0,0.0,0.0,0.0,0.0,0.0,0.0,0.0,0.0,0.0,0.0,0.0,0.0,0.0,0.0,0.0,0.0,0.0,0.0,0.0,0.0,0.0,0.0,0.0,0.0,0.0,0.0,0.0,0.0,0.0,0.0,0.0,0.0,0.0,0.0,0.0,0.0,0.0,0.0,0.0,0.0,0.0,0.0,0.0,0.0,0.0,0.0,0.0,0.0,0.0,0.0,0.0,0.0,0.0,0.0,0.0,0.0,0.0,0.0,0.0,0.0,0.0,0.0,0.0,0.0,0.0,0.0,0.0,0.0,0.0,0.0,0.0,0.0,0.0,0.0,0.0,0.0,0.0,0.0,0.0,0.0,0.0,0.0,0.0,0.0,0.0,0.0,0.0,0.0,0.0,0.0,0.0,0.0,0.0,0.0,0.0,0.0,0.0,0.0,0.0,0.0,0.0,0.0,0.0,0.0,0.0,0.0,0.0,0.0,0.0,0.0,0.0,0.0,0.0,0.0,0.0,0.0,0.0,0.0,0.0,0.0,0.0,0.0,0.0,0.0,0.0,0.0,0.0,0.0,0.0,0.0,0.0,0.0,0.0,0.0,0.0,0.0,0.0,0.0,0.0,0.0,0.0,0.0,0.0,0.0,0.0,0.0,0.0,0.0,0.0,0.0,0.0,0.0,0.0,0.0,0.0,0.0,0.0,0.0,0.0,0.0,0.0,0.0,0.0,0.0,0.0,0.0,0.0,0.0,0.0,0.0,0.0,0.0,0.0,0.0,0.0,0.0,0.0,0.0,0.0,0.0,0.0,0.0,0.0,0.0,0.0,0.0,0.0,0.0,0.0,0.0,0.0,0.0,0.0,0.0,0.0,0.0,0.0,0.0,0.0,0.0,0.0,0.0,0.0,0.0,0.0,0.0,0.0,0.0,0.0,0.0,0.0,0.0,0.0,0.0,0.0,0.0,0.0,0.0,0.0,0.0,0.0,0.0,0.0,0.0,0.0,0.0,0.0,0.0,0.0,0.0,0.0,0.0,-2.5474,0.0,0.0,0.0,0.0,0.0,0.0,0.0,0.0,0.0,0.0,0.0,0.0,0.0,0.0,0.0,0.0,0.0,0.0,0.0,0.0,0.0,0.0,0.0,0.0,0.0,0.0,0.0,0.0,0.0,0.0,0.0,0.0,0.0,0.0,0.0,0.0,0.0,0.0,0.0,0.0,0.0,0.0,0.0,0.0,0.0,0.0,0.0,0.0,0.0,0.0,0.0,0.0,0.0,0.0,0.0,0.0,0.0,0.0,0.0,0.0,0.0,0.0,0.0,0.0,0.0,0.0,0.0,0.0,0.0,0.0,0.0,0.0,0.0,0.0,0.0,0.0,0.0,0.0,0.0,0.0,0.0,0.0,0.0,0.0,0.0,0.0,0.0,0.0,0.0,0.0,0.0,0.0,0.0,0.0,0.0,0.0,0.0,0.0,0.0,0.0,0.0,0.0,0.0,0.0,0.0,0.0,0.0,0.0,0.0,0.0,-2.719,-2.644,-2.5982,-2.5578,-2.5324,0.0,0.0,0.0,0.0,0.0,0.0,0.0,0.0,0.0,0.0,0.0,0.0,0.0,0.0,0.0,0.0,0.0,0.0,0.0,0.0,0.0,0.0,0.0,0.0,0.0,0.0,0.0,0.0,0.0,0.0,0.0,0.0,0.0,0.0,0.0,0.0,0.0,0.0,0.0,0.0,0.0,0.0,0.0,0.0,0.0,0.0,0.0,0.0,0.0,0.0,0.0,0.0,0.0,0.0,0.0,0.0,0.0,0.0,0.0,0.0,0.0,0.0,0.0,0.0,0.0,0.0,0.0,0.0,0.0,0.0,0.0,0.0,0.0,0.0,0.0,0.0,0.0,0.0,0.0,0.0,0.0,0.0,0.0,0.0,0.0,0.0,0.0,0.0,0.0,0.0,0.0,0.0,0.0,0.0,0.0,0.0,0.0,0.0,0.0,0.0,0.0,0.0,0.0,0.0,0.0,0.0,0.0,0.0,0.0,0.0,0.0,0.0,-2.5649,-2.5087,-2.5227,0.0,0.0,0.0,0.0,0.0,0.0,0.0,0.0,0.0,0.0,0.0,0.0,0.0,0.0,0.0,0.0,0.0,0.0,0.0,0.0,0.0,0.0,0.0,0.0,0.0,0.0,0.0,0.0,0.0,0.0,0.0,0.0,0.0,0.0,0.0,0.0,0.0,0.0,0.0,0.0,0.0,0.0,0.0,0.0,0.0,0.0,0.0,0.0,0.0,0.0,0.0,0.0,0.0,0.0,0.0,0.0,0.0,0.0,0.0,0.0,0.0,0.0,0.0,0.0,0.0,0.0,0.0,0.0,0.0,0.0,0.0,0.0,0.0,0.0,0.0,0.0,0.0,0.0,0.0,0.0,0.0,0.0,0.0,0.0,0.0,0.0,0.0,0.0,0.0,0.0,0.0,0.0,0.0,0.0,0.0,0.0,0.0,0.0,0.0,0.0,0.0,0.0,0.0,0.0,0.0,0.0,0.0,0.0,0.0,0.0,-2.6983,-2.6546,-2.5659,0.0,-2.499,0.0,0.0,0.0,0.0,0.0,0.0,0.0,0.0,0.0,0.0,0.0,0.0,0.0,0.0,0.0,0.0,0.0,0.0,0.0,0.0,0.0,0.0,0.0,0.0,0.0,0.0,0.0,0.0,0.0,0.0,0.0,0.0,0.0,0.0,0.0,0.0,0.0,0.0,0.0,0.0,0.0,0.0,0.0,0.0,0.0,0.0,0.0,0.0,0.0,0.0,0.0,0.0,0.0,0.0,0.0,0.0,0.0,0.0,0.0,0.0,0.0,0.0,0.0,0.0,0.0,0.0,0.0,0.0,0.0,0.0,0.0,0.0,0.0,0.0,0.0,0.0,0.0,0.0,0.0,0.0,0.0,0.0,0.0,0.0,0.0,0.0,0.0,0.0,0.0,0.0,0.0,0.0,0.0,0.0,0.0,0.0,0.0,0.0,0.0,0.0,0.0,0.0,0.0,0.0,0.0,0.0,0.0,0.0,0.0,0.0,-2.6394,-2.6282,-2.5228,-2.4842,0.0,0.0,0.0,0.0,0.0,0.0,0.0,0.0,0.0,0.0,0.0,0.0,0.0,0.0,0.0,0.0,0.0,0.0,0.0,0.0,0.0,0.0,0.0,0.0,0.0,0.0,0.0,0.0,0.0,0.0,0.0,0.0,0.0,0.0,0.0,0.0,0.0,0.0,0.0,0.0,0.0,0.0,0.0,0.0,0.0,0.0,0.0,0.0,0.0,0.0,0.0,0.0,0.0,0.0,0.0,0.0,0.0,0.0,0.0,0.0,0.0,0.0,0.0,0.0,0.0,0.0,0.0,0.0,0.0,0.0,0.0,0.0,0.0,0.0,0.0,0.0,0.0,0.0,0.0,0.0,0.0,0.0,0.0,0.0,0.0,0.0,0.0,0.0,0.0,0.0,0.0,0.0,0.0,0.0,0.0,0.0,0.0,0.0,0.0,0.0,0.0,0.0,0.0,0.0,0.0,0.0,0.0,0.0,0.0,0.0,-2.6722,-2.6355,-2.6076,-2.5044,-2.4622,-2.4994,0.0,0.0,0.0,0.0,0.0,0.0,0.0,0.0,0.0,0.0,0.0,0.0,0.0,0.0,0.0,0.0,0.0,0.0,0.0,0.0,0.0,0.0,0.0,0.0,0.0,0.0,0.0,0.0,0.0,0.0,0.0,0.0,0.0,0.0,0.0,0.0,0.0,0.0,0.0,0.0,0.0,0.0,0.0,0.0,0.0,0.0,0.0,0.0,0.0,0.0,0.0,0.0,0.0,0.0,0.0,0.0,0.0,0.0,0.0,0.0,0.0,0.0,0.0,0.0,0.0,0.0,0.0,0.0,0.0,0.0,0.0,0.0,0.0,0.0,0.0,0.0,0.0,0.0,0.0,0.0,0.0,0.0,0.0,0.0,0.0,0.0,0.0,0.0,0.0,0.0,0.0,0.0,0.0,0.0,0.0,0.0,0.0,0.0,0.0,0.0,0.0,0.0,0.0,0.0,0.0,0.0,0.0,0.0,-2.7552,-2.7216,-2.6736,-2.6189,-2.5173,-2.4762,0.0,0.0,0.0,0.0,0.0,0.0,0.0,0.0,0.0,0.0,0.0,0.0,0.0,0.0,0.0,0.0,0.0,0.0,0.0,0.0,0.0,0.0,0.0,0.0,0.0,0.0,0.0,0.0,0.0,0.0,0.0,0.0,0.0,0.0,0.0,0.0,0.0,0.0,0.0,0.0,0.0,0.0,0.0,0.0,0.0,0.0,0.0,0.0,0.0,0.0,0.0,0.0,0.0,0.0,0.0,0.0,0.0,0.0,0.0,0.0,0.0,0.0,0.0,0.0,0.0,0.0,0.0,0.0,0.0,0.0,0.0,0.0,0.0,0.0,0.0,0.0,0.0,0.0,0.0,0.0,0.0,0.0,0.0,0.0,0.0,0.0,0.0,0.0,0.0,0.0,0.0,0.0,0.0,0.0,0.0,0.0,0.0,0.0,0.0,0.0,0.0,0.0,0.0,0.0,0.0,0.0,0.0,0.0,0.0,-2.6633,-2.6282,-2.5912,-2.5525,-2.4955,-2.4643,0.0,0.0,0.0,0.0,0.0,0.0,0.0,0.0,0.0,0.0,0.0,0.0,0.0,0.0,0.0,0.0,0.0,0.0,0.0,0.0,0.0,0.0,0.0,0.0,0.0,0.0,0.0,0.0,0.0,0.0,0.0,0.0,0.0,0.0,0.0,0.0,0.0,0.0,0.0,0.0,0.0,0.0,0.0,0.0,0.0,0.0,0.0,0.0,0.0,0.0,0.0,0.0,0.0,0.0,0.0,0.0,0.0,0.0,0.0,0.0,0.0,0.0,0.0,0.0,0.0,0.0,0.0,0.0,0.0,0.0,0.0,0.0,0.0,0.0,0.0,0.0,0.0,0.0,0.0,0.0,0.0,0.0,0.0,0.0,0.0,0.0,0.0,0.0,0.0,0.0,0.0,0.0,0.0,0.0,0.0,0.0,0.0,0.0,0.0,0.0,0.0,0.0,0.0,0.0,0.0,0.0,0.0,0.0,0.0,-2.6579,0.0,-2.5577,-2.5437,-2.498,-2.4522,0.0,0.0,0.0,0.0,0.0,0.0,0.0,0.0,0.0,0.0,0.0,0.0,0.0,0.0,0.0,0.0,0.0,0.0,0.0,0.0,0.0,0.0,0.0,0.0,0.0,0.0,0.0,0.0,0.0,0.0,0.0,0.0,0.0,0.0,0.0,0.0,0.0,0.0,0.0,0.0,0.0,0.0,0.0,0.0,0.0,0.0,0.0,0.0,0.0,0.0,0.0,0.0,0.0,0.0,0.0,0.0,0.0,0.0,0.0,0.0,0.0,0.0,0.0,0.0,0.0,0.0,0.0,0.0,0.0,0.0,0.0,0.0,0.0,0.0,0.0,0.0,0.0,0.0,0.0,0.0,0.0,0.0,0.0,0.0,0.0,0.0,0.0,0.0,0.0,0.0,0.0,0.0,0.0,0.0,0.0,0.0,0.0,0.0,0.0,0.0,0.0,0.0,0.0,0.0,0.0,0.0,0.0,0.0,-2.7227,-2.7635,-2.6295,-2.572,-2.612,-2.5391,-2.4641,0.0,0.0,0.0,0.0,0.0,0.0,0.0,0.0,0.0,0.0,0.0,0.0,0.0,0.0,0.0,0.0,0.0,0.0,0.0,0.0,0.0,0.0,0.0,0.0,0.0,0.0,0.0,0.0,0.0,0.0,0.0,0.0,0.0,0.0,0.0,0.0,0.0,0.0,0.0,0.0,0.0,0.0,0.0,0.0,0.0,0.0,0.0,0.0,0.0,0.0,0.0,0.0,0.0,0.0,0.0,0.0,0.0,0.0,0.0,0.0,0.0,0.0,0.0,0.0,0.0,0.0,0.0,0.0,0.0,0.0,0.0,0.0,0.0,0.0,0.0,0.0,0.0,0.0,0.0,0.0,0.0,0.0,0.0,0.0,0.0,0.0,0.0,0.0,0.0,0.0,0.0,0.0,0.0,0.0,0.0,0.0,0.0,0.0,0.0,0.0,0.0,0.0,0.0,0.0,0.0,0.0,0.0,0.0,0.0,-2.6311,-2.5829,-2.5525,-2.5494,-2.5184,-2.475,0.0,0.0,0.0,0.0,0.0,0.0,0.0,0.0,0.0,0.0,0.0,0.0,0.0,0.0,0.0,0.0,0.0,0.0,0.0,0.0,0.0,0.0,0.0,0.0,0.0,0.0,0.0,0.0,0.0,0.0,0.0,0.0,0.0,0.0,0.0,0.0,0.0,0.0,0.0,0.0,0.0,0.0,0.0,0.0,0.0,0.0,0.0,0.0,0.0,0.0,0.0,0.0,0.0,0.0,0.0,0.0,0.0,0.0,0.0,0.0,0.0,0.0,0.0,0.0,0.0,0.0,0.0,0.0,0.0,0.0,0.0,0.0,0.0,0.0,0.0,0.0,0.0,0.0,0.0,0.0,0.0,0.0,0.0,0.0,0.0,0.0,0.0,0.0,0.0,0.0,0.0,0.0,0.0,0.0,0.0,0.0,0.0,0.0,0.0,0.0,0.0,0.0,0.0,0.0,0.0,0.0,0.0,0.0,0.0,-2.5738,-2.5351,-2.5084,-2.4833,-2.4885,-2.4599,-2.407,0.0,0.0,0.0,0.0,0.0,0.0,0.0,0.0,0.0,0.0,0.0,0.0,0.0,0.0,0.0,0.0,0.0,0.0,0.0,0.0,0.0,0.0,0.0,0.0,0.0,0.0,0.0,0.0,0.0,0.0,0.0,0.0,0.0,0.0,0.0,0.0,0.0,0.0,0.0,0.0,0.0,0.0,0.0,0.0,0.0,0.0,0.0,0.0,0.0,0.0,0.0,0.0,0.0,0.0,0.0,0.0,0.0,0.0,0.0,0.0,0.0,0.0,0.0,0.0,0.0,0.0,0.0,0.0,0.0,0.0,0.0,0.0,0.0,0.0,0.0,0.0,0.0,0.0,0.0,0.0,0.0,0.0,0.0,0.0,0.0,0.0,0.0,0.0,0.0,0.0,0.0,0.0,0.0,0.0,0.0,0.0,0.0,0.0,0.0,0.0,0.0,0.0,0.0,0.0,0.0,0.0,0.0,0.0,-2.5736,-2.4764,-2.4344,-2.4445,-2.4388,-2.4334,0.0,0.0,0.0,0.0,0.0,0.0,0.0,0.0,0.0,0.0,0.0,0.0,0.0,0.0,0.0,0.0,0.0,0.0,0.0,0.0,0.0,0.0,0.0,0.0,0.0,0.0,0.0,0.0,0.0,0.0,0.0,0.0,0.0,0.0,0.0,0.0,0.0,0.0,0.0,0.0,0.0,0.0,0.0,0.0,0.0,0.0,0.0,0.0,0.0,0.0,0.0,0.0,0.0,0.0,0.0,0.0,0.0,0.0,0.0,0.0,0.0,0.0,0.0,0.0,0.0,0.0,0.0,0.0,0.0,0.0,0.0,0.0,0.0,0.0,0.0,0.0,0.0,0.0,0.0,0.0,0.0,0.0,0.0,0.0,0.0,0.0,0.0,0.0,0.0,0.0,0.0,0.0,0.0,0.0,0.0,0.0,0.0,0.0,0.0,0.0,0.0,0.0,0.0,0.0,0.0,0.0,0.0,0.0,0.0,-2.4883,-2.3746,-2.3404,-2.4133,-2.4526,-2.4473,0.0,0.0,0.0,0.0,0.0,0.0,0.0,0.0,0.0,0.0,0.0,0.0,0.0,0.0,0.0,0.0,0.0,0.0,0.0,0.0,0.0,0.0,0.0,0.0,0.0,0.0,0.0,0.0,0.0,0.0,0.0,0.0,0.0,0.0,0.0,0.0,0.0,0.0,0.0,0.0,0.0,0.0,0.0,0.0,0.0,0.0,0.0,0.0,0.0,0.0,0.0,0.0,0.0,0.0,0.0,0.0,0.0,0.0,0.0,0.0,0.0,0.0,0.0,0.0,0.0,0.0,0.0,0.0,0.0,0.0,0.0,0.0,0.0,0.0,0.0,0.0,0.0,0.0,0.0,0.0,0.0,0.0,0.0,0.0,0.0,0.0,0.0,0.0,0.0,0.0,0.0,0.0,0.0,0.0,0.0,0.0,0.0,0.0,0.0,0.0,0.0,0.0,0.0,0.0,0.0,0.0,0.0,0.0,-2.5158,-2.4475,-2.3267,-2.2863,-2.3279,-2.3957,-2.4219,0.0,0.0,0.0,0.0,0.0,0.0,0.0,0.0,0.0,0.0,0.0,0.0,0.0,0.0,0.0,0.0,0.0,0.0,0.0,0.0,0.0,0.0,0.0,0.0,0.0,0.0,0.0,0.0,0.0,0.0,0.0,0.0,0.0,0.0,0.0,0.0,0.0,0.0,0.0,0.0,0.0,0.0,0.0,0.0,0.0,0.0,0.0,0.0,0.0,0.0,0.0,0.0,0.0,0.0,0.0,0.0,0.0,0.0,0.0,0.0,0.0,0.0,0.0,0.0,0.0,0.0,0.0,0.0,0.0,0.0,0.0,0.0,0.0,0.0,0.0,0.0,0.0,0.0,0.0,0.0,0.0,0.0,0.0,0.0,0.0,0.0,0.0,0.0,0.0,0.0,0.0,0.0,0.0,0.0,0.0,0.0,0.0,0.0,0.0,0.0,0.0,0.0,0.0,0.0,0.0,0.0,0.0,0.0,-2.4507,-2.4232,-2.2955,-2.2287,-2.2383,-2.3067,-2.3665,0.0,0.0,0.0,0.0,0.0,0.0,0.0,0.0,0.0,0.0,0.0,0.0,0.0,0.0,0.0,0.0,0.0,0.0,0.0,0.0,0.0,0.0,0.0,0.0,0.0,0.0,0.0,0.0,0.0,0.0,0.0,0.0,0.0,0.0,0.0,0.0,0.0,0.0,0.0,0.0,0.0,0.0,0.0,0.0,0.0,0.0,0.0,0.0,0.0,0.0,0.0,0.0,0.0,0.0,0.0,0.0,0.0,0.0,0.0,0.0,0.0,0.0,0.0,0.0,0.0,0.0,0.0,0.0,0.0,0.0,0.0,0.0,0.0,0.0,0.0,0.0,0.0,0.0,0.0,0.0,0.0,0.0,0.0,0.0,0.0,0.0,0.0,0.0,0.0,0.0,0.0,0.0,0.0,0.0,0.0,0.0,0.0,0.0,0.0,0.0,0.0,0.0,0.0,0.0,0.0,0.0,0.0,0.0,-2.4316,-2.3744,-2.2721,-2.2328,-2.275,-2.3426,-2.3523,0.0,0.0,0.0,0.0,0.0,0.0,0.0,0.0,0.0,0.0,0.0,0.0,0.0,0.0,0.0,0.0,0.0,0.0,0.0,0.0,0.0,0.0,0.0,0.0,0.0,0.0,0.0,0.0,0.0,0.0,0.0,0.0,0.0,0.0,0.0,0.0,0.0,0.0,0.0,0.0,0.0,0.0,0.0,0.0,0.0,0.0,0.0,0.0,-2.3931,0.0,0.0,0.0,0.0,0.0,0.0,0.0,0.0,0.0,0.0,0.0,0.0,0.0,0.0,0.0,0.0,0.0,0.0,0.0,0.0,0.0,0.0,0.0,0.0,0.0,0.0,0.0,0.0,0.0,0.0,0.0,0.0,0.0,0.0,0.0,0.0,0.0,0.0,0.0,0.0,0.0,0.0,0.0,0.0,0.0,0.0,0.0,0.0,0.0,0.0,0.0,0.0,0.0,0.0,0.0,0.0,0.0,0.0,0.0,-2.4354,-2.3655,-2.2858,-2.244,-2.2553,-2.3055,-2.3317,0.0,0.0,0.0,0.0,0.0,0.0,0.0,0.0,0.0,0.0,0.0,0.0,0.0,0.0,0.0,0.0,0.0,0.0,0.0,0.0,0.0,0.0,0.0,0.0,0.0,0.0,0.0,0.0,0.0,0.0,0.0,0.0,0.0,0.0,0.0,0.0,0.0,0.0,0.0,0.0,0.0,0.0,0.0,0.0,0.0,0.0,0.0,0.0,0.0,0.0,0.0,0.0,0.0,0.0,0.0,0.0,0.0,0.0,0.0,0.0,0.0,0.0,0.0,0.0,0.0,0.0,0.0,0.0,0.0,0.0,0.0,0.0,0.0,0.0,0.0,0.0,0.0,0.0,0.0,0.0,0.0,0.0,0.0,0.0,0.0,0.0,0.0,0.0,0.0,0.0,0.0,0.0,0.0,0.0,0.0,0.0,0.0,0.0,0.0,0.0,0.0,0.0,0.0,0.0,0.0,0.0,0.0,-2.4966,-2.4227,-2.3672,-2.2992,-2.2374,-2.2019,-2.2474,-2.2973,-2.3565,0.0,0.0,0.0,0.0,0.0,0.0,0.0,0.0,0.0,0.0,0.0,0.0,0.0,0.0,0.0,0.0,0.0,0.0,0.0,0.0,0.0,0.0,0.0,0.0,0.0,0.0,0.0,0.0,0.0,0.0,0.0,0.0,0.0,0.0,0.0,0.0,0.0,0.0,-2.5846,-2.6388,0.0,0.0,0.0,0.0,0.0,0.0,0.0,0.0,-2.4436,0.0,0.0,0.0,0.0,0.0,0.0,0.0,0.0,0.0,0.0,0.0,0.0,0.0,0.0,0.0,0.0,0.0,0.0,0.0,0.0,0.0,0.0,0.0,0.0,0.0,0.0,0.0,0.0,0.0,0.0,0.0,0.0,0.0,0.0,0.0,0.0,0.0,0.0,0.0,0.0,0.0,0.0,0.0,0.0,0.0,0.0,0.0,0.0,0.0,0.0,0.0,0.0,0.0,0.0,0.0,0.0,-2.518,-2.4663,-2.4011,-2.3086,-2.2841,-2.262,-2.2234,-2.2724,-2.3186,-2.3347,0.0,0.0,0.0,0.0,0.0,0.0,0.0,0.0,0.0,0.0,0.0,0.0,0.0,0.0,0.0,0.0,0.0,0.0,0.0,0.0,0.0,0.0,0.0,0.0,0.0,0.0,0.0,0.0,0.0,0.0,0.0,0.0,0.0,0.0,0.0,0.0,0.0,0.0,0.0,-2.6884,-2.6902,0.0,0.0,0.0,0.0,0.0,0.0,0.0,0.0,-2.3733,0.0,0.0,0.0,0.0,0.0,0.0,0.0,0.0,0.0,0.0,0.0,0.0,0.0,0.0,0.0,0.0,0.0,0.0,0.0,0.0,0.0,0.0,0.0,0.0,0.0,0.0,0.0,0.0,0.0,0.0,0.0,0.0,0.0,0.0,0.0,0.0,0.0,0.0,0.0,0.0,0.0,0.0,0.0,0.0,0.0,0.0,0.0,0.0,0.0,0.0,0.0,0.0,0.0,0.0,0.0,-2.5011,-2.4473,-2.3866,-2.3387,-2.2951,-2.2532,-2.2129,-2.2026,-2.2248,0.0,0.0,0.0,0.0,0.0,0.0,0.0,0.0,0.0,0.0,0.0,0.0,0.0,0.0,0.0,0.0,0.0,0.0,0.0,0.0,0.0,0.0,0.0,0.0,0.0,0.0,0.0,0.0,0.0,0.0,0.0,0.0,0.0,0.0,0.0,0.0,0.0,0.0,0.0,0.0,-2.6323,-2.6344,-2.5165,0.0,0.0,0.0,0.0,0.0,0.0,-2.358,-2.3612,0.0,0.0,0.0,0.0,0.0,0.0,0.0,0.0,0.0,0.0,0.0,0.0,0.0,0.0,0.0,0.0,0.0,0.0,0.0,0.0,0.0,0.0,0.0,0.0,0.0,0.0,0.0,0.0,0.0,0.0,0.0,0.0,0.0,0.0,0.0,0.0,0.0,0.0,0.0,0.0,0.0,0.0,0.0,0.0,0.0,0.0,0.0,0.0,0.0,0.0,0.0,0.0,0.0,0.0,0.0,-2.4904,-2.422,-2.3803,-2.3727,-2.2966,-2.236,-2.1953,-2.1595,-2.159,0.0,0.0,0.0,0.0,0.0,0.0,0.0,0.0,0.0,0.0,0.0,0.0,0.0,0.0,0.0,0.0,0.0,0.0,0.0,0.0,0.0,0.0,0.0,0.0,0.0,0.0,0.0,0.0,0.0,0.0,0.0,0.0,0.0,0.0,0.0,0.0,0.0,0.0,0.0,0.0,0.0,-2.5789,-2.4937,-2.5321,0.0,0.0,0.0,0.0,-2.3753,-2.3604,0.0,0.0,0.0,0.0,0.0,0.0,0.0,0.0,0.0,0.0,0.0,0.0,0.0,0.0,0.0,0.0,0.0,0.0,0.0,0.0,0.0,0.0,0.0,0.0,0.0,0.0,0.0,0.0,0.0,0.0,0.0,0.0,0.0,0.0,0.0,0.0,0.0,0.0,0.0,0.0,0.0,0.0,0.0,0.0,0.0,0.0,0.0,0.0,0.0,0.0,0.0,0.0,0.0,0.0,0.0,0.0,-2.4462,-2.3795,-2.3526,-2.3253,-2.2466,-2.2022,-2.1964,-2.2091,-2.2134,0.0,0.0,0.0,0.0,0.0,0.0,0.0,0.0,0.0,0.0,0.0,0.0,0.0,0.0,0.0,0.0,0.0,0.0,0.0,0.0,0.0,0.0,0.0,0.0,0.0,0.0,0.0,0.0,0.0,0.0,0.0,0.0,0.0,0.0,0.0,0.0,0.0,0.0,0.0,0.0,0.0,-2.5901,-2.4318,-2.5176,-2.5482,0.0,0.0,-2.4539,-2.3701,-2.3724,0.0,0.0,0.0,0.0,0.0,0.0,0.0,0.0,0.0,0.0,0.0,0.0,0.0,0.0,0.0,0.0,0.0,0.0,0.0,0.0,0.0,0.0,0.0,0.0,0.0,0.0,0.0,0.0,0.0,0.0,0.0,0.0,0.0,0.0,0.0,0.0,0.0,0.0,0.0,0.0,0.0,0.0,0.0,0.0,0.0,0.0,0.0,0.0,0.0,0.0,0.0,0.0,0.0,0.0,0.0,-2.3904,-2.4031,-2.3532,-2.3395,-2.3298,-2.2273,-2.1661,-2.1638,-2.1327,-2.11,0.0,0.0,0.0,0.0,0.0,0.0,0.0,0.0,0.0,0.0,0.0,0.0,0.0,0.0,0.0,0.0,0.0,0.0,0.0,0.0,0.0,0.0,0.0,0.0,0.0,0.0,0.0,0.0,0.0,0.0,0.0,0.0,0.0,0.0,0.0,0.0,0.0,0.0,0.0,0.0,0.0,0.0,-2.4037,-2.4966,0.0,0.0,0.0,-2.4624,-2.391,0.0,0.0,0.0,0.0,0.0,0.0,0.0,0.0,0.0,0.0,0.0,0.0,0.0,0.0,0.0,0.0,0.0,0.0,0.0,0.0,0.0,0.0,0.0,0.0,0.0,0.0,0.0,0.0,0.0,0.0,0.0,0.0,0.0,0.0,0.0,0.0,0.0,0.0,0.0,0.0,0.0,0.0,0.0,0.0,0.0,0.0,0.0,0.0,0.0,0.0,0.0,0.0,0.0,0.0,0.0,0.0,0.0,-2.3735,-2.3357,-2.3062,-2.3067,-2.1906,-2.11,-2.1005,-2.0395,0.0,0.0,0.0,0.0,0.0,0.0,0.0,0.0,0.0,0.0,0.0,0.0,0.0,0.0,0.0,0.0,0.0,0.0,0.0,0.0,0.0,0.0,0.0,0.0,0.0,0.0,0.0,-1.9986,0.0,0.0,0.0,0.0,0.0,0.0,0.0,0.0,0.0,0.0,0.0,0.0,0.0,0.0,-2.3672,-2.3742,-2.4491,-2.4862,0.0,0.0,-2.4598,-2.3839,-2.3691,-2.3536,0.0,0.0,0.0,0.0,0.0,0.0,0.0,0.0,0.0,0.0,0.0,0.0,0.0,0.0,0.0,0.0,0.0,0.0,0.0,0.0,0.0,0.0,0.0,0.0,0.0,0.0,0.0,0.0,0.0,0.0,0.0,0.0,0.0,0.0,0.0,0.0,0.0,0.0,0.0,0.0,0.0,0.0,0.0,0.0,0.0,0.0,0.0,0.0,0.0,0.0,0.0,0.0,0.0,0.0,0.0,-2.3302,-2.3064,-2.2819,-2.2288,-2.0948,-2.0298,-2.0343,-2.0065,-2.0045,0.0,0.0,0.0,0.0,0.0,0.0,0.0,0.0,0.0,0.0,0.0,0.0,0.0,0.0,0.0,0.0,0.0,0.0,0.0,0.0,0.0,0.0,0.0,0.0,0.0,0.0,0.0,0.0,0.0,0.0,0.0,0.0,0.0,0.0,0.0,0.0,0.0,0.0,0.0,0.0,0.0,-2.3022,-2.2914,-2.3757,-2.4137,0.0,0.0,-2.4407,-2.3195,-2.3529,-2.3676,-2.3087,0.0,0.0,0.0,0.0,0.0,0.0,0.0,0.0,0.0,0.0,0.0,0.0,0.0,0.0,0.0,0.0,0.0,0.0,0.0,0.0,0.0,0.0,0.0,0.0,0.0,0.0,0.0,0.0,0.0,0.0,0.0,0.0,0.0,0.0,0.0,0.0,0.0,0.0,0.0,0.0,0.0,0.0,0.0,0.0,0.0,0.0,0.0,0.0,0.0,0.0,0.0,0.0,0.0,-2.2543,-2.2831,-2.2762,-2.251,-2.232,-2.11,-2.0269,-1.9664,-1.9656,-1.9453,0.0,0.0,0.0,0.0,0.0,0.0,0.0,0.0,0.0,0.0,0.0,0.0,0.0,0.0,0.0,0.0,0.0,0.0,0.0,0.0,0.0,0.0,0.0,0.0,0.0,0.0,0.0,0.0,-1.9374,-1.9332,-1.9245,0.0,0.0,0.0,0.0,0.0,0.0,0.0,0.0,0.0,0.0,-2.2345,-2.2457,-2.3379,0.0,0.0,-2.412,-2.4317,-2.368,-2.3398,-2.337,-2.3267,-2.2784,0.0,0.0,0.0,0.0,0.0,0.0,0.0,0.0,0.0,0.0,0.0,0.0,0.0,0.0,0.0,0.0,0.0,0.0,0.0,0.0,0.0,0.0,0.0,0.0,0.0,0.0,0.0,0.0,0.0,0.0,0.0,0.0,0.0,0.0,0.0,0.0,0.0,0.0,0.0,0.0,0.0,0.0,0.0,0.0,0.0,0.0,0.0,0.0,0.0,0.0,0.0,0.0,-2.1849,-2.2235,-2.2211,-2.2126,-2.1755,-2.0588,-1.9711,-1.9124,-1.9186,-1.9108,0.0,0.0,0.0,0.0,0.0,0.0,0.0,0.0,0.0,0.0,0.0,0.0,0.0,0.0,0.0,0.0,0.0,0.0,0.0,0.0,0.0,0.0,0.0,0.0,0.0,0.0,0.0,0.0,-1.8631,-1.8632,-1.893,0.0,0.0,0.0,0.0,0.0,0.0,0.0,0.0,0.0,0.0,-2.1503,-2.1823,-2.2616,-2.3297,-2.3311,-2.3774,-2.3997,-2.3672,-2.3314,-2.299,-2.3214,0.0,0.0,0.0,0.0,0.0,0.0,0.0,0.0,0.0,0.0,0.0,0.0,0.0,0.0,0.0,0.0,0.0,0.0,0.0,0.0,0.0,0.0,0.0,0.0,0.0,0.0,0.0,0.0,0.0,0.0,-1.9584,0.0,0.0,0.0,0.0,0.0,0.0,0.0,0.0,0.0,0.0,0.0,0.0,0.0,0.0,0.0,0.0,0.0,0.0,0.0,0.0,0.0,0.0,-2.157,-2.1199,-2.1243,-2.1007,-2.0588,-1.9396,-1.8609,-1.8093,-1.8783,-1.8858,-1.8388,0.0,0.0,0.0,0.0,0.0,0.0,0.0,0.0,0.0,0.0,0.0,0.0,0.0,0.0,0.0,0.0,0.0,0.0,0.0,0.0,0.0,0.0,0.0,0.0,0.0,0.0,-1.8443,-1.8424,-1.8699,0.0,0.0,0.0,0.0,0.0,0.0,0.0,0.0,0.0,0.0,-2.076,-2.051,-2.1211,-2.1608,-2.2058,-2.244,-2.312,-2.3507,-2.3145,-2.3042,-2.2916,0.0,0.0,0.0,0.0,0.0,0.0,0.0,0.0,0.0,0.0,0.0,0.0,0.0,0.0,0.0,0.0,0.0,0.0,0.0,0.0,0.0,0.0,0.0,0.0,0.0,0.0,0.0,-1.9314,-1.9857,0.0,0.0,0.0,0.0,0.0,0.0,0.0,0.0,0.0,0.0,0.0,-2.1356,-2.1493,0.0,0.0,0.0,0.0,0.0,0.0,0.0,0.0,0.0,0.0,0.0,0.0,-2.0974,-2.0932,-2.0434,-2.0337,-2.0066,-1.9229,-1.8322,-1.737,-1.8158,-1.884,-1.9423,0.0,0.0,0.0,0.0,0.0,0.0,0.0,0.0,0.0,0.0,0.0,0.0,0.0,0.0,0.0,0.0,0.0,0.0,0.0,0.0,0.0,0.0,0.0,0.0,0.0,-1.8116,0.0,0.0,0.0,0.0,0.0,0.0,0.0,0.0,0.0,0.0,0.0,-2.0958,-2.1022,-2.0811,-2.0825,-2.1245,-2.2028,-2.2496,0.0,0.0,0.0,0.0,0.0,0.0,0.0,0.0,0.0,0.0,0.0,0.0,0.0,0.0,-2.1002,-2.0227,-2.0013,-1.992,-1.9813,0.0,0.0,0.0,0.0,0.0,0.0,0.0,0.0,0.0,0.0,0.0,0.0,0.0,0.0,-1.9516,0.0,-1.9776,0.0,0.0,0.0,0.0,0.0,0.0,0.0,0.0,-2.0943,-2.1518,-2.1648,-2.1932,-2.2074,0.0,-2.1925,-2.2004,0.0,0.0,0.0,0.0,0.0,0.0,0.0,0.0,-2.0422,-2.0277,-1.9652,-1.9306,-1.9186,-1.8406,-1.7673,-1.6468,-1.7435,-1.8725,-2.017,-2.0676,-2.1125,0.0,0.0,0.0,0.0,0.0,0.0,0.0,0.0,0.0,0.0,0.0,0.0,0.0,0.0,0.0,0.0,0.0,0.0,0.0,0.0,0.0,0.0,0.0,-1.7908,0.0,0.0,0.0,0.0,0.0,0.0,0.0,0.0,0.0,-2.0372,-2.0618,-2.077,-2.0683,-2.059,-2.0623,-2.1142,0.0,0.0,0.0,0.0,0.0,0.0,0.0,-2.28,-2.3304,-2.2972,-2.3042,-2.3448,-2.3181,-2.2791,-2.2572,0.0,0.0,-2.1042,-2.0762,-2.0695,-2.0695,-2.0601,-2.0535,-2.0535,-2.0775,-2.0922,0.0,0.0,0.0,0.0,0.0,0.0,0.0,0.0,-2.0308,-1.9924,0.0,-2.0086,0.0,0.0,0.0,0.0,0.0,-2.0509,0.0,0.0,-2.1627,-2.2142,-2.1684,-2.2408,-2.2868,-2.2819,-2.2375,-2.2408,-2.3041,-2.2128,0.0,0.0,0.0,0.0,0.0,0.0,-2.0217,-1.9748,-1.8913,-1.8281,-1.7797,-1.7282,-1.6664,-1.5973,-1.7018,-1.8552,-2.0434,-2.0991,-2.147,-2.2125,-2.1716,0.0,0.0,0.0,0.0,0.0,0.0,0.0,0.0,0.0,0.0,0.0,0.0,0.0,0.0,0.0,0.0,0.0,0.0,0.0,0.0,-1.8059,0.0,0.0,0.0,0.0,0.0,0.0,0.0,0.0,0.0,0.0,-2.0925,-2.0962,-2.0734,-2.0488,0.0,0.0,0.0,0.0,-2.1046,-2.2415,-2.2902,-2.298,-2.298,-2.2951,-2.2822,-2.2846,0.0,0.0,-2.3746,-2.3666,-2.3351,-2.3461,-2.3265,-2.306,-2.2205,-2.179,-2.159,-2.159,-2.139,-2.1189,-2.1203,-2.1483,-2.1643,-2.1781,0.0,0.0,0.0,0.0,-2.1418,-2.1574,-2.0654,-2.0546,-2.0535,-2.0934,-2.0819,0.0,0.0,0.0,0.0,0.0,0.0,-2.0455,-2.0751,-2.1744,-2.2165,-2.22,-2.2814,-2.2967,-2.2955,-2.2888,-2.2965,-2.3027,-2.2891,-2.2481,-2.2056,0.0,0.0,0.0,0.0,-1.934,-1.9243,-1.7906,-1.709,-1.7279,-1.6736,-1.6408,-1.6301,-1.6888,-1.796,-1.9397,-2.0249,-2.1139,-2.2183,-2.2001,0.0,0.0,0.0,0.0,0.0,0.0,0.0,0.0,0.0,0.0,0.0,0.0,0.0,0.0,0.0,0.0,0.0,0.0,0.0,-1.8531,-1.8777,-1.8725,0.0,0.0,0.0,0.0,0.0,0.0,0.0,0.0,0.0,-2.0552,-2.0519,-2.0498,0.0,0.0,-2.0812,-2.1291,-2.1713,-2.2062,-2.2656,-2.3198,0.0,-2.3107,-2.2862,-2.2823,-2.3041,-2.3466,-2.3875,-2.4099,-2.4025,-2.391,-2.3708,-2.3722,-2.3554,-2.3313,-2.2832,-2.2512,-2.2485,-2.2418,-2.2445,-2.2645,-2.2766,-2.2752,-2.3854,-2.2851,-2.157,-2.0994,-2.11,-2.2551,-2.2399,-2.143,-2.1125,-2.1074,-2.1119,-2.1227,-2.1164,-2.0723,-2.1018,0.0,0.0,0.0,-2.081,-2.1201,-2.2008,-2.2565,-2.2863,-2.3353,-2.3623,-2.3514,-2.3406,-2.3514,-2.3671,-2.3353,-2.3054,-2.2908,0.0,0.0,-2.0852,-1.9643,-1.8958,-1.9082,-1.7337,-1.6575,-1.6577,-1.5845,-1.5694,-1.6162,-1.6649,-1.7579,-1.8999,-1.9924,-2.11,-2.2576,-2.2542,-2.2293,0.0,0.0,0.0,0.0,0.0,0.0,0.0,0.0,0.0,0.0,0.0,-1.9063,-1.9061,0.0,0.0,0.0,-1.8996,-1.8996,-1.8996,-1.8877,0.0,0.0,0.0,0.0,0.0,0.0,0.0,-1.9681,-1.9892,-2.0182,-2.049,-2.0567,-2.0566,-2.0585,-2.058,-2.0668,-2.0863,0.0,-2.1798,-2.2036,-2.2885,-2.3353,-2.3065,-2.2883,-2.2832,-2.2975,-2.3745,-2.4101,-2.4195,-2.4356,-2.4436,-2.4195,-2.4115,-2.4115,-2.4115,-2.3714,-2.33,-2.31,-2.314,-2.326,-2.3327,-2.3514,-2.3581,-2.4758,-2.3992,-2.3884,-2.3191,-2.2518,-2.3005,-2.2821,-2.2292,-2.2004,-2.1423,-2.0924,-2.1601,-2.146,-2.0946,-2.1071,0.0,-2.1505,-2.1525,-2.1392,-2.1319,-2.2587,-2.3298,-2.3298,-2.4128,-2.4492,-2.4064,-2.3985,-2.4024,-2.4295,-2.3569,-2.3451,-2.3637,-2.2549,-2.1984,-2.1522,-2.0027,-1.9083,-1.8961,-1.7195,-1.6215,-1.5565,-1.4958,-1.4922,-1.5294,-1.6309,-1.7348,-1.8653,-1.9848,-2.1363,-2.3181,-2.291,-2.2804,-2.3113,0.0,0.0,0.0,0.0,0.0,0.0,0.0,0.0,0.0,0.0,0.0,0.0,0.0,0.0,0.0,-1.9233,0.0,-1.9259,-1.88,0.0,0.0,0.0,-1.9009,-1.928,-1.9701,-2.0029,-2.0004,0.0,0.0,-2.0472,-2.0781,-2.0947,-2.0575,-2.0204,-1.9956,-1.9912,-2.0468,-2.0885,-2.1438,-2.236,-2.2986,-2.305,-2.2905,-2.2881,-2.3055,-2.3643,-2.4175,-2.4039,-2.4552,-2.4781,-2.4502,-2.4636,-2.4623,-2.4623,-2.4369,-2.4062,-2.35,-2.3607,-2.3714,-2.3514,-2.3821,-2.4075,-2.5167,-2.4984,-2.4214,-2.3488,-2.3176,-2.3512,-2.3116,-2.2268,-2.2305,-2.1871,-2.1188,-2.2042,-2.2495,-2.2746,-2.1928,-2.1866,-2.2031,-2.1541,-2.1481,-2.1545,-2.2345,-2.2821,-2.281,-2.3642,-2.3998,-2.375,-2.4004,-2.4033,-2.4,-2.3818,-2.3538,-2.321,-2.2603,-2.2036,-2.151,-1.9414,-1.8628,-1.8961,-1.6609,-1.5235,-1.4965,-1.4706,-1.474,-1.4929,-1.6206,-1.7413,-1.8271,-1.9897,-2.1399,-2.2675,-2.3078,-2.3132,-2.2995,-2.2493,0.0,0.0,0.0,0.0,0.0,0.0,0.0,0.0,0.0,-1.9273,-1.9362,0.0,-1.9179,0.0,-1.9916,-2.0017,-2.0005,-1.9961,0.0,0.0,-1.9738,-1.975,-1.9764,-2.0011,-2.026,-2.0307,-2.0182,-2.0282,-2.0476,-2.0335,-2.0251,-2.015,-2.0521,-2.0718,-2.0472,-2.1148,-2.1538,-2.1845,-2.2421,-2.3059,-2.3047,-2.312,-2.3157,-2.3463,-2.3575,-2.3832,-2.382,-2.4259,-2.4521,-2.4258,-2.4341,-2.4636,-2.4649,-2.4569,-2.4422,-2.4088,-2.4062,-2.4088,-2.4008,-2.4115,-2.4182,-2.5349,-2.5215,-2.4699,-2.4315,-2.3973,-2.3852,-2.3324,-2.2533,-2.2395,-2.1922,-2.1276,-2.2245,-2.2866,-2.346,-2.2576,-2.2123,-2.2211,-2.1644,-2.1323,-2.1128,-2.2137,-2.2638,-2.2638,-2.3641,-2.3948,-2.3763,-2.4079,-2.4112,-2.4033,-2.4021,-2.3764,-2.3424,-2.3105,-2.2372,-2.1556,-1.9464,-1.8384,-1.8532,-1.6278,-1.5002,-1.4706,-1.474,-1.4679,-1.4903,-1.5948,-1.6884,-1.7611,-1.914,-2.0587,-2.1883,-2.2419,-2.277,-2.2882,-2.2531,-2.19,0.0,0.0,0.0,0.0,0.0,0.0,0.0,0.0,0.0,0.0,0.0,-1.9588,-1.9859,-2.0036,-2.0038,-2.0185,-1.9931,-1.9831,-1.9898,-1.9898,-2.0036,-2.0278,-2.0417,-2.034,-2.0466,-2.0364,-2.0415,-2.045,-2.0364,-2.0363,-2.034,-2.0727,-2.0769,-2.0296,-2.1014,-2.1475,-2.1545,-2.2194,-2.2756,-2.2912,-2.2912,-2.3033,-2.3402,-2.3704,-2.3897,-2.3819,-2.4138,-2.4443,-2.4488,-2.4573,-2.4723,-2.5024,-2.5037,-2.493,-2.469,-2.4449,-2.4195,-2.3971,-2.4156,-2.4396,-2.5191,-2.5144,-2.5313,-2.5155,-2.4543,-2.3927,-2.3318,-2.2803,-2.2263,-2.1687,-2.1362,-2.2173,-2.2924,-2.3575,-2.2866,-2.2391,-2.2244,-2.1482,-2.1107,-2.0655,-2.1926,-2.2654,-2.2686,-2.3548,-2.3982,-2.3867,-2.4009,-2.4045,-2.4136,-2.4124,-2.4044,-2.3868,-2.3372,-2.2628,-2.164,-1.9554,-1.8299,-1.7445,-1.606,-1.5155,-1.4638,-1.4618,-1.4647,-1.4745,-1.5395,-1.6079,-1.6843,-1.8117,-1.9512,-2.0984,-2.1501,-2.2128,-2.2765,-2.2406,-2.186,0.0,-2.0793,0.0,0.0,0.0,0.0,0.0,0.0,0.0,0.0,-1.9612,-1.9739,-2.0055,-1.9866,-1.9844,-1.9961,-1.9456,-1.9377,-1.983,-2.0047,-2.0221,-2.0641,-2.0674,-2.0556,-2.0591,-2.0554,-2.0592,-2.0443,-2.0649,-2.0759,-2.0502,-2.0669,-2.0495,-1.9976,-2.0591,-2.1122,-2.092,-2.176,-2.2395,-2.2712,-2.287,-2.2957,-2.3104,-2.383,-2.4135,-2.363,-2.4196,-2.4583,-2.4637,-2.47,-2.5019,-2.5365,-2.5491,-2.5424,-2.5006,-2.4803,-2.4331,-2.3862,-2.4009,-2.4341,-2.5598,-2.5675,-2.5494,-2.5191,-2.4573,-2.3427,-2.2543,-2.2056,-2.2013,-2.1825,-2.1825,-2.2345,-2.2917,-2.3423,-2.2724,-2.2296,-2.2,-2.1424,-2.0962,-2.0645,-2.1418,-2.1989,-2.2157,-2.3031,-2.3391,-2.3292,-2.3955,-2.4162,-2.4057,-2.4057,-2.3868,-2.3352,-2.2855,-2.1961,-2.0694,0.0,0.0,0.0,-1.5615,-1.5332,-1.4352,-1.4298,-1.4145,-1.3926,-1.4961,0.0,-1.5965,-1.8147,-1.9444,-2.0045,-2.1424,0.0,0.0,0.0,0.0,0.0,0.0,0.0,0.0,0.0,0.0,0.0,-2.0013,-1.9801,-1.9941,-1.989,-1.9977,-2.0191,-1.9954,-1.9879,-2.0066,-1.9918,-1.9918,-2.0024,-2.0491,-2.0962,-2.0979,-2.0936,-2.0885,-2.112,-2.0626,-2.0296,-2.0419,-2.0252,-2.0222,-2.0266,-2.0505,-2.0565,-2.0264,-2.0644,-2.0931,-2.0814,-2.1662,-2.2487,-2.2659,-2.2808,-2.3117,-2.3241,-2.3596,-2.3731,-2.3636,-2.3889,-2.3984,-2.4045,-2.4431,-2.4905,-2.5072,-2.5198,-2.5378,-2.498,-2.4814,-2.4644,-2.4084,-2.3709,-2.3812,-2.5687,0.0,-2.5366,-2.5051,0.0,-2.2813,-2.1852,-2.1609,-2.1389,-2.1296,-2.1296,-2.2143,-2.281,-2.3298,-2.2676,-2.2289,-2.1793,-2.1254,-2.0527,-1.9788,-2.0515,-2.0836,-2.0945,-2.1984,-2.2396,-2.2681,-2.336,-2.3798,-2.3839,-2.3828,-2.3591,-2.3298,-2.3132,-2.2179,-2.0786,-1.9279,-1.7365,-1.5216,-1.5386,-1.506,-1.4196,-1.4251,-1.4311,-1.4068,-1.5024,0.0,0.0,0.0,0.0,0.0,0.0,0.0,0.0,-2.2661,0.0,-2.2843,-2.2075,-2.1488,-2.1334,-2.095,-2.0853,-2.0986,-2.0479,-2.0035,-1.9638,-1.97,-1.9831,-1.9959,-1.9574,-1.9553,-1.9796,-1.9692,-1.9738,-2.0286,-2.0556,-2.1006,-2.1414,-2.1136,-2.0827,-2.0955,-2.034,-1.9981,-1.9971,-1.994,-1.9941,-2.0177,-2.0104,-1.9854,-1.9753,-2.0377,-2.0663,-2.0596,-2.1103,-2.1761,-2.2256,-2.2682,-2.3237,-2.3399,-2.3817,-2.4106,-2.3876,-2.4,-2.4062,-2.4132,-2.4384,-2.4697,-2.501,-2.5322,-2.5426,-2.4985,-2.4791,-2.4508,-2.3947,-2.3845,-2.3883,-2.5383,-2.4893,-2.5196,-2.502,-2.427,-2.2245,-2.1211,-2.0905,0.0,0.0,0.0,-2.1937,-2.2528,-2.2999,-2.2642,-2.2126,-2.1577,-2.1078,-2.0084,-1.875,-1.9423,-1.9864,-1.9718,-2.0598,-2.1373,-2.2054,-2.2566,-2.3076,-2.3586,-2.3586,-2.3517,-2.3354,-2.3204,-2.2341,-2.0771,-1.8681,-1.6885,-1.5462,-1.5175,-1.4611,-1.3836,-1.417,-1.4276,-1.3998,-1.4759,-1.5391,-1.5692,-1.7199,-1.8356,-1.9331,-2.0419,-2.1453,-2.2706,-2.2602,-2.2649,-2.2839,-2.2423,-2.2117,-2.1691,-2.1474,-2.1378,-2.133,-2.0697,-2.0134,-1.9446,-1.9508,-1.9587,-1.9541,-1.9307,-1.9178,-1.9413,-1.9167,-1.9419,-2.0332,-2.058,-2.0958,-2.1654,-2.1172,-2.074,-2.0615,-2.0219,-1.9844,-1.9693,-1.9865,-2.0059,-2.0152,-1.9897,-1.9115,-1.9003,-1.9523,-2.014,-2.0201,-2.0558,-2.1037,-2.1741,-2.2374,-2.299,-2.3493,-2.3986,-2.4375,-2.4371,-2.4311,-2.4389,-2.4517,-2.4603,-2.4714,-2.5034,-2.5289,-2.5358,-2.4812,-2.4604,-2.4384,-2.386,-2.3953,-2.394,-2.4463,-2.4643,-2.5173,-2.4975,-2.436,-2.2535,-2.0905,-1.9544,-1.9488,-2.0163,-2.1211,-2.1384,-2.1979,-2.301,-2.2468,-2.2022,-2.1348,-2.0843,-1.976,-1.8388,-1.9284,-1.9386,-1.8837,-1.9718,-2.0588,-2.1435,-2.1943,-2.2632,-2.332,-2.3492,-2.3342,-2.3365,-2.2514,-2.1118,-1.9021,-1.7805,-1.6545,-1.5067,-1.483,-1.4222,-1.3268,-1.3036,-1.279,-1.2551,-1.3409,-1.3926,-1.4145,-1.6511,-1.8006,-1.8634,-2.0466,-2.1752,-2.2587,-2.2853,-2.2936,-2.317,-2.3076,-2.29,-2.2536,-2.2452,-2.1853,-2.0665,-2.0127,-1.9825,-1.9804,-1.9838,-1.9781,-1.9587,-1.9334,-1.9226,-1.9178,-1.9193,-1.9469,-1.9963,-2.0764,-2.1214,-2.1443,-2.1175,-2.0841,-2.0553,-2.0309,-2.0156,-2.0124,-2.0296,-2.05,-2.058,-1.9861,-1.9183,-1.8388,-1.8645,-1.9077,-1.9386,-2.0261,-2.1003,-2.145,-2.2056,-2.2766,-2.3253,-2.3797,-2.4175,-2.4423,-2.4576,-2.454,-2.4504,-2.4637,-2.4851,-2.4976,-2.5122,-2.4983,-2.4577,-2.4564,-2.438,-2.383,-2.383,-2.394,-2.3175,-2.4474,-2.576,-2.5489,-2.408,-2.2242,-2.0588,-1.9204,-1.8855,-1.9379,-2.025,-2.0955,-2.1587,-2.201,-2.2353,-2.2129,-2.133,-2.117,-1.9838,-1.8018,-1.8374,-1.8244,-1.7797,-1.8506,-1.9195,-2.0076,-2.0598,-2.1292,-2.2168,-2.2341,-2.2514,-2.2859,-2.1822,-2.0076,-1.7797,-1.7096,-1.6057,-1.4646,-1.4507,-1.3948,-1.3148,-1.3029,-1.2716,-1.2562,-1.3388,-1.3938,-1.4434,-1.631,-1.7672,-1.8734,-2.0269,-2.1744,-2.2696,-2.2876,-2.323,-2.3634,-2.3352,-2.3087,-2.2899,-2.2597,-2.1984,-2.09,-2.0433,-2.0027,-1.977,-1.9515,-1.9371,-1.9382,-1.9216,-1.9094,-1.9118,-1.9062,-1.947,-1.9882,-2.0411,-2.074,-2.1026,-2.098,-2.0804,-2.0624,-2.0452,-2.0264,-2.0382,-2.049,-2.0651,-2.0549,-1.9564,-1.8397,-1.7182,-1.7451,-1.8045,-1.8634,-1.957,-2.0503,-2.096,-2.2094,-2.2832,-2.3179,-2.3798,-2.4315,-2.4568,-2.4687,-2.4794,-2.4661,-2.4681,-2.4723,-2.4613,-2.4802,-2.4665,-2.4344,-2.4332,-2.4332,-2.4,-2.384,-2.3952,-2.1607,-2.37,-2.5535,-2.538,-2.3567,-2.1741,-2.025,-1.903,-1.8514,-1.8514,-1.8681,-2.0076,-2.0955,-2.1302,-2.1984,-2.1822,-2.1128,-2.0955,-1.9553,-1.763,-1.7447,-1.7279,-1.6936,-1.7279,-1.7981,-1.903,-1.9379,-2.0076,-2.0955,-2.0945,-2.1292,-2.1811,-2.0781,-1.903,-1.692,-1.6393,-1.5528,-1.4299,-1.4115,-1.3636,-1.3034,-1.2885,-1.2648,-1.2668,-1.3358,-1.4119,-1.4613,-1.5993,-1.7571,-1.8845,-2.0101,-2.157,-2.2744,-2.2891,-2.319,-2.3654,-2.3435,-2.3253,-2.3092,-2.2397,-2.1786,-2.113,-2.0649,-2.0229,-1.9615,-1.902,-1.8849,-1.8987,-1.9041,-1.8916,-1.8998,-1.9052,-1.9305,-1.9763,-1.9988,-2.028,-2.0793,-2.0687,-2.0624,-2.055,-2.0328,-2.0302,-2.0284,-2.0369,-2.002,-1.9544,-1.8598,-1.7399,-1.6411,-1.6585,-1.7255,-1.7927,-1.9053,-2.006,-2.0597,-2.1938,-2.2906,-2.3098,-2.3915,-2.4438,-2.4503,-2.4794,-2.5071,-2.489,-2.477,-2.4625,-2.4395,-2.4425,-2.4454,-2.3913,-2.4172,-2.4172,-2.3852,-2.384,-2.4,-1.9595,-2.1617,-2.3518,-2.3716,-2.2701,-2.087,-1.9553,-1.8514,-1.7989,-1.7463,-1.6928,-1.8164,-1.9737,-2.1128,-2.0955,-2.0781,-2.0607,-1.9737,-1.8331,-1.6753,-1.6577,-1.6225,-1.5881,-1.6401,-1.7279,-1.8339,-1.8514,-1.903,-1.9902,-2.0076,-1.9902,-1.9553,-1.9039,-1.7981,-1.6577,-1.6049,-1.5352,-1.4299,-1.3413,-1.3059,-1.29,-1.2119,-1.1881,-1.183,-1.3037,-1.3709,-1.3833,-1.5709,-1.7375,-1.8845,-2.0125,-2.14,-2.2474,-2.2941,-2.2848,-2.271,-2.3087,-2.3156,-2.2985,-2.1954,-2.1118,-2.074,-2.0114,-1.9658,-1.951,-1.8715,-1.8601,-1.8812,-1.8611,-1.8484,-1.8592,-1.8759,-1.8884,-1.9075,-1.9532,-1.9898,-2.0244,-2.0627,-2.0572,-2.0032,-2.0211,-2.022,-1.9773,-1.9584,-1.9076,-1.8137,-1.7799,-1.7216,-1.6328,-1.647,-1.6869,-1.7307,-1.8749,-2.0143,-2.0633,-2.176,-2.2622,-2.3148,-2.3686,-2.4201,-2.4508,-2.502,-2.5373,-2.5228,-2.5132,-2.4914,-2.4613,-2.4407,-2.4166,-2.3925,-2.384,-2.384,-2.384,-2.384,-2.4,-1.8677,-1.9578,-2.1578,-2.2232,-2.163,-2.0219,-1.8855,-1.7989,-1.7647,-1.6936,-1.6577,-1.6928,-1.7981,-1.9204,-1.9902,-1.9902,-1.9379,-1.9021,-1.7805,-1.6049,-1.6057,-1.5704,-1.5352,-1.5704,-1.6401,-1.7279,-1.7463,-1.8164,-1.903,-1.9553,-1.9553,-1.8864,-1.8331,-1.7455,-1.6049,-1.5521,-1.4999,-1.4299,-1.3407,-1.2875,-1.2894,-1.2113,-1.1694,-1.1813,-1.2853,-1.3541,-1.3858,-1.5375,-1.6681,-1.7973,-1.9288,-2.037,-2.1432,-2.2111,-2.2383,-2.2186,-2.2576,-2.2565,-2.2292,-2.179,-2.1164,-2.0601,-2.0292,-1.9854,-1.9254,-1.8341,-1.799,-1.84,-1.8301,-1.8301,-1.853,-1.8601,-1.8652,-1.8833,-1.9302,-1.9785,-1.987,-2.0328,-2.0511,-2.0105,-1.9902,-1.9694,-1.9483,-1.8933,-1.822,-1.766,-1.7443,-1.6985,-1.6533,-1.6649,-1.6787,-1.6959,-1.8268,-1.9442,-2.0066,-2.1128,-2.2168,-2.2859,-2.3548,-2.4235,-2.4407,-2.4921,-2.5433,-2.5433,-2.5337,-2.5083,-2.4685,-2.4552,-2.4359,-2.4033,-2.384,-2.384,-2.384,-2.384,-2.4012,-1.8135,-1.8458,-1.9876,-2.0589,-2.0469,-1.9369,-1.8514,-1.7822,-1.7112,-1.6577,-1.6225,-1.6401,-1.6753,-1.7455,-1.8681,-1.8846,-1.8322,-1.7972,-1.7096,-1.5528,-1.5352,-1.5175,-1.4999,-1.5352,-1.5704,-1.6225,-1.6577,-1.7112,-1.7814,-1.8331,-1.8331,-1.7814,-1.7455,-1.6577,-1.5528,-1.5175,-1.4646,-1.4122,-1.3236,-1.2894,-1.2586,-1.1984,-1.1732,-1.1824,-1.2894,-1.3584,-1.3676,-1.4999,-1.6306,-1.7437,-1.8416,-1.9541,-2.0611,-2.1492,-2.1925,-2.183,-2.1939,-2.2061,-2.1905,-2.159,-2.1163,-2.0536,-2.034,-1.9844,-1.8936,-1.7711,-1.7283,-1.7645,-1.7501,-1.7501,-1.8276,-1.8429,-1.8296,-1.8355,-1.8658,-1.9068,-1.9315,-1.9771,-2.0116,-1.9845,-1.9423,-1.914,-1.8636,-1.8055,-1.7495,-1.7268,-1.707,-1.68,-1.6763,-1.6763,-1.6917,-1.6868,-1.7521,-1.8488,-1.9728,-2.0771,-2.1649,-2.2514,-2.3376,-2.3892,-2.4064,-2.4578,-2.5263,-2.5092,-2.5263,-2.5301,-2.4902,-2.4709,-2.4468,-2.4045,-2.3864,-2.3876,-2.384,-2.384,-2.4172,-1.816,-1.8289,-1.8897,-1.9094,-1.845,-1.8134,-1.7822,-1.7647,-1.6753,-1.6225,-1.5881,-1.6225,-1.6225,-1.6057,-1.7288,-1.7814,-1.763,-1.6928,-1.6049,-1.4992,-1.4653,-1.4646,-1.4999,-1.4999,-1.5352,-1.5704,-1.5881,-1.5881,-1.6057,-1.6057,-1.5881,-1.5881,-1.5881,-1.5528,-1.5175,-1.4999,-1.4469,-1.3768,-1.3242,-1.2758,-1.2344,-1.1925,-1.1813,-1.1846,-1.2976,-1.367,-1.387,-1.4623,-1.5931,-1.725,-1.7973,-1.8997,-2.0454,-2.1141,-2.1494,-2.1683,-2.1276,-2.1353,-2.1941,-2.139,-2.0649,-2.0145,-1.9679,-1.8946,-1.8055,-1.6977,-1.659,-1.708,-1.6156,-1.6156,-1.7427,-1.7728,-1.7629,-1.7474,-1.7529,-1.7789,-1.8446,-1.8935,-1.8911,-1.8913,-1.8645,-1.8183,-1.7035,-1.7024,-1.696,-1.6734,-1.6609,-1.6771,-1.6698,-1.6901,-1.699,-1.695,-1.7173,-1.7805,-1.9553,-2.0424,-2.1465,-2.2341,-2.3031,-2.3548,-2.372,-2.4064,-2.4407,-2.4921,-2.5263,-2.5313,-2.5059,-2.477,-2.4444,-2.4154,-2.3997,-2.3961,-2.4045,-2.39,-2.4209,-1.8168,-1.8119,-1.8143,-1.8174,-1.8304,-1.7612,-1.7288,-1.7288,-1.6401,-1.5881,-1.5704,-1.5881,-1.5881,-1.5704,-1.6585,-1.6753,-1.6401,-1.5521,-1.4639,-1.4115,-1.3945,-1.3938,-1.4115,-1.4646,-1.4992,-1.5352,-1.5528,-1.5704,-1.5704,-1.5704,-1.5704,-1.5704,-1.5352,-1.5168,-1.4999,-1.4646,-1.4292,-1.3597,-1.3139,-1.2855,-1.2373,-1.2008,-1.1928,-1.1933,-1.2648,-1.3305,-1.3682,-1.4429,-1.5181,-1.6314,-1.7242,-1.8231,-1.9182,-1.9887,-2.0647,-2.095,-2.0973,-2.091,-2.1036,-2.1089,-2.0736,-2.0104,-1.944,-1.8538,-1.7451,-1.6525,-1.5785,-1.5549,-1.52,-1.5439,-1.5839,-1.659,-1.7011,-1.7092,-1.7367,-1.7627,-1.804,-1.8465,-1.8741,-1.8337,-1.7955,-1.7207,-1.6743,-1.6709,-1.6697,-1.6641,-1.6771,-1.6852,-1.6933,-1.7047,-1.708,-1.7047,-1.7063,-1.7639,-1.9204,-1.9902,-2.0771,-2.1984,-2.2859,-2.3204,-2.3548,-2.4064,-2.4578,-2.4749,-2.5092,-2.5325,-2.5083,-2.4854,-2.4516,-2.442,-2.4275,-2.4226,-2.4347,-2.419,-2.4441,-1.8176,-1.8119,-1.7843,-1.7911,-1.806,-1.7526,-1.7201,-1.7017,-1.6087,-1.5704,-1.5704,-1.5528,-1.5528,-1.5528,-1.5873,-1.5697,-1.5352,-1.4639,-1.4108,-1.3584,-1.3591,-1.3591,-1.3768,-1.4469,-1.4822,-1.4822,-1.5175,-1.5175,-1.5175,-1.5175,-1.5183,-1.5183,-1.4999,-1.4822,-1.4646,-1.4292,-1.3768,-1.3439,-1.3016,-1.2554,-1.2255,-1.2069,-1.2009,-1.2053,-1.2505,-1.2928,-1.3493,-1.4052,-1.4805,-1.5556,-1.6501,-1.7281,-1.7994,-1.8766,-1.9354,-2.0081,-2.0232,-2.0217,-2.0196,-2.0485,-2.0358,-1.9559,-1.8896,-1.8144,-1.6729,-1.5945,-1.5184,-1.4781,-1.4556,-1.4539,-1.4969,-1.5586,-1.6157,-1.6495,-1.6929,-1.7161,-1.7323,-1.7756,-1.7855,-1.7616,-1.7225,-1.6651,-1.6405,-1.656,-1.6698,-1.6844,-1.6893,-1.699,-1.708,-1.7112,-1.7112,-1.7112,-1.7104,-1.7639,-1.8681,-1.9553,-2.0598,-2.1811,-2.2514,-2.3031,-2.3376,-2.4064,-2.4578,-2.4578,-2.4873,-2.5107,-2.512,-2.4902,-2.477,-2.4685,-2.4564,-2.4468,-2.4492,-2.4456,-2.4862,-1.82,-1.8152,-1.8182,-1.8092,-1.7843,-1.751,-1.738,-1.7161,-1.6125,-1.5704,-1.5704,-1.5183,-1.5013,-1.4999,-1.519,-1.5006,-1.4992,-1.4462,-1.3945,-1.361,-1.3432,-1.3439,-1.3629,-1.4169,-1.4333,-1.4319,-1.4306,-1.4299,-1.4476,-1.4476,-1.4476,-1.4299,-1.4476,-1.4476,-1.4299,-1.3945,-1.3413,-1.2906,-1.2651,-1.2232,-1.1813,-1.1928,-1.2047,-1.2156,-1.2183,-1.2567,-1.2939,-1.387,-1.461,-1.5181,-1.5751,-1.6524,-1.7451,-1.7622,-1.8119,-1.8922,-1.8891,-1.9173,-1.9765,-1.9755,-1.9314,-1.8644,-1.8172,-1.7259,-1.5989,-1.5194,-1.4601,-1.4393,-1.415,-1.4066,-1.4518,-1.4721,-1.5193,-1.5867,-1.6024,-1.6205,-1.6542,-1.6706,-1.6774,-1.6943,-1.6684,-1.6397,-1.656,-1.6567,-1.6687,-1.6727,-1.6816,-1.6904,-1.6936,-1.7136,-1.7128,-1.7112,-1.7145,-1.7529,-1.8366,-1.9379,-2.0424,-2.1649,-2.2341,-2.2859,-2.3031,-2.3548,-2.4235,-2.4407,-2.4921,-2.5167,-2.5264,-2.5059,-2.4987,-2.489,-2.4782,-2.4758,-2.477,-2.4745,-2.4894,-1.82,-1.8152,-1.8182,-1.8108,-1.7875,-1.7534,-1.7388,-1.7186,-1.6133,-1.5712,-1.555,-1.5291,-1.5098,-1.5042,-1.5106,-1.5098,-1.4999,-1.3938,-1.328,-1.3183,-1.2836,-1.3059,-1.3494,-1.3874,-1.4183,-1.4263,-1.3985,-1.3945,-1.4306,-1.4306,-1.4299,-1.4299,-1.4306,-1.4299,-1.4306,-1.3768,-1.3413,-1.2894,-1.2472,-1.2057,-1.1819,-1.1928,-1.2085,-1.227,-1.2297,-1.2488,-1.2673,-1.3352,-1.4059,-1.4617,-1.5368,-1.6354,-1.6892,-1.7015,-1.7153,-1.773,-1.7731,-1.8174,-1.899,-1.9095,-1.8875,-1.8369,-1.7566,-1.6504,-1.5361,-1.4569,-1.3944,-1.3697,-1.3686,-1.3846,-1.3895,-1.4323,-1.4784,-1.5074,-1.515,-1.556,-1.5909,-1.6332,-1.6598,-1.6664,-1.6609,-1.6706,-1.6607,-1.657,-1.6482,-1.649,-1.6553,-1.6585,-1.6777,-1.7057,-1.7226,-1.7145,-1.7201,-1.7403,-1.8207,-1.8864,-1.9902,-2.1118,-2.1995,-2.2686,-2.2859,-2.3376,-2.3892,-2.4407,-2.4921,-2.5239,-2.5155,-2.5264,-2.518,-2.5192,-2.5168,-2.5156,-2.5156,-2.5203,-2.5188,-1.7819,-1.816,-1.8248,-1.8022,-1.7604,-1.7278,-1.7127,-1.6915,-1.5868,-1.5439,-1.5476,-1.5075,-1.4875,-1.4949,-1.4833,-1.4785,-1.4476,-1.3407,-1.277,-1.2705,-1.2536,-1.2607,-1.3065,-1.3406,-1.3674,-1.3739,-1.3509,-1.3668,-1.4024,-1.3898,-1.3925,-1.4104,-1.4057,-1.3853,-1.384,-1.3439,-1.2875,-1.2544,-1.2344,-1.1919,-1.1835,-1.1976,-1.215,-1.2319,-1.2352,-1.2379,-1.2411,-1.3107,-1.378,-1.4247,-1.4899,-1.5661,-1.6167,-1.5996,-1.6128,-1.6519,-1.681,-1.7104,-1.7864,-1.7665,-1.7673,-1.7501,-1.6588,-1.5707,-1.4898,-1.4117,-1.383,-1.3542,-1.3559,-1.3709,-1.3722,-1.3954,-1.4252,-1.4426,-1.4828,-1.5056,-1.5586,-1.5833,-1.6097,-1.6152,-1.6246,-1.6349,-1.6261,-1.6323,-1.6049,-1.6233,-1.6287,-1.6495,-1.6711,-1.7015,-1.7145,-1.7283,-1.7299,-1.7612,-1.7848,-1.8514,-1.9388,-2.0424,-2.1649,-2.2341,-2.2686,-2.3204,-2.372,-2.4235,-2.4921,-2.5092,-2.5203,-2.5385,-2.5349,-2.5433,-2.5433,-2.5385,-2.5301,-2.5277,-2.53,-1.7242,-1.7989,-1.8176,-1.7795,-1.7382,-1.7071,-1.6575,-1.6181,-1.5492,-1.5248,-1.5104,-1.4867,-1.4672,-1.455,-1.4543,-1.4289,-1.3623,-1.3084,-1.261,-1.2344,-1.2215,-1.2471,-1.273,-1.3011,-1.3083,-1.3164,-1.3028,-1.3251,-1.3803,-1.3544,-1.3449,-1.3757,-1.3468,-1.3065,-1.3016,-1.2574,-1.2355,-1.2229,-1.2051,-1.1792,-1.1657,-1.2025,-1.2037,-1.2165,-1.2379,-1.2428,-1.252,-1.3069,-1.3537,-1.3706,-1.4401,-1.4984,-1.5223,-1.485,-1.506,-1.5763,-1.5586,-1.61,-1.6452,-1.6452,-1.6113,-1.6129,-1.579,-1.5081,-1.4289,-1.4209,-1.3937,-1.362,-1.3763,-1.3851,-1.3851,-1.3892,-1.3885,-1.4043,-1.455,-1.5071,-1.525,-1.5265,-1.5519,-1.5444,-1.5473,-1.5518,-1.5843,-1.5697,-1.5712,-1.5757,-1.6209,-1.6263,-1.6518,-1.6767,-1.7338,-1.729,-1.7202,-1.7274,-1.7505,-1.7998,-1.8864,-1.9921,-2.1159,-2.1884,-2.2535,-2.3215,-2.372,-2.4235,-2.4578,-2.4921,-2.5092,-2.5263,-2.5263,-2.5433,-2.5433,-2.5433,-2.5421,-2.5373,-2.5337,-1.6883,-1.7242,-1.7827,-1.764,-1.6845,-1.6457,-1.6375,-1.6169,-1.5658,-1.523,-1.5265,-1.5025,-1.4828,-1.4685,-1.4315,-1.4055,-1.3585,-1.2843,-1.2501,-1.2385,-1.2191,-1.227,-1.265,-1.2735,-1.2841,-1.2975,-1.2758,-1.2764,-1.3393,-1.3272,-1.3242,-1.3319,-1.3132,-1.304,-1.2936,-1.2384,-1.2223,-1.2119,-1.1826,-1.1603,-1.1377,-1.1444,-1.1426,-1.1487,-1.1701,-1.1952,-1.2035,-1.2681,-1.3531,-1.4203,-1.4319,-1.4481,-1.4733,-1.4606,-1.4527,-1.4887,-1.4907,-1.5131,-1.5762,-1.557,-1.5578,-1.5755,-1.5217,-1.4578,-1.4408,-1.4096,-1.3954,-1.381,-1.3919,-1.4007,-1.4027,-1.4102,-1.4156,-1.4163,-1.4597,-1.4923,-1.5002,-1.5403,-1.56,-1.563,-1.563,-1.566,-1.5506,-1.5366,-1.5226,-1.5319,-1.5585,-1.5838,-1.6114,-1.6333,-1.69,-1.6931,-1.6829,-1.7089,-1.7177,-1.7664,-1.8348,-1.9416,-2.0511,-2.1659,-2.2447,-2.3053,-2.3559,-2.4064,-2.4407,-2.4578,-2.4921,-2.5092,-2.5263,-2.5263,-2.5433,-2.5433,-2.5433,-2.5409,-2.5409,-1.6119,-1.6097,-1.6673,-1.6688,-1.6284,-1.5939,-1.5881,-1.5689,-1.525,-1.4835,-1.4869,-1.4626,-1.4421,-1.4106,-1.3916,-1.3651,-1.3169,-1.2612,-1.2255,-1.2107,-1.2085,-1.2162,-1.2337,-1.246,-1.2414,-1.2546,-1.2346,-1.2558,-1.2806,-1.2858,-1.2841,-1.2984,-1.2724,-1.2659,-1.2431,-1.217,-1.2001,-1.2074,-1.1942,-1.1694,-1.1299,-1.1365,-1.1156,-1.1173,-1.1623,-1.187,-1.2342,-1.2797,-1.3239,-1.3859,-1.4008,-1.3999,-1.4093,-1.3887,-1.4031,-1.419,-1.4075,-1.4506,-1.5064,-1.4871,-1.4871,-1.5034,-1.4529,-1.4351,-1.4194,-1.3892,-1.3588,-1.3607,-1.3733,-1.3799,-1.4008,-1.4075,-1.4292,-1.4272,-1.4393,-1.4555,-1.4639,-1.4985,-1.4999,-1.5175,-1.5175,-1.5175,-1.5183,-1.4871,-1.4949,-1.4868,-1.5369,-1.5462,-1.573,-1.5913,-1.6234,-1.6461,-1.6533,-1.6821,-1.696,-1.7452,-1.8354,-1.9414,-2.0724,-2.1852,-2.2452,-2.3195,-2.3292,-2.3799,-2.4098,-2.4235,-2.4578,-2.4921,-2.5092,-2.5263,-2.5263,-2.5433,-2.5433,-2.5433,-2.5433,-1.5153,-1.5133,-1.5133,-1.5348,-1.5723,-1.5403,-1.5176,-1.4991,-1.462,-1.4242,-1.4268,-1.3815,-1.379,-1.3499,-1.3468,-1.3037,-1.2558,-1.2375,-1.2214,-1.1884,-1.1769,-1.1812,-1.2025,-1.1987,-1.2113,-1.2057,-1.1944,-1.2168,-1.2574,-1.2295,-1.2516,-1.2631,-1.2184,-1.1971,-1.1879,-1.1835,-1.183,-1.1846,-1.1906,-1.1652,-1.1411,-1.1317,-1.1081,-1.0867,-1.153,-1.217,-1.2615,-1.2743,-1.2792,-1.2961,-1.3281,-1.3535,-1.348,-1.3346,-1.3362,-1.3522,-1.3629,-1.3872,-1.434,-1.4153,-1.4098,-1.4456,-1.427,-1.3892,-1.3774,-1.3687,-1.3391,-1.3391,-1.3513,-1.3558,-1.3748,-1.3938,-1.4122,-1.4306,-1.4299,-1.4326,-1.4319,-1.4312,-1.4299,-1.4299,-1.4299,-1.4299,-1.4333,-1.4414,-1.4516,-1.4764,-1.5077,-1.5167,-1.5371,-1.5518,-1.5862,-1.6,-1.628,-1.6572,-1.6908,-1.7071,-1.8365,-1.966,-2.1184,-2.2306,-2.2903,-2.3293,-2.3304,-2.3391,-2.3715,-2.4155,-2.4407,-2.4749,-2.4921,-2.5263,-2.5433,-2.5433,-2.5433,-2.5433,-2.5433,-1.5174,-1.5174,-1.5174,-1.5174,-1.5362,-1.5334,-1.5133,-1.5133,-1.4565,-1.4183,-1.4202,-1.3858,-1.3664,-1.3627,-1.3162,-1.2714,-1.2511,-1.214,-1.1812,-1.1522,-1.089,-1.1116,-1.1522,-1.1855,-1.1982,-1.196,-1.1976,-1.2036,-1.2306,-1.2328,-1.2123,-1.2229,-1.2031,-1.1758,-1.1499,-1.1689,-1.1683,-1.1382,-1.1801,-1.1553,-1.1136,-1.1008,-1.0736,-1.0128,-1.1002,-1.1853,-1.2652,-1.277,-1.264,-1.2692,-1.2927,-1.3134,-1.3343,-1.3456,-1.3352,-1.3406,-1.3719,-1.3829,-1.4044,-1.4155,-1.4312,-1.4211,-1.4197,-1.4021,-1.367,-1.3513,-1.3362,-1.3192,-1.304,-1.3249,-1.3623,-1.3597,-1.3971,-1.4175,-1.4414,-1.4468,-1.4448,-1.438,-1.4333,-1.4319,-1.4312,-1.4306,-1.4312,-1.4448,-1.4557,-1.4658,-1.4753,-1.5025,-1.5004,-1.5146,-1.5294,-1.5643,-1.6181,-1.6484,-1.6837,-1.7214,-1.857,-1.9717,-2.1439,-2.2764,-2.3189,-2.3418,-2.3445,-2.3468,-2.3512,-2.3922,-2.4109,-2.4578,-2.4749,-2.5092,-2.5433,-2.5433,-2.5433,-2.5433,-2.5433,-1.5181,-1.5181,-1.5181,-1.4993,-1.4805,-1.461,-1.4422,-1.4429,-1.3864,-1.3676,-1.3676,-1.3116,-1.2928,-1.2922,-1.2671,-1.2449,-1.2074,-1.1512,-1.1355,-1.1013,-1.0785,-1.0983,-1.139,-1.1548,-1.1887,-1.2074,-1.2074,-1.2118,-1.2156,-1.2167,-1.214,-1.208,-1.1887,-1.1496,-1.1243,-1.1237,-1.1273,-1.1324,-1.1569,-1.1492,-1.0863,-1.094,-1.0633,-1.0175,-1.0854,-1.1688,-1.2479,-1.2432,-1.2534,-1.2618,-1.2493,-1.2516,-1.2876,-1.2818,-1.2946,-1.3026,-1.318,-1.3486,-1.3563,-1.3887,-1.4216,-1.415,-1.4143,-1.3964,-1.3585,-1.3374,-1.2973,-1.2616,-1.2621,-1.2812,-1.3412,-1.379,-1.3964,-1.4157,-1.439,-1.4618,-1.4604,-1.455,-1.4509,-1.4489,-1.4455,-1.4468,-1.4509,-1.457,-1.4672,-1.4808,-1.4828,-1.4903,-1.4882,-1.5011,-1.4929,-1.5279,-1.5855,-1.6401,-1.6757,-1.7539,-1.8766,-1.9943,-2.1317,-2.2455,-2.3143,-2.3369,-2.3591,-2.3521,-2.3414,-2.3424,-2.3799,-2.4109,-2.4578,-2.4921,-2.5092,-2.5263,-2.5433,-2.5433,-2.5433,-1.5181,-1.4993,-1.5187,-1.4811,-1.4234,-1.3657,-1.3664,-1.3682,-1.3116,-1.3116,-1.2928,-1.2361,-1.2361,-1.2167,-1.2167,-1.1978,-1.1411,-1.0838,-1.0654,-1.0465,-1.0271,-1.0645,-1.0843,-1.1023,-1.1401,-1.1983,-1.2156,-1.2167,-1.2172,-1.2172,-1.2167,-1.2167,-1.1626,-1.1426,-1.1247,-1.1082,-1.0901,-1.1302,-1.1362,-1.1259,-1.0978,-1.0867,-1.0762,-1.0649,-1.0877,-1.1287,-1.1884,-1.2069,-1.2023,-1.231,-1.1999,-1.1838,-1.2069,-1.2167,-1.2322,-1.2579,-1.276,-1.2882,-1.315,-1.3669,-1.3846,-1.3833,-1.3814,-1.3808,-1.3412,-1.2987,-1.2577,-1.221,-1.2215,-1.2419,-1.3072,-1.3418,-1.3795,-1.3997,-1.4375,-1.4591,-1.478,-1.4787,-1.4794,-1.4692,-1.4611,-1.459,-1.4665,-1.4733,-1.4848,-1.493,-1.4936,-1.493,-1.4896,-1.4841,-1.4733,-1.4943,-1.5533,-1.6567,-1.6949,-1.7684,-1.892,-1.9885,-2.1111,-2.2034,-2.2964,-2.342,-2.339,-2.3365,-2.3271,-2.3304,-2.3509,-2.3754,-2.4235,-2.4578,-2.4921,-2.5092,-2.5263,-2.5433,-2.5433,-1.463,-1.4059,-1.4838,-1.4643,-1.3682,-1.2904,-1.2916,-1.3493,-1.3128,-1.2928,-1.275,-1.2367,-1.181,-1.1805,-1.1983,-1.1794,-1.1242,-1.0488,-1.0108,-0.9919,-0.9724,-0.9711,-1.0298,-1.028,-1.0659,-1.1416,-1.1799,-1.1999,-1.2172,-1.2172,-1.2005,-1.201,-1.1704,-1.1171,-1.1003,-1.0863,-1.0689,-1.0878,-1.1115,-1.0992,-1.0871,-1.0532,-1.0387,-1.0476,-1.0681,-1.0881,-1.1287,-1.1478,-1.1434,-1.1323,-1.1608,-1.1686,-1.1771,-1.2058,-1.2178,-1.2322,-1.2688,-1.2818,-1.2911,-1.3258,-1.3382,-1.3309,-1.3297,-1.3108,-1.2919,-1.2523,-1.2335,-1.1969,-1.1969,-1.2163,-1.2535,-1.2942,-1.3285,-1.3676,-1.4119,-1.4553,-1.4765,-1.4991,-1.4977,-1.4835,-1.4753,-1.4726,-1.4808,-1.4862,-1.4896,-1.4896,-1.4841,-1.4835,-1.4814,-1.4746,-1.4652,-1.4915,-1.5406,-1.6287,-1.7157,-1.8087,-1.9065,-1.9604,-2.0575,-2.15,-2.2432,-2.3179,-2.3346,-2.3157,-2.3257,-2.3293,-2.3479,-2.3453,-2.3892,-2.4407,-2.4749,-2.4921,-2.5263,-2.5433,-2.5433,-1.387,-1.2916,-1.3487,-1.3536,-1.3198,-1.2561,-1.2612,-1.2915,-1.2483,-1.2303,-1.2346,-1.1973,-1.1781,-1.1766,-1.1523,-1.1121,-1.0544,-0.998,-0.9624,-0.9449,-0.9386,-0.9365,-0.9958,-0.9932,-1.0284,-1.0863,-1.1277,-1.1657,-1.1805,-1.1482,-1.1497,-1.1342,-1.1037,-1.0698,-1.0509,-1.0153,-1.0383,-1.0392,-1.0629,-1.0679,-1.0734,-1.018,-1.0045,-1.0066,-1.0284,-1.0681,-1.0881,-1.0886,-1.1063,-1.1197,-1.1106,-1.103,-1.1348,-1.1645,-1.2106,-1.2205,-1.2367,-1.2533,-1.2471,-1.2835,-1.3174,-1.3132,-1.3103,-1.2923,-1.272,-1.2506,-1.2091,-1.1906,-1.1911,-1.1933,-1.2365,-1.2545,-1.2929,-1.3307,-1.3914,-1.4313,-1.4712,-1.4959,-1.5065,-1.495,-1.4903,-1.4903,-1.4957,-1.4984,-1.4964,-1.4889,-1.478,-1.4746,-1.474,-1.4699,-1.4645,-1.497,-1.5483,-1.6346,-1.7032,-1.7795,-1.8744,-1.9302,-2.0037,-2.0955,-2.1879,-2.2626,-2.3044,-2.3125,-2.3294,-2.3466,-2.3381,-2.3336,-2.3787,-2.4235,-2.4578,-2.4749,-2.5092,-2.5433,-2.5433,-1.3186,-1.2221,-1.2221,-1.2477,-1.2938,-1.2472,-1.2346,-1.2294,-1.1849,-1.1854,-1.2137,-1.1353,-1.1348,-1.1523,-1.1061,-1.0239,-0.9854,-0.9469,-0.9318,-0.9354,-0.9277,-0.9436,-0.9649,-0.982,-1.0167,-1.0577,-1.0422,-1.0792,-1.1121,-1.0989,-1.084,-1.0873,-1.0555,-1.0215,-1.0219,-0.9866,-0.9849,-1.0076,-1.0119,-1.0162,-1.0188,-0.9853,-0.9693,-0.9689,-1.0096,-1.031,-1.0284,-1.0279,-1.0485,-1.0649,-1.0586,-1.0523,-1.1106,-1.1417,-1.1864,-1.209,-1.2227,-1.221,-1.2394,-1.2544,-1.271,-1.2693,-1.2722,-1.2733,-1.271,-1.2256,-1.2025,-1.2025,-1.2031,-1.2053,-1.2306,-1.2533,-1.2727,-1.3099,-1.3651,-1.4234,-1.4409,-1.4798,-1.4986,-1.5099,-1.5059,-1.5025,-1.5025,-1.5052,-1.5025,-1.4869,-1.476,-1.474,-1.4733,-1.474,-1.474,-1.5066,-1.5568,-1.642,-1.7048,-1.7421,-1.8176,-1.8744,-1.9488,-2.0223,-2.1149,-2.2073,-2.2475,-2.2899,-2.3454,-2.3618,-2.3325,-2.3054,-2.3442,-2.3892,-2.4235,-2.4578,-2.4921,-2.5263,-2.5433,-1.3262,-1.2487,-1.2288,-1.2304,-1.2509,-1.2681,-1.2698,-1.2342,-1.1742,-1.1732,-1.1783,-1.1173,-1.0787,-1.0365,-0.9911,-0.9675,-0.967,-0.949,-0.935,-0.942,-0.9379,-0.9359,-0.9391,-0.9387,-0.9734,-1.0122,-0.9764,-1.0118,-1.0661,-1.0717,-1.075,-1.0773,-1.0455,-1.0317,-1.0123,-0.9774,-1.0045,-1.0245,-1.0053,-0.9657,-0.9669,-0.933,-0.9326,-0.9524,-0.9742,-0.997,-0.992,-0.9907,-0.9895,-1.0083,-1.0197,-1.0541,-1.0909,-1.1025,-1.1563,-1.2079,-1.2406,-1.233,-1.2319,-1.2455,-1.2405,-1.2411,-1.2394,-1.2367,-1.2367,-1.2356,-1.2129,-1.215,-1.2145,-1.214,-1.2161,-1.2172,-1.255,-1.2739,-1.3116,-1.3676,-1.4052,-1.4422,-1.4805,-1.4986,-1.4926,-1.5045,-1.5004,-1.5052,-1.5065,-1.4889,-1.4753,-1.4733,-1.4746,-1.4774,-1.4855,-1.5183,-1.5617,-1.627,-1.6868,-1.7429,-1.7803,-1.8363,-1.893,-1.9488,-2.0408,-2.1334,-2.2258,-2.2678,-2.306,-2.321,-2.2935,-2.2855,-2.2967,-2.3376,-2.372,-2.4235,-2.4749,-2.4921,-2.5263,-1.3066,-1.2536,-1.2536,-1.2379,-1.2226,-1.1973,-1.202,-1.1713,-1.1279,-1.1092,-1.1337,-1.055,-1.0097,-0.9615,-0.9412,-0.9594,-0.9557,-0.935,-0.9432,-0.9497,-0.9473,-0.944,-0.9461,-0.9432,-0.9603,-0.9628,-0.9649,-0.9669,-1.0037,-1.0041,-1.0071,-1.0089,-0.9964,-1.0019,-1.0006,-0.9857,-0.9874,-0.9874,-0.9476,-0.9078,-0.8881,-0.8705,-0.8731,-0.935,-0.9389,-0.9612,-0.9616,-0.9775,-0.9759,-0.9742,-0.987,-1.0219,-1.0613,-1.0974,-1.1545,-1.2129,-1.2422,-1.2531,-1.246,-1.2401,-1.2368,-1.2368,-1.2362,-1.2357,-1.2292,-1.221,-1.2172,-1.2172,-1.2172,-1.2172,-1.2172,-1.2172,-1.2361,-1.255,-1.2739,-1.3116,-1.3676,-1.4234,-1.461,-1.4805,-1.4979,-1.4899,-1.4805,-1.4772,-1.4977,-1.4909,-1.4787,-1.474,-1.4801,-1.4889,-1.4991,-1.512,-1.5528,-1.6112,-1.6681,-1.7242,-1.7616,-1.8176,-1.8557,-1.9116,-1.948,-2.0408,-2.1334,-2.183,-2.2029,-2.2011,-2.2158,-2.2444,-2.2532,-2.2935,-2.3204,-2.3548,-2.4064,-2.4921,-2.5092,-1.2405,-1.2438,-1.283,-1.2486,-1.1753,-1.127,-1.0928,-1.1059,-1.0401,-1.0409,-1.0462,-0.9665,-0.9173,-0.8871,-0.889,-0.889,-0.8626,-0.8841,-0.894,-0.8982,-0.8967,-0.8738,-0.875,-0.8716,-0.8894,-0.8879,-0.915,-0.917,-0.9173,-0.8979,-0.9177,-0.9579,-0.9432,-0.9468,-0.9476,-0.9275,-0.9275,-0.9078,-0.8701,-0.8305,-0.8312,-0.8147,-0.8382,-0.8614,-0.9049,-0.9285,-0.9518,-0.9893,-0.9853,-0.9836,-0.9795,-1.0155,-1.0524,-1.0712,-1.1282,-1.1858,-1.217,-1.2316,-1.2433,-1.2569,-1.2352,-1.2331,-1.2299,-1.2213,-1.2346,-1.2248,-1.2172,-1.2172,-1.2172,-1.2172,-1.2172,-1.2172,-1.2172,-1.2361,-1.255,-1.2739,-1.2922,-1.3487,-1.4052,-1.4241,-1.4409,-1.4725,-1.4626,-1.4514,-1.4671,-1.4875,-1.4828,-1.4767,-1.4848,-1.4977,-1.5065,-1.5181,-1.5368,-1.5931,-1.6306,-1.6868,-1.7429,-1.7989,-1.8371,-1.893,-1.9108,-1.9666,-2.0408,-2.0695,-2.0979,-2.124,-2.1629,-2.1868,-2.2101,-2.2357,-2.261,-2.288,-2.3376,-2.4235,-2.4749,-1.1493,-1.1884,-1.2479,-1.2274,-1.1668,-1.0454,-1.0053,-1.0279,-0.987,-0.946,-0.9067,-0.846,-0.7788,-0.7504,-0.7718,-0.7524,-0.6678,-0.7524,-0.7592,-0.7236,-0.705,-0.7233,-0.7433,-0.7627,-0.8031,-0.7834,-0.8242,-0.8446,-0.8259,-0.7854,-0.846,-0.9472,-0.8873,-0.8877,-0.8888,-0.8694,-0.85,-0.8312,-0.7944,-0.797,-0.7799,-0.7847,-0.7906,-0.83,-0.8757,-0.9195,-0.9128,-0.9533,-0.9736,-0.9736,-0.991,-1.0057,-1.0405,-1.0397,-1.0969,-1.1693,-1.1668,-1.2028,-1.2384,-1.2476,-1.2369,-1.1926,-1.1681,-1.1838,-1.2219,-1.2254,-1.2183,-1.2183,-1.2188,-1.2172,-1.2172,-1.2172,-1.2172,-1.2172,-1.2361,-1.255,-1.2739,-1.2922,-1.3299,-1.3682,-1.3846,-1.4177,-1.4519,-1.4427,-1.4698,-1.4896,-1.4977,-1.493,-1.4964,-1.5065,-1.512,-1.5181,-1.5181,-1.5556,-1.5938,-1.6494,-1.7055,-1.7616,-1.8176,-1.8557,-1.893,-1.9294,-1.9666,-2.0019,-2.0326,-2.0795,-2.1058,-2.1151,-2.1264,-2.1615,-2.1864,-2.2183,-2.2457,-2.3119,-2.3431,-0.989,-1.0493,-0.948,-0.9476,-1.0485,-0.9267,-0.8866,-0.8873,-0.8471,-0.7867,-0.7462,-0.6855,-0.6609,-0.6555,-0.6346,-0.6357,-0.6335,-0.6748,-0.6603,-0.6637,-0.6657,-0.6657,-0.6657,-0.6657,-0.7056,-0.6858,-0.7264,-0.7465,-0.7059,-0.6898,-0.7119,-0.7518,-0.7496,-0.7907,-0.812,-0.814,-0.7954,-0.7588,-0.7408,-0.7426,-0.7023,-0.7049,-0.7301,-0.7742,-0.7957,-0.8423,-0.8633,-0.9221,-0.9415,-0.9604,-0.9776,-1.012,-1.0457,-1.0236,-1.0784,-1.1507,-1.1287,-1.1483,-1.2089,-1.24,-1.2556,-1.1916,-1.1613,-1.1513,-1.1932,-1.1952,-1.2058,-1.2042,-1.2216,-1.2188,-1.2172,-1.2172,-1.2172,-1.2172,-1.2172,-1.2361,-1.255,-1.2739,-1.2928,-1.3116,-1.3682,-1.4034,-1.4196,-1.4351,-1.4633,-1.4936,-1.5025,-1.5099,-1.5106,-1.512,-1.516,-1.5181,-1.5181,-1.5368,-1.5744,-1.6306,-1.6868,-1.7242,-1.7803,-1.8176,-1.8557,-1.8549,-1.8922,-1.9294,-1.9666,-1.9789,-2.0042,-2.0043,-2.0411,-2.0788,-2.1225,-2.1686,-2.1957,-2.2204,-2.2162,-0.8277,-0.8884,-0.7267,-0.7059,-0.8065,-0.7455,-0.7257,-0.7261,-0.7062,-0.6458,-0.6055,-0.5649,-0.542,-0.5585,-0.5592,-0.5184,-0.5381,-0.539,-0.5618,-0.5436,-0.5448,-0.5649,-0.5649,-0.5851,-0.5851,-0.5853,-0.6075,-0.6283,-0.6086,-0.5932,-0.5964,-0.5964,-0.5728,-0.6346,-0.7175,-0.719,-0.7008,-0.6836,-0.6867,-0.6873,-0.6457,-0.669,-0.6918,-0.7381,-0.7601,-0.7827,-0.8269,-0.8882,-0.9285,-0.9476,-0.9647,-1.0182,-1.0317,-1.0453,-1.06,-1.0932,-1.1082,-1.1087,-1.1488,-1.1884,-1.2284,-1.2033,-1.1511,-1.1461,-1.1427,-1.1472,-1.1781,-1.1936,-1.208,-1.2216,-1.2194,-1.2172,-1.2172,-1.2172,-1.2172,-1.2361,-1.2361,-1.255,-1.255,-1.2739,-1.311,-1.3299,-1.4046,-1.4397,-1.4732,-1.5038,-1.5086,-1.514,-1.5147,-1.5153,-1.5167,-1.5181,-1.5181,-1.5368,-1.5556,-1.6306,-1.6868,-1.7055,-1.7616,-1.7989,-1.8176,-1.8176,-1.8176,-1.8549,-1.8922,-1.893,-1.9225,-1.9656,-1.9897,-2.0124,-2.0383,-2.0798,-2.0918,-2.1008,-2.15,-0.7074,-0.7881,-0.6872,-0.5856,-0.5246,-0.4837,-0.5246,-0.5863,-0.5866,-0.5462,-0.4855,-0.4853,-0.4626,-0.44,-0.4821,-0.4215,-0.3602,-0.4019,-0.4036,-0.3836,-0.4249,-0.384,-0.4045,-0.4249,-0.4669,-0.4457,-0.4886,-0.5115,-0.4911,-0.4749,-0.458,-0.4597,-0.4369,-0.4562,-0.5602,-0.5185,-0.4978,-0.5196,-0.5657,-0.5883,-0.6105,-0.6344,-0.6576,-0.6796,-0.7223,-0.7444,-0.7656,-0.8504,-0.8914,-0.9122,-0.9737,-0.9856,-0.9947,-0.9918,-1.0245,-1.0502,-1.0485,-1.0685,-1.1287,-1.1282,-1.1483,-1.1668,-1.1154,-1.0923,-1.1106,-1.1407,-1.1691,-1.1854,-1.1984,-1.2292,-1.2237,-1.2194,-1.221,-1.2178,-1.2178,-1.2188,-1.2188,-1.2361,-1.2361,-1.2361,-1.2361,-1.255,-1.3682,-1.4429,-1.4986,-1.516,-1.5174,-1.5181,-1.5181,-1.5181,-1.5181,-1.5181,-1.5181,-1.5181,-1.5556,-1.6306,-1.6681,-1.7055,-1.7429,-1.7989,-1.8176,-1.8176,-1.8176,-1.8176,-1.8363,-1.8557,-1.893,-1.9276,-1.9332,-1.9384,-1.9434,-1.9699,-1.9825,-2.0138,-2.0638,-0.5531,-0.591,-0.4718,-0.4098,-0.387,-0.3867,-0.4274,-0.5098,-0.4919,-0.4509,-0.3875,-0.367,-0.3651,-0.3431,-0.3021,-0.2822,-0.2416,-0.2215,-0.2424,-0.3236,-0.3251,-0.3261,-0.3469,-0.3481,-0.3696,-0.3704,-0.3922,-0.4132,-0.3925,-0.3754,-0.3771,-0.3782,-0.3794,-0.4002,-0.4614,-0.4818,-0.5035,-0.5066,-0.5298,-0.5305,-0.5307,-0.5532,-0.5754,-0.5754,-0.6392,-0.6605,-0.6605,-0.7668,-0.8306,-0.8511,-0.9126,-0.9453,-0.9553,-0.951,-0.9816,-0.9911,-1.0083,-1.0284,-1.0685,-1.0881,-1.0881,-1.0849,-1.0604,-1.0374,-1.0604,-1.0661,-1.1002,-1.1573,-1.1911,-1.2031,-1.2324,-1.2384,-1.2384,-1.2232,-1.2205,-1.2216,-1.2216,-1.2188,-1.2172,-1.2361,-1.2361,-1.2739,-1.3493,-1.4435,-1.4993,-1.5181,-1.5181,-1.5181,-1.5181,-1.5181,-1.5181,-1.5181,-1.5181,-1.5181,-1.5375,-1.6155,-1.656,-1.6951,-1.7476,-1.7989,-1.8176,-1.8192,-1.8176,-1.8176,-1.8363,-1.8557,-1.8735,-1.8735,-1.8719,-1.8626,-1.8877,-1.8975,-1.9114,-1.9616,-2.0115,-0.4333,-0.4098,-0.3502,-0.3294,-0.3279,-0.3285,-0.3701,-0.4324,-0.414,-0.3717,-0.328,-0.2868,-0.2853,-0.2834,-0.2424,-0.1414,-0.1212,-0.1014,-0.1218,-0.2236,-0.2459,-0.2467,-0.2682,-0.269,-0.269,-0.27,-0.2708,-0.292,-0.3547,-0.3367,-0.3382,-0.3389,-0.3401,-0.3608,-0.4021,-0.4231,-0.4446,-0.4465,-0.4683,-0.4685,-0.4685,-0.4689,-0.4902,-0.5115,-0.5328,-0.5756,-0.5969,-0.6605,-0.7453,-0.7653,-0.8253,-0.9031,-0.9165,-0.9289,-0.9616,-0.9755,-0.9693,-0.989,-1.0079,-1.0279,-1.0279,-1.0275,-0.9815,-1.0023,-1.0258,-1.037,-1.0914,-1.1284,-1.1643,-1.1952,-1.2267,-1.2536,-1.2433,-1.2281,-1.2232,-1.2248,-1.221,-1.2178,-1.2172,-1.2172,-1.2361,-1.2928,-1.3493,-1.4429,-1.5181,-1.5181,-1.5181,-1.5181,-1.5181,-1.5181,-1.5181,-1.5181,-1.5208,-1.5228,-1.5437,-1.6038,-1.6445,-1.6852,-1.7381,-1.8086,-1.8233,-1.8257,-1.8217,-1.8176,-1.8176,-1.8363,-1.8176,-1.8168,-1.8346,-1.8532,-1.8685,-1.8618,-1.8752,-1.907,-1.9751,-0.3307,-0.328,-0.328,-0.3284,-0.3285,-0.3314,-0.3326,-0.3325,-0.3324,-0.3307,-0.3074,-0.205,-0.1835,-0.2833,-0.2831,-0.182,0.0,0.0,0.0,0.0,-0.124,-0.1451,-0.1662,-0.1665,-0.1461,-0.1462,-0.1675,-0.2105,-0.3161,-0.2966,-0.2979,-0.3194,-0.3195,-0.3407,-0.3618,-0.3404,-0.362,-0.3837,-0.3837,-0.3624,-0.3411,-0.3837,-0.4048,-0.4263,-0.4689,-0.4902,-0.5328,-0.5967,-0.6605,-0.7025,-0.7865,-0.846,-0.8821,-0.9158,-0.9285,-0.9604,-0.9718,-0.9693,-0.9882,-0.9882,-0.9882,-0.9882,-1.0074,-1.0079,-1.007,-1.0045,-1.0613,-1.1173,-1.153,-1.2051,-1.2385,-1.2509,-1.2439,-1.2346,-1.227,-1.2237,-1.2194,-1.2172,-1.2172,-1.2361,-1.2361,-1.2928,-1.3682,-1.4435,-1.5181,-1.5181,-1.5181,-1.5181,-1.5181,-1.5181,-1.5181,-1.5187,-1.5221,-1.5282,-1.5506,-1.5941,-1.6385,-1.662,-1.7352,-1.7884,-1.8206,-1.8314,-1.8257,-1.8217,-1.8184,-1.8176,-1.8176,-1.8176,-1.8176,-1.8363,-1.8549,-1.8532,-1.8458,-1.8854,-1.9208,-0.3369,-0.3343,-0.3153,-0.315,-0.3347,-0.3371,-0.3385,-0.3384,-0.3363,-0.2919,-0.2066,-0.1027,0.0,-0.1011,-0.0814,0.0,0.0,0.0,0.0,0.0,0.0,0.0,0.0,0.0,0.0,0.0,0.0,-0.1061,-0.191,-0.2131,-0.2131,-0.2131,-0.2772,-0.2985,-0.2985,-0.2558,-0.2985,-0.3198,-0.2985,-0.2558,-0.2345,-0.2557,-0.2983,-0.3411,-0.3837,-0.405,-0.4689,-0.5328,-0.5754,-0.6392,-0.6777,-0.7369,-0.799,-0.8287,-0.8585,-0.9128,-0.9488,-0.9681,-0.9681,-0.9681,-0.9681,-0.9681,-0.9882,-0.9882,-0.9882,-0.9874,-1.0467,-1.1035,-1.141,-1.1753,-1.2497,-1.2629,-1.2526,-1.2433,-1.2368,-1.2324,-1.227,-1.2205,-1.2205,-1.2361,-1.255,-1.3116,-1.387,-1.4617,-1.5181,-1.5181,-1.5187,-1.5201,-1.5208,-1.5215,-1.5221,-1.5228,-1.5309,-1.5391,-1.5629,-1.5876,-1.6323,-1.6565,-1.7313,-1.765,-1.7947,-1.8049,-1.8134,-1.8249,-1.8217,-1.8192,-1.8176,-1.8176,-1.8176,-1.8176,-1.8363,-1.8363,-1.8363,-1.8557,-1.8744,-0.3375,-0.3352,-0.3367,-0.3371,-0.3162,-0.2974,-0.2772,-0.2768,-0.318,-0.2942,-0.2283,-0.0826,0.0,0.0,0.0,0.0,0.0,0.0,0.0,0.0,0.0,0.0,0.0,0.0,0.0,0.0,0.0,-0.0426,0.0,0.0,-0.1066,-0.1066,0.0,0.0,-0.2985,-0.2985,-0.2985,-0.2985,-0.2772,-0.1918,0.0,0.0,0.0,-0.2133,-0.2774,-0.3412,-0.405,-0.4478,-0.4902,-0.5541,-0.5926,-0.6766,-0.7378,-0.7899,-0.8399,-0.8948,-0.9093,-0.9484,-0.9681,-0.9681,-0.9681,-0.9681,-0.9681,-0.9681,-0.9681,-0.9878,-1.048,-1.1068,-1.1268,-1.1659,-1.2222,-1.277,-1.2645,-1.2526,-1.2482,-1.2439,-1.2357,-1.2265,-1.2411,-1.2372,-1.2739,-1.3305,-1.4059,-1.4805,-1.5187,-1.5201,-1.5248,-1.5303,-1.5309,-1.5309,-1.5309,-1.5316,-1.5425,-1.5533,-1.5767,-1.6022,-1.6307,-1.6551,-1.6911,-1.724,-1.7512,-1.7612,-1.7717,-1.7978,-1.8046,-1.8208,-1.8184,-1.8176,-1.8176,-1.8176,-1.8176,-1.8176,-1.8363,-1.8363,-1.8549,-0.3355,-0.3332,-0.312,-0.2932,-0.2951,-0.2338,-0.1918,-0.1918,-0.2982,-0.3378,-0.2914,-0.1038,0.0,0.0,0.0,0.0,0.0,0.0,0.0,0.0,0.0,0.0,0.0,0.0,0.0,0.0,0.0,0.0,0.0,0.0,0.0,0.0,0.0,0.0,-0.2345,-0.2993,-0.2995,-0.2355,-0.2142,0.0,0.0,0.0,0.0,0.0,-0.171,-0.3204,-0.3416,-0.384,-0.4261,-0.4687,-0.5113,-0.5962,-0.676,-0.7549,-0.8276,-0.88,-0.8933,-0.9097,-0.9484,-0.9681,-0.9681,-0.9681,-0.9681,-0.9681,-0.9681,-0.9681,-1.0284,-1.1082,-1.1278,-1.1879,-1.2453,-1.2814,-1.2721,-1.2634,-1.2585,-1.2487,-1.2368,-1.2281,-1.2216,-1.2378,-1.2928,-1.3493,-1.387,-1.4617,-1.5181,-1.5208,-1.5093,-1.5174,-1.5425,-1.5425,-1.5452,-1.5452,-1.556,-1.5676,-1.5744,-1.6007,-1.63,-1.6532,-1.6693,-1.6817,-1.7098,-1.7203,-1.7305,-1.7535,-1.7938,-1.8046,-1.8192,-1.8184,-1.8176,-1.8176,-1.8176,-1.8176,-1.8176,-1.8176,-1.8363,-0.3397,-0.3179,-0.1482,-0.0848,-0.1062,-0.2342,-0.2345,-0.1918,-0.2985,-0.3168,-0.2915,0.0,0.0,0.0,0.0,0.0,0.0,0.0,0.0,0.0,0.0,0.0,0.0,0.0,0.0,0.0,0.0,0.0,0.0,0.0,0.0,0.0,0.0,0.0,-0.1068,-0.2143,-0.2581,-0.1292,0.0,0.0,0.0,0.0,0.0,0.0,0.0,0.0,-0.2577,-0.3422,-0.3842,-0.4263,-0.4474,-0.5097,-0.6118,-0.7142,-0.7692,-0.7799,-0.8568,-0.8933,-0.9093,-0.948,-0.9681,-0.9681,-0.9681,-0.9681,-0.9681,-0.9681,-1.0083,-1.0881,-1.1483,-1.2084,-1.2479,-1.2642,-1.2808,-1.2743,-1.2678,-1.2536,-1.239,-1.2297,-1.2221,-1.2572,-1.3122,-1.3493,-1.387,-1.4435,-1.4993,-1.5046,-1.476,-1.4845,-1.5136,-1.5375,-1.5455,-1.5475,-1.5723,-1.5825,-1.5886,-1.5934,-1.6199,-1.6432,-1.6595,-1.6729,-1.6861,-1.6933,-1.7188,-1.7413,-1.7844,-1.793,-1.8038,-1.8184,-1.8176,-1.8176,-1.8176,-1.8176,-1.8176,-1.8176,-1.8176,-0.3392,-0.3179,0.0,0.0,0.0,-0.1279,-0.1492,-0.0853,-0.0639,-0.0423,-0.0418,0.0,0.0,0.0,0.0,0.1472,0.1257,0.0,0.0,0.0,0.0849,0.0,0.0639,0.0,0.0,0.0,0.0,0.0,0.0,0.0,0.0,0.0,0.0,0.0,0.0,0.0,0.0,0.0,0.0,0.0,0.0,0.0,0.0,0.0,0.0,0.0,-0.1723,-0.2572,-0.3628,-0.3837,-0.4261,-0.4896,-0.5717,-0.6534,-0.6893,-0.7438,-0.7994,-0.8553,-0.8907,-0.9078,-0.948,-0.948,-0.9681,-0.9681,-0.9681,-0.9681,-1.0284,-1.0881,-1.1282,-1.1683,-1.2484,-1.2863,-1.2852,-1.2814,-1.277,-1.2683,-1.2482,-1.2308,-1.2237,-1.2372,-1.2928,-1.3682,-1.4059,-1.4623,-1.5006,-1.5053,-1.4957,-1.4911,-1.5202,-1.5327,-1.5407,-1.5663,-1.5893,-1.5934,-1.5988,-1.6015,-1.6056,-1.6275,-1.6481,-1.6432,-1.6553,-1.681,-1.7061,-1.7106,-1.7345,-1.7404,-1.771,-1.7827,-1.8176,-1.8176,-1.8176,-1.8176,-1.8176,-1.8176,-1.8176,-0.2951,-0.2739,-0.0843,0.0,0.0,0.0426,0.0426,0.0639,0.2344,0.3185,0.2743,0.1265,0.0419,0.1046,0.2098,0.2945,0.2957,0.2124,0.1917,0.1917,0.1917,0.1918,0.1492,0.0,0.0,0.0,0.0,0.0,0.0,0.0,0.0,0.0,0.0,0.0,0.0,0.0,0.0,0.0,0.0,0.0,0.0,0.0,0.0,0.0,0.0,0.0,0.0,-0.1716,-0.2988,-0.3411,-0.3837,-0.4685,-0.5528,-0.6137,-0.651,-0.7072,-0.7423,-0.7977,-0.8319,-0.8687,-0.9082,-0.948,-0.948,-0.9681,-0.9681,-0.9882,-1.0279,-1.0881,-1.1082,-1.1683,-1.2489,-1.289,-1.2879,-1.2852,-1.2819,-1.277,-1.2542,-1.2319,-1.2237,-1.2172,-1.2928,-1.3493,-1.387,-1.4617,-1.4838,-1.4884,-1.4997,-1.5142,-1.5288,-1.5433,-1.5552,-1.5783,-1.5995,-1.6042,-1.6069,-1.6069,-1.6083,-1.6083,-1.6282,-1.6083,-1.6254,-1.6342,-1.6593,-1.6609,-1.6855,-1.7117,-1.735,-1.7632,-1.7803,-1.8176,-1.8176,-1.8176,-1.8176,-1.8176,-1.8176,-0.0638,-0.0638,-0.0213,0.0,0.0,0.1918,0.2772,0.2558,0.2131,0.2555,0.3189,0.2975,0.2328,0.1469,0.1694,0.2337,0.3397,0.2983,0.2983,0.2985,0.2772,0.2985,0.2772,0.2345,0.2131,0.1705,0.128,0.0856,0.0859,0.1291,0.194,0.2371,0.0651,0.0,0.0,0.0,0.0,0.0,0.0,0.0,0.0,0.0,0.0,0.0,0.0,0.0,0.0,0.0,-0.1921,-0.2345,-0.2985,-0.4263,-0.4898,-0.5738,-0.6125,-0.6703,-0.7061,-0.7411,-0.7967,-0.8113,-0.85,-0.8877,-0.9078,-0.9279,-0.948,-0.9681,-1.0284,-1.0881,-1.1282,-1.1889,-1.2489,-1.289,-1.2879,-1.2814,-1.277,-1.2672,-1.2509,-1.233,-1.2194,-1.255,-1.2928,-1.3116,-1.3305,-1.387,-1.426,-1.4342,-1.4495,-1.4629,-1.5113,-1.5296,-1.5479,-1.5877,-1.6083,-1.6083,-1.6076,-1.6076,-1.6083,-1.6083,-1.6083,-1.6083,-1.6076,-1.6076,-1.6138,-1.6321,-1.6573,-1.7039,-1.7276,-1.7484,-1.7811,-1.8192,-1.8184,-1.8176,-1.8176,-1.8176,-1.8176]}]]